[[{"header":{"parameterUnit":"m.s-1","parameterCategory":1,"la1":30.6,"la2":29.2853,"lo1":-89.7004,"lo2":-87.6739,"dy":0.0162,"dx":0.0183,"nx":112,"ny":82,"refTime":"2023-06-18T18:00:00:Z","depth":0,"parameterNumber":2,"parameterNumberName":"U-component_of_WINDS"},"data":[0.0,0.0,0.0,0.0,0.0,0.0,0.0,0.0,0.0,0.0,0.0,0.0,0.0,0.0,0.0,0.0,0.0,0.0,0.0,0.0,0.0,0.0,0.0,0.0,0.0,0.0,0.0,0.0,0.0,0.0,0.0,0.0,0.0,0.0,0.0,0.0,0.0,0.0,0.0,0.0,0.0,0.0,0.0,0.0,0.0,0.0,0.0,0.0,0.0,0.0,0.0,0.0,0.0,0.0,0.0,0.0,0.0,0.0,0.0,0.0,0.0,0.0,0.0,0.0,0.0,0.0,0.0,0.0,0.0,0.0,0.0,0.0,0.0,0.0,0.0,0.0,0.0,0.0,0.0,0.0,0.0,0.0,0.0,0.0,0.0,0.0,0.0,0.0,0.0,0.0,3.2462,3.3402,3.4623,3.535,3.5209,3.4277,3.3242,3.2163,0.0,0.0,0.0,0.0,0.0,0.0,0.0,0.0,0.0,0.0,0.0,0.0,0.0,0.0,0.0,0.0,0.0,0.0,0.0,0.0,0.0,0.0,0.0,0.0,0.0,0.0,0.0,0.0,0.0,0.0,0.0,0.0,0.0,0.0,0.0,0.0,0.0,0.0,0.0,0.0,0.0,0.0,0.0,0.0,0.0,0.0,0.0,0.0,0.0,0.0,0.0,0.0,0.0,0.0,0.0,0.0,0.0,0.0,0.0,0.0,0.0,0.0,0.0,0.0,0.0,0.0,0.0,0.0,0.0,0.0,0.0,0.0,0.0,0.0,0.0,0.0,0.0,0.0,0.0,0.0,0.0,0.0,0.0,0.0,0.0,0.0,0.0,0.0,0.0,0.0,0.0,0.0,0.0,0.0,0.0,0.0,0.0,0.0,0.0,0.0,0.0,0.0,0.0,0.0,3.3574,3.5063,3.5323,3.534,3.5207,3.4277,3.3242,3.2163,0.0,0.0,0.0,0.0,0.0,0.0,0.0,0.0,0.0,0.0,0.0,0.0,0.0,0.0,0.0,0.0,0.0,0.0,0.0,0.0,0.0,0.0,0.0,0.0,0.0,0.0,0.0,0.0,0.0,0.0,0.0,0.0,0.0,0.0,0.0,0.0,0.0,0.0,0.0,0.0,0.0,0.0,0.0,0.0,0.0,0.0,0.0,0.0,0.0,0.0,0.0,0.0,0.0,0.0,0.0,0.0,0.0,0.0,0.0,0.0,0.0,0.0,0.0,0.0,0.0,0.0,0.0,0.0,0.0,0.0,0.0,0.0,0.0,0.0,0.0,0.0,0.0,0.0,0.0,0.0,0.0,0.0,0.0,0.0,0.0,0.0,0.0,0.0,0.0,0.0,0.0,0.0,0.0,0.0,0.0,0.0,0.0,0.0,0.0,0.0,0.0,0.0,0.0,3.2742,3.3809,3.5419,3.5477,3.5355,3.5207,3.4677,3.3715,3.2201,3.1563,0.0,0.0,0.0,0.0,0.0,0.0,0.0,0.0,0.0,0.0,0.0,0.0,0.0,0.0,0.0,0.0,0.0,0.0,0.0,0.0,0.0,0.0,0.0,0.0,0.0,0.0,0.0,0.0,0.0,0.0,0.0,0.0,0.0,0.0,0.0,0.0,0.0,0.0,0.0,0.0,0.0,0.0,0.0,0.0,0.0,0.0,0.0,0.0,0.0,0.0,0.0,0.0,0.0,0.0,0.0,0.0,0.0,0.0,0.0,0.0,0.0,0.0,0.0,0.0,0.0,0.0,0.0,0.0,0.0,0.0,0.0,0.0,0.0,0.0,0.0,0.0,0.0,0.0,0.0,0.0,0.0,0.0,0.0,0.0,0.0,0.0,0.0,0.0,0.0,0.0,0.0,0.0,0.0,0.0,0.0,0.0,0.0,0.0,0.0,0.0,0.0,0.0,3.3219,3.3819,3.543,3.5489,3.5355,3.5207,3.5019,3.4093,3.222,3.192,0.0,0.0,0.0,0.0,0.0,0.0,0.0,0.0,0.0,0.0,0.0,0.0,0.0,0.0,0.0,0.0,0.0,0.0,0.0,0.0,0.0,0.0,0.0,0.0,0.0,0.0,0.0,0.0,0.0,0.0,0.0,0.0,0.0,0.0,0.0,0.0,0.0,0.0,0.0,0.0,0.0,0.0,0.0,0.0,0.0,0.0,0.0,0.0,0.0,0.0,0.0,0.0,0.0,0.0,0.0,0.0,0.0,0.0,0.0,0.0,0.0,0.0,0.0,0.0,0.0,0.0,0.0,0.0,0.0,0.0,0.0,0.0,0.0,0.0,0.0,0.0,0.0,0.0,0.0,0.0,0.0,0.0,0.0,0.0,0.0,0.0,0.0,0.0,0.0,0.0,0.0,0.0,0.0,0.0,0.0,0.0,0.0,0.0,0.0,0.0,0.0,0.0,3.3242,3.3828,3.5433,3.5483,3.5355,3.5207,3.5019,3.4093,3.222,3.192,0.0,0.0,0.0,0.0,0.0,0.0,0.0,0.0,0.0,0.0,0.0,0.0,0.0,0.0,0.0,0.0,0.0,0.0,0.0,0.0,0.0,0.0,0.0,0.0,0.0,0.0,0.0,0.0,0.0,0.0,0.0,0.0,0.0,0.0,0.0,0.0,0.0,0.0,0.0,0.0,0.0,0.0,0.0,0.0,0.0,0.0,0.0,0.0,0.0,0.0,0.0,0.0,0.0,0.0,0.0,0.0,0.0,0.0,0.0,0.0,0.0,0.0,0.0,0.0,0.0,0.0,0.0,0.0,0.0,0.0,0.0,0.0,0.0,0.0,0.0,0.0,0.0,0.0,0.0,0.0,0.0,0.0,0.0,0.0,0.0,0.0,0.0,0.0,0.0,0.0,0.0,0.0,0.0,0.0,0.0,0.0,0.0,0.0,0.0,0.0,0.0,0.0,3.3239,3.3824,3.5484,3.5495,3.5355,3.5207,3.5019,3.4093,3.222,0.0,0.0,0.0,0.0,0.0,0.0,0.0,0.0,0.0,0.0,0.0,0.0,0.0,0.0,0.0,0.0,0.0,0.0,0.0,0.0,0.0,0.0,0.0,0.0,0.0,0.0,0.0,0.0,0.0,0.0,0.0,0.0,0.0,0.0,0.0,0.0,0.0,0.0,0.0,0.0,0.0,0.0,0.0,0.0,0.0,0.0,0.0,0.0,0.0,0.0,0.0,0.0,0.0,0.0,0.0,0.0,0.0,0.0,0.0,0.0,0.0,0.0,0.0,0.0,0.0,0.0,0.0,0.0,0.0,0.0,0.0,0.0,0.0,0.0,0.0,0.0,0.0,0.0,0.0,0.0,0.0,0.0,0.0,0.0,0.0,0.0,0.0,0.0,0.0,0.0,0.0,0.0,0.0,0.0,0.0,0.0,0.0,0.0,0.0,0.0,0.0,0.0,3.3145,3.3498,3.414,3.5543,3.5514,3.5355,3.5207,3.5019,3.4093,3.222,0.0,0.0,0.0,0.0,0.0,0.0,0.0,0.0,0.0,0.0,0.0,0.0,0.0,0.0,0.0,0.0,0.0,0.0,0.0,0.0,0.0,0.0,0.0,0.0,0.0,0.0,0.0,0.0,0.0,0.0,0.0,0.0,0.0,0.0,0.0,0.0,0.0,0.0,0.0,0.0,0.0,0.0,0.0,0.0,0.0,0.0,0.0,0.0,0.0,0.0,0.0,0.0,0.0,0.0,0.0,0.0,0.0,0.0,0.0,0.0,0.0,0.0,0.0,0.0,0.0,0.0,0.0,0.0,0.0,0.0,0.0,0.0,0.0,0.0,0.0,0.0,0.0,0.0,0.0,0.0,0.0,0.0,0.0,0.0,0.0,0.0,0.0,0.0,0.0,0.0,0.0,0.0,0.0,0.0,0.0,0.0,0.0,0.0,0.0,0.0,0.0,0.0,3.3289,3.4047,3.4816,3.5601,3.5514,3.5355,3.5207,3.5019,3.4093,0.0,0.0,0.0,0.0,0.0,0.0,0.0,0.0,0.0,0.0,0.0,0.0,0.0,0.0,0.0,0.0,0.0,0.0,0.0,0.0,0.0,0.0,0.0,0.0,0.0,0.0,0.0,0.0,0.0,0.0,0.0,0.0,0.0,0.0,0.0,0.0,0.0,0.0,0.0,0.0,0.0,0.0,0.0,0.0,0.0,0.0,0.0,0.0,0.0,0.0,0.0,0.0,0.0,0.0,0.0,0.0,0.0,0.0,0.0,0.0,0.0,0.0,0.0,0.0,0.0,0.0,0.0,0.0,0.0,0.0,0.0,0.0,0.0,0.0,0.0,0.0,0.0,0.0,0.0,0.0,0.0,0.0,0.0,0.0,0.0,0.0,0.0,0.0,0.0,0.0,0.0,0.0,0.0,0.0,0.0,0.0,0.0,0.0,0.0,0.0,0.0,0.0,0.0,3.3294,3.4094,3.486,3.562,3.5562,3.5369,3.5138,3.4945,3.4015,3.2135,0.0,0.0,0.0,0.0,0.0,0.0,0.0,0.0,0.0,0.0,0.0,0.0,0.0,0.0,0.0,0.0,0.0,0.0,0.0,0.0,0.0,0.0,0.0,0.0,0.0,0.0,0.0,0.0,0.0,0.0,0.0,0.0,0.0,0.0,0.0,0.0,0.0,0.0,0.0,0.0,0.0,0.0,0.0,0.0,0.0,0.0,0.0,0.0,0.0,0.0,0.0,0.0,0.0,0.0,0.0,0.0,0.0,0.0,0.0,0.0,0.0,0.0,0.0,0.0,0.0,0.0,0.0,0.0,0.0,0.0,0.0,0.0,0.0,0.0,0.0,0.0,0.0,0.0,0.0,0.0,0.0,0.0,0.0,0.0,0.0,0.0,0.0,0.0,0.0,0.0,0.0,0.0,0.0,0.0,0.0,0.0,0.0,0.0,0.0,0.0,0.0,0.0,3.3281,3.4387,3.5268,3.5657,3.5585,3.5402,3.5122,3.4926,3.3995,3.2112,0.0,0.0,0.0,0.0,0.0,0.0,0.0,0.0,0.0,0.0,0.0,0.0,0.0,0.0,0.0,0.0,0.0,0.0,0.0,0.0,0.0,0.0,0.0,0.0,0.0,0.0,0.0,0.0,0.0,0.0,0.0,0.0,0.0,0.0,0.0,0.0,0.0,0.0,0.0,0.0,0.0,0.0,0.0,0.0,0.0,0.0,0.0,0.0,0.0,0.0,0.0,0.0,0.0,0.0,0.0,0.0,0.0,0.0,0.0,0.0,0.0,0.0,0.0,0.0,0.0,0.0,0.0,0.0,0.0,0.0,0.0,0.0,0.0,0.0,0.0,0.0,0.0,0.0,0.0,0.0,0.0,0.0,0.0,0.0,0.0,0.0,0.0,0.0,0.0,0.0,0.0,0.0,0.0,0.0,0.0,0.0,0.0,0.0,0.0,0.0,0.0,0.0,3.339,3.4864,3.5852,3.5704,3.5566,3.5383,3.5122,3.4926,3.4012,3.2203,0.0,0.0,0.0,0.0,0.0,0.0,0.0,0.0,0.0,0.0,0.0,0.0,0.0,0.0,0.0,0.0,0.0,0.0,0.0,0.0,0.0,0.0,0.0,0.0,0.0,0.0,0.0,0.0,0.0,0.0,0.0,0.0,0.0,0.0,0.0,0.0,0.0,0.0,0.0,0.0,0.0,0.0,0.0,0.0,0.0,0.0,0.0,0.0,0.0,0.0,0.0,0.0,0.0,0.0,0.0,0.0,0.0,0.0,0.0,0.0,1.4999,1.5825,0.0,0.0,0.0,0.0,0.0,0.0,0.0,0.0,0.0,0.0,0.0,0.0,0.0,0.0,0.0,0.0,0.0,0.0,0.0,0.0,0.0,0.0,0.0,0.0,0.0,0.0,0.0,0.0,0.0,0.0,0.0,0.0,0.0,0.0,0.0,0.0,0.0,0.0,0.0,0.0,3.4209,3.5253,3.5857,3.571,3.5538,3.5311,3.5032,3.4831,3.4151,3.2873,3.1935,0.0,0.0,0.0,0.0,0.0,0.0,0.0,0.0,0.0,0.0,0.0,0.0,0.0,0.0,0.0,0.0,0.0,0.0,0.0,0.0,0.0,0.0,0.0,0.0,0.0,0.0,0.0,0.0,0.0,0.0,0.0,0.0,0.0,0.0,0.0,0.0,0.0,0.0,0.0,0.0,0.0,0.0,0.0,0.0,0.0,0.0,0.0,0.0,0.0,0.0,0.0,0.0,0.0,0.0,0.0,0.0,0.0,0.0,0.0,1.4468,1.5101,0.0,0.0,0.0,0.0,0.0,0.0,0.0,0.0,0.0,0.0,0.0,0.0,0.0,0.0,0.0,0.0,0.0,0.0,0.0,0.0,0.0,0.0,0.0,0.0,0.0,0.0,0.0,0.0,0.0,0.0,0.0,0.0,0.0,0.0,0.0,0.0,0.0,0.0,0.0,0.0,3.4413,3.5298,3.5804,3.5716,3.5551,3.5325,3.5032,3.4792,3.418,3.3022,3.1925,0.0,0.0,0.0,0.0,0.0,0.0,0.0,0.0,0.0,0.0,0.0,0.0,0.0,0.0,0.0,0.0,0.0,0.0,0.0,0.0,0.0,0.0,0.0,0.0,0.0,0.0,0.0,0.0,0.0,0.0,0.0,0.0,0.0,0.0,0.0,0.0,0.0,0.0,0.0,0.0,0.0,0.0,0.0,0.0,0.0,0.0,0.0,0.0,0.0,0.0,0.0,0.0,0.0,1.1256,1.1901,1.2579,1.3109,1.351,1.3909,1.3879,1.4201,1.476,1.5347,0.0,0.0,0.0,0.0,0.0,0.0,0.0,0.0,0.0,0.0,0.0,0.0,0.0,0.0,0.0,0.0,0.0,0.0,0.0,0.0,0.0,0.0,2.3983,2.627,2.6703,2.7061,2.8626,0.0,0.0,0.0,0.0,0.0,0.0,0.0,0.0,0.0,0.0,0.0,3.4528,3.5298,3.5774,3.5723,3.5582,3.5372,3.5032,3.4772,3.4173,3.3178,3.1898,3.0784,0.0,0.0,0.0,0.0,0.0,0.0,0.0,0.0,0.0,0.0,0.0,0.0,0.0,0.0,0.0,0.0,0.0,0.0,0.0,0.0,0.0,0.0,0.0,0.0,0.0,0.0,0.0,0.0,0.0,0.0,0.0,0.0,0.1846,0.2213,0.0,0.0,0.0,0.0,0.0,0.0,0.0,0.0,0.0,0.0,0.0,0.0,0.0,0.8345,0.9053,0.9624,1.0224,1.0846,1.1253,1.1635,1.2112,1.2451,1.2923,1.3392,1.3713,0.0,1.5232,1.5904,0.0,0.0,0.0,0.0,0.0,0.0,0.0,0.0,0.0,0.0,0.0,0.0,0.0,0.0,0.0,0.0,0.0,0.0,0.0,0.0,0.0,0.0,2.2748,2.4447,2.5048,2.5473,2.648,2.6917,2.7201,2.7486,2.7915,2.8464,0.0,0.0,0.0,0.0,0.0,0.0,3.5214,3.5617,3.58,3.5795,3.5611,3.5391,3.5102,3.4792,3.4416,3.3975,3.221,3.102,3.0646,2.8827,0.0,0.0,0.0,0.0,0.0,0.0,0.0,0.0,0.0,0.0,0.0,0.0,0.0,0.0,0.0,0.0,0.0,0.0,0.0,0.0,0.0,0.0,0.0,0.0,0.0,0.0,0.0,0.0,0.0,0.0576,0.135,0.1978,0.2354,0.2795,0.0,0.0,0.0,0.0,0.0,0.0,0.0,0.0,0.0,0.8058,0.8529,0.8972,0.9518,1.016,1.0698,1.1115,1.1559,1.1995,1.2494,1.2777,1.3201,1.377,1.4111,1.4596,1.5112,1.5471,1.5735,1.5817,0.0,0.0,0.0,0.0,1.5684,1.5625,1.5557,1.5311,1.4946,1.4459,0.0,0.0,0.0,0.0,0.0,0.0,0.0,1.0531,1.0722,1.5327,2.0535,2.2778,2.3923,2.4656,2.5432,2.5911,2.6489,2.727,2.7866,2.8522,2.947,3.0343,0.0,0.0,0.0,3.4337,3.5276,3.5606,3.5757,3.5792,3.562,3.5387,3.5119,3.4752,3.4386,3.4074,3.2556,3.1353,3.0588,2.9082,2.7865,0.0,0.0,0.0,0.0,0.0,0.0,0.0,0.0,0.0,0.0,0.0,0.0,0.0,0.0,0.0,0.0,0.0,0.0,0.0,0.0,0.0,0.0,0.0,0.0,0.0,0.0,0.0,0.0,-0.0,0.0754,0.1602,0.2128,0.2658,0.0,0.0,0.0,0.0,0.0,0.0,0.7082,0.7359,0.7904,0.8644,0.9135,0.952,0.9879,1.0551,1.1039,1.1401,1.1832,1.2378,1.29,1.3119,1.3557,1.4129,1.4346,1.4641,1.4824,1.5104,1.5199,1.5256,1.5611,1.5696,1.5752,1.579,1.5817,1.5753,1.5542,1.5219,1.4763,1.4213,1.3055,1.1614,1.0224,0.0,0.0,0.0,0.0,0.7475,0.8268,1.3142,1.8522,2.1041,2.2535,2.358,2.4193,2.4874,2.5739,2.7111,2.7919,2.8691,2.9672,3.0725,0.0,3.2796,3.3674,3.4465,3.5163,3.551,3.5718,3.5789,3.5632,3.5405,3.5117,3.4714,3.4363,3.4023,3.2794,3.1678,3.0742,2.9306,2.8075,2.708,0.0,0.0,0.0,0.0,0.0,0.0,0.0,0.0,0.0,0.0,0.0,0.0,0.0,0.0,0.0,0.0,0.0,0.0,0.0,0.0,0.0,0.0,0.0,0.0,0.0,0.0,0.0,0.0,0.0,0.1106,0.1909,0.0,0.0,0.0,0.0,0.5528,0.6231,0.6899,0.7425,0.784,0.8272,0.8659,0.9299,0.9774,1.0208,1.0813,1.1316,1.1687,1.207,1.2526,1.29,1.3119,1.3557,1.4129,1.4129,1.4281,1.4641,1.5242,1.5517,1.5475,1.548,1.5536,1.5493,1.5239,1.5041,1.4902,1.4649,1.4238,1.3627,1.29,1.0878,0.8229,0.6171,0.3882,0.0,0.0,0.3517,0.6225,0.8861,1.3074,1.7189,1.9258,2.0691,2.1724,2.2468,2.3266,2.4541,2.668,2.7811,2.8641,2.9373,0.0,3.1641,3.2244,3.3249,3.4214,3.5005,3.5408,3.5662,3.5786,3.5682,3.5461,3.513,3.4736,3.4353,3.4023,3.2794,3.193,3.1578,2.9508,2.8184,2.7758,2.6339,0.0,0.0,0.0,0.0,0.0,0.0,0.0,0.0,0.0,0.0,0.0,0.0,0.0,0.0,0.0,0.0,0.0,0.0,0.0,0.0,0.0,0.0,0.0,0.0,0.0,0.0,0.0,0.0,0.0586,0.1658,0.0,0.3205,0.4149,0.4965,0.5644,0.6335,0.7064,0.7838,0.8283,0.8782,0.9443,0.9898,1.0387,1.0751,1.1286,1.1706,1.2077,1.2378,1.2673,1.3119,1.3273,1.3748,1.4459,1.4541,1.4762,1.499,1.521,1.5218,1.5133,1.5283,1.5295,1.5278,1.5213,1.5024,1.4825,1.4469,1.4034,1.3245,1.1448,0.939,0.7166,0.4914,0.2497,0.0562,0.1059,0.2932,0.548,0.8486,1.2813,1.6818,1.862,2.0078,2.1343,2.2382,2.3307,2.434,2.5949,2.6943,2.794,2.9177,3.0542,3.1682,3.2446,3.353,3.4457,3.4859,3.5276,3.5606,3.5778,3.5684,3.5473,3.5197,3.4756,3.4353,3.4023,3.3211,3.2378,3.1586,3.0385,2.9057,2.7578,2.6651,2.5616,0.0,0.0,0.0,0.0,0.0,0.0,0.0,0.0,0.0,0.0,0.0,0.0,0.0,0.0,0.0,0.0,0.0,0.0,0.0,0.0,0.0,0.0,0.0,0.0,0.0,-0.2145,-0.1138,-0.0,0.1335,0.243,0.3199,0.4249,0.5222,0.6019,0.6799,0.747,0.8259,0.8793,0.9383,0.9986,1.0438,1.0887,1.1186,1.1706,1.2003,1.2305,1.2673,1.3046,1.3346,1.3564,1.4041,1.4548,1.4696,1.4925,1.508,1.5145,1.5146,1.5007,1.507,1.507,1.507,1.507,1.4999,1.4721,1.3985,1.3244,1.2204,1.0029,0.8214,0.6451,0.3655,0.0939,-0.0712,0.1339,0.293,0.4983,0.935,1.3258,1.6531,1.8135,1.9462,2.0779,2.1949,2.2905,2.3998,2.5193,2.6465,2.7704,2.8941,3.0505,3.1864,3.2678,3.3681,3.4539,3.504,3.5316,3.5538,3.5742,3.5696,3.5538,3.5262,3.4832,3.4398,3.4074,3.3465,3.2742,3.1845,3.0924,2.9714,2.811,2.6881,2.5679,2.446,0.0,0.0,0.0,0.0,0.0,0.0,0.0,0.0,0.0,0.0,0.0,0.0,0.0,0.0,0.0,0.0,0.0,0.0,0.0,0.0,0.0,0.0,0.0,-0.3827,-0.2816,-0.1556,-0.0582,0.0947,0.233,0.3425,0.454,0.5654,0.6619,0.761,0.8331,0.8708,0.9473,1.0003,1.0229,1.0824,1.1198,1.1409,1.2003,1.2305,1.2378,1.3119,1.3492,1.3564,1.392,1.4209,1.4441,1.4585,1.4729,1.4952,1.5158,1.5213,1.5204,1.5007,1.4935,1.4935,1.4872,1.4792,1.4353,1.3039,1.1781,1.0507,0.867,0.7391,0.586,0.2266,-0.0794,-0.2012,0.2527,0.3515,0.4742,1.1411,1.4515,1.6293,1.7671,1.8975,2.0098,2.0974,2.2101,2.3361,2.4492,2.6271,2.794,2.8796,3.0453,3.201,3.2907,3.367,0.0,3.555,3.5525,3.5485,3.568,3.571,3.5601,3.5326,3.4925,3.4526,3.4124,3.355,3.2957,3.2419,3.113,3.0095,2.9367,2.7071,2.5508,2.4785,0.0,0.0,0.0,0.0,0.0,0.0,0.0,0.0,0.0,0.0,0.0,0.0,0.0,0.0,0.0,0.0,0.0,0.0,0.0,0.0,0.0,0.1652,0.0023,-0.4665,-0.4017,-0.2756,-0.1939,0.0299,0.2334,0.3829,0.4934,0.5953,0.7179,0.8062,0.8923,0.9854,1.0407,1.0941,1.1401,1.1707,1.1916,1.2083,1.2526,1.29,1.3193,1.3572,1.3863,1.4145,1.4353,1.4704,1.5243,1.5308,1.5454,1.5454,1.5527,1.5444,1.5196,1.5133,1.5133,1.507,1.4935,1.4433,1.3637,1.2526,1.1248,0.9814,0.7977,0.6054,0.392,0.1041,-0.1546,-0.2485,0.2304,0.3479,0.4856,1.1778,1.4752,1.6351,1.7504,1.8656,1.9775,2.0789,2.1787,2.2916,2.4143,2.573,2.7419,2.9066,3.0745,3.2264,3.3292,3.4067,3.4775,3.5473,3.5407,3.5443,3.5734,3.5729,3.5591,3.5334,3.4942,3.4526,3.4124,3.355,3.2957,3.2419,3.1524,3.0195,2.8339,2.6641,2.5337,0.0,0.0,0.0,0.0,0.0,0.0,0.0,0.0,0.0,0.0,0.0,0.0,0.0,0.0,0.0,0.0,0.0,0.0,0.0,0.0,0.0,0.0,0.5693,0.4004,-0.0912,-0.186,-0.2307,-0.3004,-0.054,0.2108,0.4356,0.5671,0.69,0.8335,0.9272,1.0188,1.1044,1.1522,1.207,1.2616,1.2777,1.2939,1.3007,1.3379,1.369,1.3775,1.4072,1.4361,1.4649,1.4856,1.5185,1.5526,1.5744,1.5889,1.5889,1.5961,1.5825,1.563,0.0,0.0,0.0,0.0,1.4281,1.3477,1.2372,1.1025,0.9453,0.7533,0.5258,0.2915,0.0327,-0.2417,-0.3564,0.203,0.3351,0.4757,1.2005,1.4963,1.6378,1.7448,1.8496,1.9539,2.0557,2.1634,2.2767,2.3913,2.5392,0.0,2.8989,3.0749,3.2369,3.3724,3.4628,3.5292,3.5807,3.5815,3.5765,3.5762,3.5724,3.5611,3.5368,3.4994,0.0,0.0,0.0,3.2827,3.1967,3.1167,0.0,0.0,0.0,2.5958,2.5212,2.4545,0.0,0.0,2.2132,2.1434,0.0,0.0,0.0,0.0,0.0,0.0,0.0,0.0,0.0,0.0,0.0,0.0,0.0,0.0,0.0,0.0,1.0262,0.917,0.5662,0.2938,-0.008,-0.3741,-0.1484,0.1618,0.4859,0.6668,0.8315,0.9887,1.1014,1.1914,1.2338,1.2909,0.0,0.0,0.0,1.4108,1.423,1.4614,1.4669,1.4328,1.4848,1.5048,1.5078,1.5434,1.5568,1.5638,1.5991,1.6202,1.6202,1.6342,1.6351,1.6272,1.563,1.5275,1.5204,1.4848,1.4346,1.3688,1.2445,0.0,0.0,0.7265,0.4854,0.2372,-0.0084,-0.3241,-0.4699,0.1703,0.3158,0.454,1.211,1.5054,1.6378,1.7448,1.8576,1.9539,2.0489,2.1558,2.2756,2.3902,2.5334,2.6934,2.8671,3.0527,3.2362,3.4105,3.5135,3.5824,3.6337,3.64,3.6212,3.5747,3.5705,0.0,3.5412,3.51,3.4693,3.4221,3.3542,3.2616,3.1317,3.0477,2.9661,2.8904,2.7849,2.699,2.6283,2.5063,2.4163,2.3577,2.2824,2.2131,0.0,0.0,0.0,0.0,0.0,0.0,0.0,0.0,0.0,0.0,0.0,0.0,0.0,0.0,0.0,1.6434,1.6052,1.4706,1.1589,1.0418,0.6217,-0.3728,-0.2289,0.1235,0.5527,0.7849,0.9837,1.1718,1.291,1.3808,1.4379,1.4721,1.4968,1.5215,1.5382,1.545,1.5478,1.5875,1.593,1.5715,1.5942,0.0,1.585,1.6061,1.6202,1.6394,1.6621,1.6769,1.6769,1.676,1.6769,1.6769,1.6272,1.5929,1.5655,1.5204,1.4625,1.3833,1.2445,1.1006,0.9393,0.707,0.4714,0.2136,-0.0515,-0.3138,0.0,0.1401,0.2871,0.4504,1.1888,1.4963,1.6378,1.7448,1.8647,1.9766,2.0634,2.1787,2.2916,2.3998,2.5346,2.6921,2.8515,3.0288,3.2103,3.4039,3.4985,3.5686,3.6258,3.6312,3.6157,3.5732,3.5708,3.5628,3.5423,3.5045,3.4651,3.4221,3.313,3.2092,3.1162,3.0435,2.9601,2.8748,2.7799,2.699,2.6283,2.5063,2.4163,2.359,2.3083,2.2398,0.0,0.0,0.0,0.0,0.0,0.0,0.0,0.0,0.0,0.0,0.0,1.8038,1.8315,0.0,1.9621,2.0081,2.0098,1.9515,1.8208,1.5979,0.8905,-0.6196,-0.0767,0.4875,0.6522,0.9871,1.2806,1.4787,1.5842,1.6499,1.6789,1.6957,1.7125,1.707,1.7238,1.7142,1.6919,1.7243,1.729,1.6972,1.7276,1.7397,1.7279,1.7567,1.7599,1.7535,1.7694,1.765,1.7461,1.7461,1.7461,1.7461,1.7245,1.676,1.6132,1.578,1.5125,1.4209,1.3061,1.1523,0.964,0.7589,0.542,0.2946,-0.0175,-0.3006,-0.3921,0.1595,0.298,0.454,1.2103,1.5137,1.655,1.7691,1.8895,2.0001,2.1011,2.208,2.3213,2.436,2.5697,2.7191,2.8848,3.0468,3.2213,3.4006,3.5266,3.6221,3.6814,3.6919,3.6798,3.6397,3.5968,3.5624,3.543,3.4794,3.4208,3.3725,3.2795,3.1896,3.1123,3.0351,2.9512,2.8732,2.77,2.6901,2.6283,2.5063,2.4321,2.3978,2.3536,2.2869,0.0,0.0,0.0,0.0,0.0,0.0,0.0,1.718,1.8025,1.838,1.9377,2.0252,2.0658,2.1375,2.2149,2.2809,2.3294,2.3715,2.4226,2.123,1.3188,-0.2587,0.4404,1.0277,0.9767,1.3627,1.6779,1.8442,1.9229,1.9528,1.9349,1.9437,1.9376,1.9177,1.9097,1.8952,1.8702,1.8788,1.8748,1.8425,1.8722,1.8905,1.8829,1.9122,1.9082,1.875,1.8903,1.8666,1.833,1.8241,1.8202,1.8202,1.8202,1.7716,1.6872,1.6403,1.5664,1.4744,1.3783,1.2171,1.0269,0.8309,0.6218,0.3926,0.0532,-0.2586,-0.377,0.1907,0.3211,0.4693,1.2386,1.547,1.6878,1.8175,1.9371,2.0469,2.1471,2.2531,2.3644,2.4933,2.6239,2.763,2.9366,3.094,3.247,3.4105,3.5643,3.6881,3.747,3.7602,3.7462,3.7035,3.6223,3.5582,3.5301,3.4515,3.377,3.322,3.257,3.186,3.1123,3.0293,2.9467,2.8732,2.765,2.6849,2.6283,2.5063,2.4413,2.4246,2.3891,2.3384,1.5873,1.6618,1.7571,1.8335,1.8681,1.8973,0.0,1.9691,2.006,2.0616,2.1321,2.2018,2.2578,2.3832,2.4919,2.5383,2.6153,2.7014,2.7851,2.7637,2.5196,1.9285,1.6557,1.6046,1.8442,2.0631,2.2002,2.2433,2.2483,2.237,2.2051,2.1652,2.1303,2.1084,2.071,2.0623,2.0748,2.0604,2.0483,2.0292,2.0366,2.0166,1.9867,1.9991,2.0032,1.9961,1.9784,1.9668,1.9586,1.9173,1.9008,1.9008,1.9008,1.8721,1.8172,1.7166,1.6404,1.5667,1.4298,1.3046,1.1611,0.9149,0.6701,0.408,0.1156,-0.1781,-0.3001,0.2078,0.3415,0.5035,1.2434,1.5703,1.7277,1.8816,2.0157,2.1318,2.2317,2.3486,2.4552,2.5767,2.6989,2.84,3.0001,3.1513,3.2972,3.4347,3.588,3.7075,3.7615,3.7681,3.751,3.705,3.6222,3.5446,3.4832,3.4353,3.3797,3.3129,3.2586,3.1914,3.1123,3.0393,2.9556,2.8732,2.7735,2.6953,2.6283,2.5063,2.4203,2.3692,2.3707,2.3585,1.8302,1.8826,1.9321,1.9843,2.018,2.0469,2.0824,2.1354,2.185,2.2373,2.3237,2.4176,2.5189,2.6162,2.7214,2.8589,2.9271,3.0023,3.129,3.1763,3.1637,3.0831,2.9266,2.6457,2.1951,2.4393,2.6387,2.6518,2.6209,2.5654,2.4849,2.4329,2.38,2.3165,2.2892,2.2616,2.2328,2.2253,2.2093,2.1999,2.2094,2.2072,2.1964,2.2099,2.1937,2.1586,2.1183,2.0978,2.0797,2.0336,2.0143,2.0122,1.9833,1.9452,1.8988,1.791,1.7199,1.6555,1.5431,1.418,1.2864,1.0652,0.8076,0.5237,0.231,-0.1067,-0.2689,0.2638,0.3901,0.5382,1.2975,1.6339,1.8141,1.9806,2.1125,2.2339,2.3599,2.4612,2.5603,2.6976,2.8076,2.9324,3.0808,3.2307,3.3742,3.5155,3.6404,3.7512,3.8391,3.848,3.8083,3.7108,3.6125,3.5316,3.4813,3.4321,3.3797,3.319,3.257,3.1932,3.124,3.0418,2.9617,2.8842,2.7799,2.699,2.6283,2.5203,2.4477,2.4163,2.4087,2.3879,2.0437,2.0742,2.0952,2.1399,2.1724,2.2009,2.236,2.2963,2.3589,2.4092,2.508,2.6215,2.7342,2.8355,2.9584,3.1164,3.195,3.2798,3.4037,3.4779,3.5786,3.7312,3.7729,3.5092,2.7995,2.9416,3.0701,3.0342,2.9588,2.8733,2.7681,2.6876,2.6183,2.5378,2.4992,2.4577,2.4062,2.394,2.3806,2.3672,2.3779,2.3801,2.3801,2.3875,2.367,2.3153,2.2657,2.2374,2.219,2.1721,2.1453,2.1419,2.0964,2.0632,2.0322,1.9417,1.8506,1.7615,1.6809,1.5677,1.4377,1.2318,0.978,0.6903,0.3809,0.0177,-0.1841,0.3486,0.4682,0.611,1.3775,1.7357,1.9455,2.1151,2.2446,2.3711,2.5004,2.5914,2.687,2.8206,2.9324,3.0498,3.1881,3.3212,3.4587,3.6059,3.7128,3.8131,3.9083,3.9205,3.8637,3.7156,3.6241,3.5479,3.4851,3.4344,3.3797,3.3262,3.2636,3.1985,3.1355,3.0543,2.975,2.8951,2.7947,2.7108,2.6404,2.537,2.4704,2.4473,2.4252,2.4074,2.2121,2.2329,2.2571,2.3502,2.3878,2.4124,2.4513,2.4867,2.5315,2.5877,2.6982,2.8007,2.8613,3.0438,3.206,3.2626,3.3935,3.52,3.6008,3.6909,3.7935,3.9077,3.9565,3.9705,3.9412,3.7248,3.5266,3.3776,3.2379,3.1261,3.044,2.9184,2.8292,2.7814,2.6966,2.6451,2.6189,2.5718,2.5451,2.5451,2.5288,2.5158,2.4933,2.4719,2.4636,2.4589,2.4167,2.3955,2.3908,2.3243,2.2954,2.2887,2.2728,2.2525,2.2332,2.192,2.0652,1.9078,1.841,1.7533,1.6316,1.4253,1.1673,0.8806,0.5736,0.221,0.0153,0.4678,0.5846,0.7456,1.4887,1.8752,2.1207,2.3018,2.4267,2.5426,2.6599,2.7604,2.8566,2.9462,3.069,3.1952,3.3244,3.4364,3.5589,3.6973,3.8027,3.8858,3.9433,3.9603,3.8983,3.7201,3.6745,3.6074,3.4888,3.4367,3.3876,3.335,3.2749,3.2092,3.1435,3.069,2.9908,2.912,2.8174,2.7378,2.6683,2.555,2.4664,2.4125,2.4192,2.4001,2.3707,2.3887,2.4112,2.4483,2.4865,2.5258,2.5577,2.5986,2.6467,2.6938,2.8111,2.9346,3.0459,3.1999,3.351,3.4672,3.56,3.6486,3.729,3.8022,3.8782,3.9661,4.0115,4.0355,4.0312,3.8895,3.7394,3.6046,3.4705,3.3464,3.2361,3.1267,3.0335,2.9434,2.8821,2.8258,2.7749,2.7365,2.7085,2.6938,2.6718,2.6471,2.6333,2.6139,2.5918,2.5836,2.5538,2.5383,2.5208,2.4662,2.4377,2.434,2.3857,2.3525,2.3361,2.3442,2.2854,2.1722,2.0093,1.9044,1.8026,1.6226,1.4025,1.1453,0.8159,0.4124,0.1753,0.6665,0.7448,0.8679,1.6865,2.0903,2.3262,2.5095,2.6362,2.7446,2.8538,2.9392,3.029,3.1215,3.2268,3.3332,3.4365,3.5413,3.6714,3.8345,3.9095,3.9686,4.0224,3.9952,3.9453,3.8789,3.7492,3.6421,3.578,3.4802,3.3986,3.3476,3.289,3.2317,3.164,3.0891,3.0107,2.9316,2.8448,2.753,2.6683,2.5879,2.5104,2.4376,2.4694,2.4653,2.4921,2.5048,2.5174,2.5439,2.5715,2.6096,2.6443,2.6901,2.7399,2.7864,2.9055,3.0418,3.1737,3.3205,3.4651,3.6094,3.6833,3.7542,3.8282,3.8896,3.9504,4.0153,4.0509,4.0676,4.0616,3.9873,3.8889,3.7667,3.6431,3.5239,3.4137,3.3113,3.2087,3.1129,3.0556,2.9983,2.9317,2.8939,2.8556,2.8298,2.7868,2.763,2.7497,2.731,2.704,2.6905,2.6837,2.6633,2.6458,2.6025,2.5875,2.577,2.5299,2.5029,2.4865,2.503,2.4725,2.3991,2.2091,2.0853,1.9925,1.847,1.6555,1.4365,1.1365,0.7386,0.4857,0.9971,1.072,1.1839,1.9718,2.3647,2.5915,2.7433,2.8579,2.9553,3.0513,3.1312,3.2081,3.2898,3.3808,3.4681,3.5552,3.671,3.794,3.9325,3.987,4.0257,4.0684,4.039,4.0019,3.9643,3.8421,3.7257,3.6329,3.5343,3.4451,3.3662,3.3093,3.2486,3.1823,3.1128,3.036,2.9556,2.8685,2.7815,2.6967,2.6204,2.5495,2.4778,2.5188,2.5167,2.5729,2.5729,2.5825,2.6244,2.6457,2.6721,2.724,2.7665,2.8094,2.8638,2.9858,3.1222,3.2497,3.4041,3.5555,3.6858,3.7666,3.8376,3.9026,3.9588,4.0098,4.0559,4.0818,4.0936,4.0877,4.0618,3.9986,3.8878,3.7662,3.6606,3.571,3.4603,3.362,3.2833,3.2053,3.142,3.0896,3.0329,2.9842,2.9373,2.8867,2.861,2.8546,2.8222,2.7973,2.7855,2.7855,2.7723,2.7523,2.7377,2.7297,2.7229,2.7108,2.6973,2.6782,2.6564,2.6277,2.5779,2.4241,2.3062,2.1941,2.0901,1.9422,1.7598,1.5153,1.175,0.9764,1.4578,1.566,1.6905,2.3568,2.6961,2.894,3.0102,3.1051,3.1845,3.2585,3.3284,3.3957,3.4492,3.5245,3.6084,3.6781,3.8159,3.9321,3.9848,4.0249,4.0584,4.0783,4.0914,4.0667,3.976,3.946,3.8522,3.6593,3.5996,3.5174,3.3925,3.3327,3.2702,3.2039,3.1376,3.0642,2.9902,2.9029,2.8284,2.7619,2.6717,2.5937,2.5353,2.5667,2.5649,2.6418,2.6351,2.6404,2.6855,2.7167,2.7444,2.7913,2.8448,2.8919,2.9422,3.0565,3.1898,3.3186,3.4656,3.6121,3.7453,3.8255,3.8859,3.9333,3.9865,4.0315,4.0635,4.1383,4.1855,4.1847,4.2125,4.208,4.1468,3.9239,3.7524,3.6716,3.5744,3.4875,3.4021,3.3308,3.2687,3.2145,3.1349,3.0718,3.0222,2.9856,2.9623,2.9435,2.9107,2.8881,2.8766,2.861,2.843,2.8327,2.8249,2.8249,2.8249,2.8026,2.796,2.7894,2.7696,2.7497,2.7229,2.6854,2.5496,2.3918,2.3267,2.2348,2.1179,1.979,1.7862,1.7014,2.0714,2.1791,2.3007,2.8144,3.0637,3.1927,3.2708,3.3382,3.4007,3.4393,3.4952,3.5538,3.6,3.6905,3.7812,3.8395,3.9151,3.9827,4.0206,4.053,4.0768,4.0866,4.0952,4.0893,4.0607,3.9816,3.9018,3.8307,3.672,3.5506,3.4797,3.3735,3.2862,3.2231,3.1582,3.1096,3.0854,3.0083,2.9518,2.9185,2.8542,2.781,2.7155,2.7189,2.6934,2.6893,2.6893,2.7011,2.7386,2.771,2.8027,2.8543,2.9058,2.9528,3.0027,3.0875,3.1952,3.3235,3.4705,3.613,3.7428,3.8472,3.9268,3.9664,4.0119,4.0626,4.1287,4.1889,4.2382,4.2744,4.2942,4.289,4.2519,4.0672,3.9258,3.8506,3.7644,3.6648,3.5438,3.4774,3.3918,3.2803,3.2048,3.1495,3.0999,3.0658,3.0433,3.0251,2.987,2.9699,2.9526,2.931,2.9135,2.9035,2.9035,2.9035,2.9035,2.8881,2.8817,2.8739,2.861,2.8495,2.8365,2.8417,2.7749,2.6671,2.5758,2.5175,2.4658,2.4082,2.4014,2.4587,2.6549,2.8566,3.0597,3.2591,3.3857,3.4701,3.5103,3.5539,3.5911,3.6145,3.658,3.7017,3.754,3.8253,3.8924,3.9357,3.9827,4.0206,4.0496,4.0726,4.0906,4.0983,4.0994,4.0976,4.0907,4.0275,3.9615,3.8955,3.7709,3.6611,3.5725,3.4827,3.4042,3.3407,3.2786,3.2266,3.1874,3.1083,3.0469,3.0068,2.9372,2.8652,2.7981,2.7991,2.7727,2.7284,2.7386,2.7539,2.779,2.814,2.8496,2.9028,2.9528,2.9984,3.0468,3.1044,3.1826,3.303,3.4408,3.5806,3.7119,3.8432,3.9467,3.9963,4.0425,4.1074,4.207,4.2466,4.2926,4.3604,4.3535,4.3304,4.2984,4.2175,4.1304,4.0419,3.9589,3.846,3.6898,3.6154,3.4966,3.325,3.2609,3.2135,3.1796,3.1321,3.1043,3.0881,3.0568,3.0312,3.019,3.0007,2.9837,2.9727,2.9727,2.9665,2.9665,2.9665,2.9588,2.9435,2.9435,2.9387,2.9338,2.9498,2.9642,2.9538,2.8231,2.7891,2.7988,2.8112,2.9705,3.1535,3.1924,3.4889,3.7708,3.6611,3.6734,3.7169,3.7284,3.741,3.7621,3.7781,3.8012,3.8377,3.8998,3.9358,3.9626,3.9927,4.0243,4.0506,4.0688,4.0882,4.1035,4.1072,4.103,4.0974,4.0906,4.0707,4.0177,3.9146,3.8719,3.7943,3.6656,3.6065,3.5483,3.4835,3.4198,3.3549,3.2873,3.2013,3.13,3.0695,2.9898,2.9181,2.857,2.8641,2.8346,2.769,2.7775,2.7974,2.825,2.8558,2.8904,2.9319,2.9782,0.0,3.0814,3.1317,3.2012,3.3301,3.4145,3.5302,3.7227,3.8133,3.8965,4.0024,4.1027,4.1796,4.2156,4.3539,4.4481,4.4578,4.4982,4.5125,4.4763,4.4197,4.2914,4.0753,3.996,3.8986,3.7587,3.6307,3.5293,3.4521,3.3471,3.2703,3.2287,3.1966,3.1682,3.1379,3.1219,3.0984,3.0702,3.0642,3.0582,3.0387,3.0266,3.0205,3.0144,3.005,3.0036,3.0129,3.0129,3.0312,3.0539,3.0658,3.0984,3.1188,3.0168,3.0096,3.0587,3.1616,3.3323,3.5111,3.6056,3.7745,3.9261,3.9191,3.906,3.8944,3.8845,3.8898,3.8958,3.8923,3.9133,3.9411,3.969,3.9945,4.0192,4.0364,4.0574,4.0761,4.0843,4.0983,4.1071,4.1025,4.1016,4.098,4.0907,4.0681,4.0342,3.9929,3.9041,3.8206,3.7507,3.6383,3.5468,3.4925,3.4125,3.3702,3.3711,3.2918,3.2501,3.2391,3.1784,3.1165,3.0514,3.0036,2.9482,2.7905,2.8039,2.8284,2.8477,2.8889,2.9335,2.9738,0.0,0.0,3.1157,3.1637,3.2213,3.3031,3.3993,3.5195,3.6869,3.7871,3.8866,4.0081,4.1224,4.2175,4.28,4.4075,4.5043,4.5444,4.5609,4.5549,4.5243,4.4751,4.3799,4.2286,4.0841,3.9625,3.8605,3.73,3.6141,3.5221,3.443,3.3534,3.2586,3.2342,3.2079,3.1739,3.1495,3.1336,3.1161,3.0999,3.0895,3.0821,3.0762,3.0702,3.0702,3.0657,3.0657,3.0702,3.0807,3.097,3.119,3.1495,3.1936,3.2281,3.2244,3.2346,3.266,3.3942,3.5395,3.6862,3.8014,3.9119,4.0025,4.0309,4.0218,4.0029,3.9898,3.9853,3.981,3.977,3.987,4.0005,4.0172,4.0358,4.0549,4.0642,4.08,4.094,4.0988,4.1069,4.1086,4.1003,4.0948,4.0876,4.0798,4.0629,4.0389,4.006,3.9425,3.8802,3.8358,3.7447,3.6692,3.6111,3.5382,3.4805,3.4597,3.3763,3.3224,3.2911,3.2302,3.164,3.097,3.0433,2.9884,2.8118,2.8266,2.8541,2.8748,2.9152,2.9665,3.0103,3.0493,3.0925,3.1428,3.1875,3.2335,3.2749,3.3768,3.5017,3.6482,3.7573,3.8721,4.0117,4.1268,4.2366,4.3374,4.4337,4.5219,4.6027,4.5866,4.558,4.5244,4.4682,4.4076,4.3424,4.1672,4.0358,3.9675,3.8432,3.722,3.6071,3.5408,3.4457,3.3365,3.2951,3.2573,3.2322,3.1856,3.161,3.161,3.1351,3.1264,3.1249,3.119,3.1132,3.119,3.1132,3.119,3.1249,3.1409,3.1552,3.1766,3.2247,3.2672,3.3161,3.3919,3.4071,3.4235,3.5474,3.6658,3.7805,3.8931,3.9757,4.0402,4.0711,4.0773,4.0721,4.0616,4.0494,4.04,4.04,4.0414,4.0463,4.0571,4.068,4.0779,4.082,4.0948,4.1049,4.1091,4.1086,4.1052,4.0988,4.0869,4.0746,4.0655,4.0549,4.0341,4.0017,3.9693,3.9305,3.8844,3.8364,3.7809,3.7188,3.6457,3.5793,3.5224,3.4366,3.3626,3.3049,3.2413,3.1739,3.1087,3.0613,3.0083,2.8363,2.8556,2.8794,2.8998,2.9366,2.977,3.0119,0.0,3.0965,3.1504,3.1929,3.2335,3.288,3.3382,0.0,0.0,0.0,3.8095,4.0018,4.1229,4.2303,4.3374,4.4328,4.5226,4.6013,4.5917,4.565,4.5323,4.4417,4.3557,4.2808,4.1955,4.1196,4.0525,3.9175,3.8219,3.758,3.6486,3.5646,3.5133,3.4194,3.3619,3.3352,3.2538,3.2079,3.194,3.1784,3.1742,3.1727,3.1409,3.1336,3.1437,3.1336,3.1452,3.1682,3.1868,3.2079,3.2398,3.2866,3.3346,3.3882,3.4529,3.483,3.5182,3.6336,3.7345,3.8321,3.9202,3.9908,4.0453,4.0721,4.0844,4.0876,4.0877,4.0818,4.0762,4.0762,4.0801,4.084,4.0867,4.0917,4.0976,4.0983,4.1049,4.1091,4.1107,4.1042,4.098,4.0917,4.0787,4.0642,4.0454,4.0427,4.027,3.9935,3.967,3.9253,3.8676,3.8198,3.7667,3.7129,3.6333,3.5688,3.5224,3.4464,3.3797,3.324,3.2687,3.2048,3.1422,3.0851,3.0312,2.8493,2.8668,2.8936,2.9167,2.9531,2.9989,3.0316,0.0,3.1157,3.1634,3.202,3.242,3.2943,3.3357,3.4128,0.0,0.0,3.783,3.9365,4.1393,4.2931,4.343,4.479,4.5795,4.6079,4.5919,4.5572,4.4973,4.4233,4.3508,4.279,4.2133,4.1463,4.0806,3.9932,3.9008,3.8058,3.7215,3.6371,3.549,3.4855,3.439,3.4202,3.3223,3.2745,3.2673,3.2163,3.194,3.1883,3.1754,3.1754,3.1811,3.1754,3.1868,3.2023,3.2191,3.2468,3.2866,3.3293,3.4172,3.5119,3.5766,3.6593,3.743,3.769,3.8349,3.925,4.0539,4.0915,4.1011,4.1319,4.1188,4.0972,4.1001,4.0994,4.0968,4.0935,4.0941,4.0959,4.1006,4.1033,4.1065,4.1064,4.1074,4.1094,4.1056,4.0984,4.0898,4.0787,4.0655,4.05,4.0304,4.0251,4.01,3.9807,3.9477,3.9064,3.8615,3.8083,3.7559,3.6995,3.6274,3.5661,3.5165,3.4399,3.3694,3.3118,3.2563,3.1951,3.1394,3.0866,3.0312,2.8636,2.8811,2.9013,2.9305,2.9665,3.0038,3.0162,0.0,3.09,3.1089,3.1568,3.2135,3.2665,3.3223,3.4137,0.0,3.672,3.7792,3.925,4.1451,4.3039,4.3444,4.4868,4.5897,4.6105,4.5878,4.5445,4.4776,4.4165,4.3523,4.2847,4.2239,4.1596,4.0918,4.037,3.9564,3.8529,3.7981,3.7189,3.6278,3.5644,3.5263,3.5031,3.4102,3.3606,3.3533,3.273,3.2342,3.2327,3.2072,3.2038,3.2038,3.2094,3.2206,3.2388,3.281,3.3216,3.364,3.4306,3.5261,3.6323,3.6899,3.7944,3.9038,3.9177,3.9536,4.0198,4.1418,4.1794,4.1781,4.1837,4.1604,4.1312,4.1149,4.1091,4.1097,4.1049,4.1038,4.1047,4.1087,4.1093,4.1093,4.1064,4.107,4.1033,4.0943,4.0869,4.0787,4.0655,4.0515,4.0375,4.0158,4.006,3.9876,3.9647,3.9272,3.8931,3.8541,3.7948,3.7413,3.6917,3.6249,3.5616,3.5024,3.43,3.3575,3.2926,3.2398,3.1796,3.1219,3.0747,3.0129,2.8747,2.8967,2.9167,2.9428,2.977,2.9923,2.9518,2.9733,2.9912,2.9575,3.0436,3.1359,3.1823,3.2842,3.4321,3.6547,3.7111,3.8,4.0017,4.1224,4.2323,4.3378,4.4348,4.5254,4.6128,4.577,4.5304,4.4825,4.4252,4.3572,4.2829,4.2239,4.1596,4.0918,4.037,3.9799,3.9189,3.8772,3.8343,3.7844,3.688,3.6216,3.5954,3.5062,3.462,3.4429,3.3548,3.3184,3.3138,3.2311,3.2094,3.2191,3.2342,3.2453,3.2726,3.392,3.4444,3.4755,3.6048,3.6814,3.7352,3.7818,3.8553,3.9517,4.0792,4.1053,4.1001,4.1633,4.2329,4.2742,4.215,4.2082,4.2,4.128,4.1091,4.1103,4.1107,4.109,4.109,4.1103,4.1097,4.1074,4.102,4.0991,4.0956,4.081,4.0754,4.0655,4.0519,4.0394,4.0234,4.0017,3.9807,3.9623,3.9401,3.9156,3.8785,3.8322,3.7792,3.7283,3.6816,3.6156,3.5498,3.4833,3.4234,3.3507,3.2788,3.2231,3.164,3.097,3.0493,2.9747,2.7891,2.829,2.8717,2.9435,2.9529,2.9428,2.9499,2.9386,2.9457,3.0177,3.0802,3.15,3.254,3.3205,3.411,3.5702,3.6708,3.7769,3.9144,4.1324,4.2969,4.345,4.4845,4.586,4.6049,4.5711,4.5323,4.4896,4.428,4.3572,4.2829,4.2239,4.1596,4.0918,4.037,3.9799,3.9206,3.8788,3.8359,3.786,3.7329,3.6983,3.6805,3.5804,3.5375,3.5285,3.4445,3.4079,3.4063,3.3805,3.3713,3.3771,3.3929,3.4027,3.4229,3.4857,3.5252,3.5648,3.6385,3.7451,3.855,3.9025,4.0008,4.1226,4.2009,4.1978,4.1893,4.266,4.324,4.3464,4.2903,4.2431,4.2081,4.1894,4.1434,4.1033,4.1031,4.1037,4.1037,4.1033,4.1033,4.1013,4.0932,4.0898,4.0807,4.068,4.0615,4.05,4.0321,4.0177,3.9998,3.9739,3.9551,3.9376,3.929,3.8942,3.8554,3.8138,3.7631,3.7108,3.6492,3.5941,3.5316,3.4626,3.3949,3.3314,3.2641,3.2064,3.1321,3.0372,2.987,2.9247,0.0,2.7595,2.8056,2.8693,2.8751,0.0,2.8688,2.88,2.9083,2.9696,3.0558,3.15,3.2455,3.3158,3.4119,3.5702,3.6704,3.7788,3.9203,4.1582,4.3531,4.4409,4.5501,4.6156,4.6005,4.5725,4.536,4.4943,4.429,4.3638,4.2922,4.2279,4.1578,4.0948,4.037,3.9867,3.9345,3.8898,3.8472,3.8107,3.7727,3.7492,3.7222,3.656,3.6209,3.6057,3.5257,3.4904,0.0,3.4568,3.4475,3.4534,3.4694,3.4852,3.5039,3.5735,3.6261,3.6713,3.7469,3.8488,3.9574,4.0112,4.113,4.2315,4.2826,4.2937,4.2982,4.367,4.4085,4.4227,4.3665,4.325,4.2831,4.2296,4.1796,4.1349,4.1032,4.096,4.0949,4.0935,4.0926,4.0907,4.0798,4.0723,4.0649,4.054,4.0419,4.0286,4.012,3.9958,3.9762,3.9526,3.9324,3.9137,3.8942,3.8676,3.8332,3.7915,3.7411,3.6856,3.6241,3.5722,3.5148,3.4448,3.3813,3.3171,3.2547,3.1709,3.0851,2.9993,2.9373,2.8881,0.0,2.6839,2.7185,2.7348,2.7672,2.7804,2.7387,0.0,0.0,2.8611,2.9948,3.1326,3.1803,3.2857,3.4358,3.6363,3.7075,3.8052,4.0005,4.2027,4.402,4.5949,4.6205,4.6144,4.6029,4.5751,4.5396,4.4943,4.4346,4.3717,4.3051,4.232,4.1622,4.1024,4.0402,3.9935,3.9501,3.9023,3.8655,3.8408,3.8049,3.7743,3.7417,3.7238,3.7013,3.6693,3.6057,3.5718,3.5507,3.4876,3.4614,3.4673,3.4934,3.5164,3.5398,3.6533,3.7293,3.7829,3.899,3.9799,4.0436,4.1071,4.1906,4.2826,4.3321,4.3763,4.417,4.4496,4.4821,4.4957,4.4423,4.4331,4.4023,4.2601,4.2266,4.2044,4.117,4.0975,4.0936,4.08,4.0787,4.0742,4.0623,4.054,4.0469,4.0377,4.0215,4.0021,3.9873,3.9762,3.9575,3.9298,3.9137,3.8913,3.851,3.8415,3.8186,3.7703,3.7188,3.662,3.6097,3.5532,3.4947,3.425,3.3694,3.3011,3.2272,3.1131,3.0312,2.9747,2.9107,2.861,2.4885,0.0,2.6621,2.7387,2.7364,2.735,0.0,0.0,0.0,0.0,0.0,3.1502,3.2536,3.3659,3.4914,3.6396,3.7424,3.8773,4.0764,4.2911,4.4722,4.5974,4.6175,4.6163,4.6085,4.579,4.5447,4.5077,4.4474,4.3849,4.3141,4.2382,4.1692,4.1024,4.0402,3.9935,3.9501,3.9023,3.8655,3.8408,3.8049,3.7817,3.7626,3.7314,3.7089,3.6923,3.6614,3.6369,3.6245,3.6076,3.6014,3.6076,3.6395,3.662,3.6782,3.7441,3.802,3.8575,3.9209,3.9885,4.0676,4.1683,4.2414,4.2902,4.325,4.3646,4.4079,4.444,4.4738,4.4934,4.4972,4.4652,4.4251,4.3936,4.3427,4.2814,4.1943,4.1686,4.1448,4.0771,4.0602,4.053,4.0457,4.0356,4.0251,4.0177,3.9998,3.9807,3.9623,3.9477,3.9298,3.9017,3.8844,3.8585,3.8234,3.8153,3.788,3.7429,3.6873,3.6326,3.5749,3.5148,3.4546,3.3848,3.285,3.2023,3.1306,3.0598,2.9931,2.9435,2.8881,2.8365,2.4241,2.4951,2.571,2.6375,2.6685,2.7027,2.7781,0.0,0.0,0.0,0.0,3.1983,3.3176,3.4073,3.5155,3.6777,3.8059,3.9758,4.2336,4.3751,4.4944,4.5974,4.6163,4.6161,4.6111,4.5852,4.5526,4.5144,4.4587,4.3937,4.3231,4.2501,4.1778,4.1117,4.0566,4.0087,3.959,3.9077,3.875,3.86,3.8091,3.7876,3.7759,3.7373,3.715,3.7015,3.68,3.66,3.6492,3.6492,3.6492,3.6554,3.6877,3.7105,3.7254,3.7743,3.8246,3.8788,3.9312,4.017,4.1209,4.2019,4.2552,4.29,4.3196,4.3545,4.3923,4.4258,4.4587,4.4846,4.5065,4.4917,4.467,4.4338,4.3997,4.352,4.2652,4.241,4.2229,4.1755,4.1577,4.1492,4.1418,4.1282,4.1117,4.1044,4.0858,4.0621,4.0392,3.9937,3.9515,3.9265,3.8697,3.8201,3.7915,3.7632,3.7376,3.7087,3.6591,3.6045,3.5487,3.4913,3.4184,3.3298,3.2413,3.1682,3.1029,3.0358,2.9808,2.9198,2.8638,2.8118,2.3967,2.4482,2.4838,2.5305,2.6121,2.6918,2.747,0.0,0.0,0.0,0.0,0.0,3.3701,3.4415,3.5436,3.7261,3.8891,4.0946,4.3846,4.4504,4.5021,4.5963,4.6152,4.6172,4.6105,4.593,4.5617,4.5187,4.4656,4.4069,4.3389,4.2657,4.1948,4.13,4.0758,4.0221,3.9729,3.9131,3.8805,3.8805,3.8205,3.7876,3.786,3.7433,3.715,3.7015,3.68,3.66,3.6492,3.6492,3.6492,3.6554,3.6877,3.7105,3.7254,3.7743,3.8189,3.8733,3.9454,4.0514,4.1648,4.2079,4.249,4.2804,4.3178,4.3461,4.3744,4.406,4.4402,4.4712,4.4919,4.5109,4.509,4.4422,4.4345,4.4207,4.3325,4.3097,4.3004,4.2871,4.2737,4.2614,4.2544,4.2366,4.2172,4.2044,4.1847,4.1619,4.136,4.0596,3.9983,3.9719,3.8721,3.7989,3.7718,3.7143,3.6759,3.6615,3.6224,3.5722,3.5088,3.4529,3.3748,3.2695,3.212,3.1509,3.0837,3.0251,2.9637,2.9035,2.83,2.7776,2.38,2.4276,2.4801,2.5814,2.6358,2.7062,2.8606,0.0,0.0,0.0,0.0,0.0,0.0,3.5216,3.6602,3.7308,3.993,4.2379,4.3846,4.4889,4.5634,4.5988,4.6111,4.6169,4.6108,4.592,4.5678,4.5379,4.4858,4.428,4.3675,4.2904,4.218,4.1542,4.0853,4.0288,3.9901,3.9239,3.8914,3.8805,3.8205,3.7876,3.786,3.7433,3.715,3.7015,3.68,3.66,3.6492,3.6492,3.6492,3.6554,3.6877,3.7105,3.7254,3.7743,3.8262,3.8898,4.0003,4.0741,4.1346,4.1788,4.2269,4.2688,4.3049,4.3322,4.3582,4.3865,4.4237,4.4578,4.4789,4.4943,4.5045,4.5042,4.5086,4.4898,4.4038,4.3746,4.3474,4.2785,4.2458,4.227,4.2172,4.201,4.1801,4.1622,4.1464,4.1298,4.0991,4.0714,4.0399,4.013,3.9153,3.8368,3.8056,3.7039,3.6199,3.5827,3.5605,3.5038,3.4,3.3387,3.2765,3.215,3.1495,3.0851,3.0251,2.9685,2.9198,2.8651,2.8118,2.7577,2.3119,2.4124,2.5168,2.6288,2.6837,2.7494,2.8862,0.0,0.0,0.0,0.0,0.0,0.0,3.5847,3.7238,3.9252,4.138,4.3207,4.4367,4.515,4.5684,4.5914,4.6057,4.615,4.6158,4.5994,4.5782,4.5486,4.4957,4.4382,4.3804,4.3032,4.2297,4.1604,4.1012,4.0436,3.9901,3.9398,3.9007,3.8805,3.8205,3.7876,3.7876,3.7329,3.7044,3.6999,3.6739,3.6554,3.6492,3.6492,3.6492,3.6492,3.6739,3.6923,3.715,3.7918,3.8583,3.9276,4.0121,4.0758,4.13,4.1744,4.2187,4.2552,4.288,4.316,4.3426,4.3615,4.3974,4.4335,4.4578,4.4738,4.4846,4.4943,4.5033,4.4966,4.4566,4.4379,4.417,4.3761,4.3465,4.3231,4.3137,4.2962,4.2749,4.2507,4.2393,4.2189,4.1869,4.1268,4.0771,4.0535,3.9446,3.8643,3.833,3.7583,3.6559,3.5308,3.4913,3.4382,3.3591,3.3033,3.2607,3.2497,3.1857,3.1372,3.1068,3.0429,2.9868,2.9215,2.8576,2.7952,2.2724,2.4104,2.5459,2.6561,2.7291,2.8082,2.9277,0.0,0.0,0.0,0.0,0.0,0.0,3.6577,3.8138,4.1101,4.2472,4.357,4.4801,4.5264,4.5558,4.5835,4.6007,4.6138,4.6191,4.6084,4.588,4.558,4.5048,4.4504,4.3943,4.3212,4.2458,4.1719,4.118,4.0631,3.9935,3.9504,3.9115,3.8805,3.8205,3.7876,3.7876,3.7301,3.7015,3.6999,3.6631,3.6492,3.6492,3.6492,3.6492,3.6492,3.6662,3.6923,3.7241,3.8107,3.875,3.9382,3.9986,4.0566,4.1117,4.1552,4.2002,4.2333,4.2691,4.2976,4.325,4.3375,4.3697,4.4017,4.4335,4.4477,4.4613,4.4712,4.477,4.4796,4.4777,4.4674,4.456,4.4496,4.4258,4.4011,4.3841,4.3697,4.3477,4.3196,4.3069,4.29,4.2472,4.1752,4.1174,4.0923,3.9792,3.8812,3.8196,3.7708,3.677,3.5153,3.4491,3.4066,3.382,3.3248,3.292,3.2915,3.2284,3.185,3.1664,3.1015,3.0282,2.9531,2.8866,2.8145,2.305,2.4307,2.5431,2.6373,2.7454,0.0,3.0542,3.1199,0.0,3.2899,0.0,0.0,0.0,3.7504,3.9779,4.1827,4.2637,4.3473,4.4713,4.5135,4.5437,4.5766,4.5979,4.6123,4.6184,4.6128,4.5988,4.5717,4.5247,4.4724,4.4202,4.3471,4.2736,4.1973,4.1311,4.0693,4.007,3.9694,3.9255,3.8805,3.8205,3.7876,3.7876,3.7301,3.7015,3.6999,3.6631,3.6492,3.6492,3.6492,3.6492,3.6492,3.6662,3.7089,3.77,3.8221,3.8655,3.9131,3.9729,4.0188,4.0614,4.1117,4.1552,4.2002,4.2338,4.2673,4.2957,4.316,4.3375,4.3649,4.4048,4.4181,4.4269,4.4468,4.4542,4.4477,4.4365,4.4279,4.421,4.4048,4.3892,4.3646,4.3408,4.3286,4.3087,4.2709,4.2649,4.2472,4.2002,4.1839,4.1604,4.1213,4.0153,3.8806,3.7236,3.673,3.6226,3.5505,3.4861,3.4596,3.4779,3.4143,3.3502,3.2933,3.2254,3.1636,3.0962,3.0392,2.9714,2.8964,2.852,2.7925,2.2535,2.4191,2.5742,2.6421,0.0,0.0,0.0,3.1851,3.2982,3.3684,3.5135,0.0,0.0,3.945,4.0944,4.1935,4.2867,4.3729,4.4493,4.4891,4.5264,4.5645,4.5852,4.6018,4.6136,4.6117,4.6013,4.5789,4.5376,4.4867,4.429,4.3568,4.2848,4.2157,4.149,4.0884,4.037,3.9884,3.9415,3.8914,3.8286,3.796,3.7876,3.7301,3.7015,3.6999,3.6631,3.6492,3.6492,3.6492,3.6492,3.6554,3.68,3.7089,3.7449,3.8017,3.8455,3.8969,3.9573,4.007,4.0583,4.1071,4.148,4.1892,4.2228,4.2512,4.2765,4.2918,4.3031,4.325,4.3712,4.3923,4.4036,4.4158,4.4188,4.4158,4.4079,4.3968,4.3823,4.3612,4.3461,4.3286,4.292,4.2862,4.267,4.221,4.2169,4.2002,4.1525,4.1391,4.1163,4.0789,3.9883,3.8937,3.8056,3.7074,3.651,3.6537,3.5414,3.4628,3.4445,3.3834,3.3401,3.3194,3.2525,3.2038,3.1817,3.1164,3.0453,2.9802,2.9126,2.8338,2.2656,2.4418,2.597,0.0,0.0,0.0,3.0909,3.2299,3.3736,3.4588,3.6197,3.792,3.9498,4.0557,4.1477,4.2087,4.3057,4.3868,4.4289,4.4695,4.5115,4.5493,4.5736,4.592,4.6059,4.6093,4.6027,4.5841,4.5475,4.5023,4.4463,4.3762,4.3032,4.232,4.1666,4.1071,4.0534,4.0037,3.952,3.8969,3.8455,3.8075,3.7876,3.7301,3.7015,3.6999,3.6631,3.6492,3.6492,3.6492,3.6492,3.6554,3.6816,3.7029,3.7238,3.777,3.8246,3.875,3.9292,3.9816,4.032,4.0836,4.1226,4.1587,4.1977,4.2228,4.2391,4.253,4.267,4.2826,4.3195,4.3477,4.3734,4.3814,4.3846,4.3814,4.3682,4.3615,4.3461,4.3124,4.3032,4.2862,4.2472,4.2391,4.2228,4.1744,4.1701,4.1525,4.1024,4.0884,4.0645,4.0154,3.9418,3.8827,3.8359,3.738,3.6853,3.6906,3.5749,3.494,3.4607,3.3973,3.3542,3.348,3.272,3.2289,3.2128,3.1408,3.0659,2.9973,2.9197,2.8327,2.3671,2.5014,2.6076,0.0,0.0,0.0,3.1501,3.2434,3.3729,3.5613,3.7188,3.8591,3.9867,4.0539,4.1306,4.249,4.3213,4.3744,4.4132,4.4602,4.5019,4.5361,4.5638,4.5856,4.5986,4.6063,4.6033,4.5916,4.5592,4.5208,4.4726,4.4065,4.3334,4.2523,4.1941,4.1226,4.0534,4.0087,3.9625,3.9023,3.86,3.8221,3.7876,3.7301,3.7015,3.6999,3.6631,3.6492,3.6492,3.6492,3.6492,3.6492,3.6662,3.6892,3.7254,3.7567,3.7992,3.8448,3.8876,3.9292,3.9764,4.032,4.071,4.1071,4.1453,4.1719,4.1917,4.2061,4.2251,4.2378,4.2378,4.2806,4.3232,4.3444,4.3479,4.3463,4.3251,4.3196,4.3087,4.2688,4.2609,4.2432,4.1959,4.1874,4.1744,4.1237,4.1192,4.1024,4.0566,4.0485,4.0154,3.9259,3.8843,3.8359,3.7759,3.7373,3.6876,3.6258,3.5672,3.54,3.54,3.4758,3.4167,3.3632,3.2775,3.2128,3.1556,3.081,2.9908,2.9052,2.8498,2.7696,2.3671,2.4982,0.0,2.759,0.0,0.0,0.0,3.3078,0.0,0.0,3.8091,3.9345,4.0631,4.1262,4.1801,4.2516,4.3032,4.3461,4.3836,4.4289,4.472,4.5159,4.547,4.5744,4.5987,4.6062,4.6083,4.6049,4.5732,4.5339,4.4862,4.4243,4.3605,4.2847,4.2157,4.1507,4.0836,4.032,3.9764,3.9169,3.875,3.8319,3.7876,3.7301,3.7015,3.6999,3.6631,3.6414,3.6274,3.6163,3.6226,3.6274,3.6476,3.6662,3.6892,3.7314,3.7685,3.7992,3.8528,3.9007,3.9418,3.9885,4.0303,4.071,4.096,4.1192,4.1436,4.1569,4.1701,4.1831,4.1881,4.205,4.2257,4.2729,4.2862,4.2806,4.2673,4.2634,4.2516,4.2169,4.2103,4.1959,4.148,4.1436,4.1255,4.0806,4.071,4.0451,3.9782,3.9487,3.9098,3.8495,3.8042,3.7578,3.7163,3.6631,3.6133,3.5672,3.5073,3.4691,3.4691,3.4153,3.3479,3.2775,3.2128,3.1556,3.0986,3.0126,2.9341,2.8633,2.7834,2.7021,2.3873,2.5129,0.0,2.8137,2.9682,3.1193,3.2644,0.0,0.0,0.0,3.8503,3.9808,4.075,4.13,4.1788,4.2269,4.2691,4.316,4.3575,4.4035,4.4511,4.4957,4.5323,4.563,4.5878,4.6033,4.6094,4.6092,4.5839,4.5456,4.5001,4.4417,4.3762,4.3069,4.2302,4.1622,4.1024,4.0402,3.9799,3.9206,3.8788,3.8359,3.7876,3.7345,3.706,3.6954,3.6554,3.6274,3.6211,3.6037,3.6037,3.6148,3.6226,3.6414,3.6662,3.6952,3.7254,3.7567,3.8075,3.8511,3.892,3.9348,3.9799,4.0221,4.0417,4.0676,4.0884,4.0943,4.1053,4.1146,4.1157,4.1185,4.1383,4.2151,4.2333,4.2292,4.2133,4.211,4.1984,4.1701,4.1552,4.1373,4.0977,4.0819,4.0611,4.0221,3.9952,3.9627,3.9044,3.8678,3.8286,3.7812,3.7342,3.6982,3.6554,3.6006,3.5494,3.5008,3.4356,3.3811,3.352,3.3255,3.2775,3.2128,3.1556,3.0898,3.0279,2.9419,2.87,2.7983,2.7092,2.6185,2.4294,2.5379,0.0,2.8591,3.0037,0.0,3.3288,3.5169,3.6645,3.7002,3.8539,3.9919,4.0419,4.0884,4.1346,4.1788,4.2315,4.2808,4.3301,4.3836,4.4336,4.4802,4.5182,4.5503,4.5764,4.5966,4.6085,4.6095,4.5916,4.5612,4.5148,4.4556,4.3899,4.3194,4.2444,4.1735,4.1024,4.0419,3.9799,3.9206,3.8788,3.8359,3.7918,3.7433,3.715,3.6938,3.6414,3.6211,3.6148,3.6037,3.5973,3.5973,3.5973,3.6163,3.6429,3.6492,3.6708,3.7134,3.7508,3.7902,3.827,3.8756,3.9222,3.9661,3.9817,4.0037,4.0238,4.0269,4.0302,4.0302,4.0302,4.0302,4.0528,4.1455,4.1753,4.1753,4.1604,4.1552,4.1408,4.1163,4.0913,4.0676,4.0468,4.0137,3.9868,3.9609,3.9077,3.8567,3.8214,3.7927,3.7594,3.7134,3.6799,3.6368,3.5894,3.5365,3.4824,3.4303,3.3604,3.2846,3.2055,3.22,3.2055,3.1482,3.0911,3.0279,2.9626,2.8767,2.7903,2.7103,2.6185,2.5263,2.4294,2.5298,0.0,0.0,3.0459,3.2163,3.3399,3.4626,3.5766,3.6734,3.7969,3.9177,4.0186,4.071,4.1163,4.1604,4.2026,4.248,4.3014,4.3508,4.4023,4.4519,4.4966,4.538,4.5684,4.5891,4.605,4.6091,4.5962,4.5723,4.5358,4.4843,4.4261,4.359,4.2811,4.2056,4.1346,4.0614,3.9986,3.9432,3.8969,3.8511,3.8059,3.7594,3.7134,3.6723,3.6289,3.6037,3.6037,3.5748,3.5668,3.5752,3.5752,3.5894,3.61,3.6211,3.6336,3.6507,3.6921,3.7282,3.7637,3.8042,3.8511,3.9023,3.9061,3.9329,3.9592,3.9627,3.9714,3.9749,3.9749,3.9749,3.9851,4.0019,4.0431,4.0737,4.0802,4.0754,4.0628,4.0517,4.0336,4.012,3.9918,3.9575,3.9189,3.8662,3.8157,3.7754,3.7476,3.7042,3.6616,3.6274,3.5816,3.535,3.4942,3.4423,3.3894,3.3325,3.269,3.1982,3.1158,3.1381,3.1246,3.0659,3.0037,2.9419,2.8779,2.7903,2.701,2.6185,2.5263,2.4413,2.3728,0.0,0.0,2.8987,0.0,3.2233,3.3292,3.3982,3.481,3.5885,3.7068,3.8104,3.8922,3.9392,3.9824,4.028,4.1036,4.1743,4.2247,4.3028,4.3772,4.427,4.4776,4.5204,4.5568,4.5809,4.5994,4.6092,4.6006,4.5809,4.5459,4.496,4.4409,4.3772,4.2923,4.218,4.1498,4.071,4.0037,3.959,3.9023,3.8472,3.7902,3.7433,3.6968,3.66,3.6163,3.5925,3.5733,3.5489,3.5344,3.5314,3.5314,3.5444,3.5604,3.5718,3.5831,3.6006,3.6368,3.6754,3.7118,3.7326,3.7828,3.8303,3.8343,3.8551,3.8772,3.8898,3.8952,3.9007,3.9007,3.9007,3.9044,3.9098,3.9594,4.0053,4.012,4.002,3.9868,3.9799,3.9575,3.9348,3.9169,3.8772,3.8238,3.7722,3.7266,3.6921,3.6507,3.6165,3.5721,3.5299,3.489,3.4476,3.4002,3.3465,3.2903,3.2461,3.1809,3.1071,3.0317,3.0088,2.9858,2.9664,2.9094,2.845,2.7742,2.6928,2.6102,2.5168,2.4231,2.3464,2.3137,0.0,2.6426,2.9429,3.0928,0.0,3.2909,3.3407,3.3973,3.4826,3.6022,3.7004,3.7517,3.7885,3.8271,3.8772,3.9771,4.0677,4.1227,4.2232,4.3085,4.3644,4.4244,4.4782,4.5187,4.5602,4.5932,4.6072,4.6035,4.588,4.5553,4.505,4.4478,4.3862,4.3014,4.2262,4.1631,4.0758,4.0138,3.9729,3.9023,3.8375,3.77,3.7241,3.6816,3.6492,3.61,3.5797,3.5504,3.5228,3.5016,3.4868,3.4802,3.4935,3.5082,3.5082,3.5264,3.5559,3.5767,3.6148,3.6585,3.6677,3.7118,3.7567,3.7711,3.787,3.8001,3.8205,3.8221,3.8221,3.8221,3.8221,3.8262,3.8359,3.881,3.9279,3.9401,3.9312,3.9152,3.9044,3.8772,3.8511,3.8343,3.7812,3.7207,3.6784,3.6415,3.5991,3.5544,3.5204,3.4861,3.4288,3.3948,3.3589,3.3044,3.2475,3.1969,3.1502,3.0833,3.0075,2.9471,2.8688,2.8303,2.8303,2.7983,2.7406,2.6682,2.6019,2.5179,2.4231,2.3367,2.2589,0.0,0.0,2.704,0.0,3.018,3.1221,0.0,3.3073,3.3829,3.4163,3.5151,3.6191,3.7053,3.7614,3.8027,3.8271,3.8841,3.9445,3.9979,4.0545,4.1097,4.1619,4.2772,4.3677,4.4076,4.5098,4.58,4.5995,4.6054,4.5974,4.5698,4.5266,4.4706,4.4016,4.3245,4.2447,4.1709,4.0943,4.0303,3.9849,3.8931,3.8164,3.77,3.7241,3.6816,3.6492,3.5958,3.5653,3.5439,3.4964,3.4765,3.4698,3.4549,3.4481,3.4481,3.4481,3.4616,3.4817,3.5001,3.5365,3.5879,3.6085,3.6492,3.7027,3.7027,3.7266,3.7476,3.7535,3.7535,3.7535,3.7535,3.7535,3.7535,3.7535,3.7637,3.7854,3.8551,3.8639,3.8488,3.827,3.787,3.7519,3.7207,3.6784,3.643,3.5928,3.5544,3.5154,3.4624,3.4056,3.3644,3.3479,3.2761,3.2259,3.2015,3.1442,3.0859,3.0254,2.9793,2.9172,2.8371,2.7742,2.701,2.6268,2.6599,2.6351,2.5695,2.5009,2.4231,2.327,2.2599,2.1811,2.3276,2.4988,2.6459,0.0,2.9269,3.0344,3.169,3.2487,3.3077,3.3716,3.4394,3.5054,3.5728,3.6212,3.6586,3.6904,3.775,3.8513,3.9,3.9856,4.0615,4.1066,4.194,4.2674,4.3071,4.3792,4.4529,4.5215,4.5329,4.5493,4.5805,4.5357,4.4801,4.4186,4.3416,4.2659,4.1864,4.1111,4.0286,3.9415,3.8583,3.796,3.7492,3.7029,3.6662,3.6289,3.5879,3.5444,3.503,3.4549,3.4278,3.4088,3.3854,3.377,3.377,3.377,3.3977,3.4196,3.4249,3.4706,3.5249,3.5314,3.5752,3.6243,3.6368,3.6569,3.6754,3.6892,3.6892,3.6892,3.6892,3.6892,3.6892,3.6754,3.6754,3.6799,3.7011,3.7401,3.7669,3.7358,3.6997,3.6693,3.6445,3.5991,3.5608,3.5139,3.461,3.407,3.3673,3.3101,3.2533,3.2173,3.1676,3.122,3.0683,3.0317,2.9793,2.9172,2.8621,2.8063,2.7418,2.6682,2.5852,2.5084,2.5421,2.5179,2.4519,2.3897,2.3096,2.2306,2.1615,2.0907,0.0,0.0,2.5657,2.727,2.8415,2.9512,3.0974,3.1793,3.251,3.3275,3.377,3.425,3.4691,3.5071,3.5424,3.5844,3.6724,3.7568,3.8047,3.9026,3.9876,4.0284,4.0993,4.1649,4.2063,4.2656,4.3415,4.4287,4.4421,4.4797,4.553,4.5098,4.4665,4.4317,4.355,4.2774,4.2015,4.1065,4.0037,3.8914,3.8343,3.7754,3.7282,3.6769,3.6336,3.5943,3.5623,3.5118,3.4481,3.3991,3.3646,3.3241,3.3002,3.2903,3.2832,3.2903,3.3129,3.3479,3.3479,3.4031,3.4654,3.4668,3.5052,3.5494,3.5718,3.5894,3.6006,3.6148,3.6211,3.6211,3.6211,3.6211,3.6148,3.6006,3.5943,3.5943,3.5913,3.6352,3.6754,3.6445,3.607,3.5816,3.5638,3.5154,3.461,3.4259,3.3575,3.303,3.2618,3.2042,3.1455,3.0846,3.0469,3.0012,2.9471,2.9081,2.8621,2.8143,2.7499,2.6846,2.6423,2.56,2.484,2.4059,2.4049,2.38,2.3396,2.2765,2.205,2.1248,2.0628,1.9911,0.0,2.4231,0.0,2.6479,2.7649,2.8693,2.9666,3.1152,3.2384,3.2702,3.3482,3.4201,3.4448,3.4851,3.5228,3.5577,3.6036,3.652,3.7001,3.7518,3.7971,3.8383,3.9589,4.0531,4.0944,4.2144,4.3042,4.3354,4.3494,4.3883,4.4622,4.4283,4.4126,4.4298,4.3582,4.2811,4.2015,4.0659,3.9556,3.8805,3.823,3.7578,3.6906,3.643,3.5879,3.5234,3.5052,3.4654,3.4059,3.3339,3.2846,3.2417,3.2055,3.175,3.1589,3.1836,3.2128,3.2489,3.2704,3.3269,3.3908,3.4059,3.452,3.5001,3.5213,3.5314,3.5464,3.5464,3.5464,3.5464,3.5464,3.5464,3.54,3.5285,3.5234,3.535,3.5785,3.5864,3.5737,3.5529,3.5169,3.4854,3.4572,3.4002,3.3437,3.3115,3.2547,3.1969,3.1368,3.0771,3.0241,2.9858,2.9081,2.8621,2.8542,2.7822,2.7185,2.701,2.6351,2.5684,2.4914,2.4498,2.381,2.2931,2.2227,2.1961,2.2236,2.1713,2.0988,1.9985,1.9729,1.9088,0.0,0.0,0.0,2.586,2.6821,2.79,2.9463,3.025,3.0935,3.1821,3.2641,3.3322,3.3696,3.4521,3.5228,3.5532,3.5975,3.636,3.6811,3.7261,3.7685,3.8119,3.8866,3.9528,4.0013,4.0728,4.1524,4.2408,4.2593,4.3001,4.38,4.3477,4.3407,4.3648,4.2965,4.2211,4.1366,4.0252,3.9418,3.8805,3.7985,3.7282,3.6723,3.6039,3.535,3.4639,3.3948,3.3618,3.3548,3.2775,3.2114,3.1589,3.122,3.0921,3.0758,3.0921,3.122,3.1455,3.1836,3.2417,3.2988,3.3269,3.3825,3.4399,3.4616,3.4868,3.5103,3.5103,3.5052,3.4935,3.4935,3.4854,3.4654,3.437,3.4167,3.4016,3.4192,3.4476,3.4677,3.461,3.4221,3.3825,3.3673,3.3115,3.2461,3.2101,3.1442,3.0771,3.0317,2.9626,2.8991,2.8518,2.7971,2.7499,2.708,2.6599,2.6102,2.5589,2.5084,2.4488,2.3704,2.3193,2.2492,2.1872,2.097,2.0709,2.1168,2.0546,1.9812,1.8888,1.8719,1.8079,2.23,0.0,0.0,0.0,2.5863,2.6826,2.8668,2.931,2.9815,3.1007,3.1806,3.2482,3.2961,3.3945,3.4881,3.5498,3.5975,3.6377,3.6748,3.7147,3.7577,3.8,3.8473,3.8933,3.9477,3.9901,4.0507,4.1466,4.1682,4.2109,4.2922,4.2679,4.2508,4.2546,4.188,4.1079,4.0164,3.9242,3.846,3.7851,3.716,3.6518,3.603,3.5359,3.4677,3.3879,3.296,3.2676,3.2761,3.1896,3.1071,3.0469,3.0075,2.9691,2.9537,2.9768,3.0088,3.0393,3.0872,3.1455,3.2042,3.2561,3.3199,3.377,3.4074,3.4346,3.4534,3.4534,3.4481,3.4428,3.4361,3.4142,3.3839,3.3479,3.3199,3.2988,3.2846,3.3255,3.3659,3.352,3.3185,3.2832,3.2547,3.1969,3.1368,3.0983,3.0228,2.9537,2.9147,2.845,2.773,2.7232,2.6753,2.6268,2.5684,2.5348,2.4925,2.4307,2.381,2.329,2.258,2.1961,2.1248,2.0619,1.9803,1.9338,1.9338,1.9171,1.8627,1.7785,1.7707,1.7052,0.0,0.0,0.0,2.4328,2.4776,2.5452,2.7239,2.8217,2.9108,3.0289,3.107,3.1758,3.2259,3.3139,3.4172,3.5363,3.5985,3.6426,3.6731,3.7164,3.7559,3.7949,3.8332,3.8826,3.935,3.9769,4.0155,4.0572,4.0789,4.1242,4.2013,4.1823,4.1492,4.107,4.0366,3.9509,3.8508,3.7627,3.6799,3.5991,3.5692,3.5262,3.463,3.4435,3.3782,3.2889,3.2087,3.1723,3.1649,3.0607,2.9781,2.9003,2.8609,2.8131,2.781,2.8291,2.8688,2.916,2.9716,3.0482,3.1233,3.1909,3.2489,3.3058,3.3452,3.3744,3.3882,3.3882,3.3896,3.3827,3.3605,3.3297,3.2917,3.2704,3.2489,3.2273,3.1836,3.2331,3.2846,3.2417,3.22,3.1763,3.1009,3.0558,3.0088,2.9704,2.8924,2.8291,2.7799,2.7244,2.6599,2.5935,2.5443,2.4935,2.4498,2.4003,2.356,2.3096,2.2599,2.2078,2.1356,2.0817,2.0093,1.9188,1.8619,1.787,1.6842,1.7699,1.752,1.6581,1.6487,1.6008,2.22,0.0,0.0,0.0,0.0,0.0,2.653,2.7455,2.8199,2.8917,3.003,3.105,3.1491,3.238,3.3406,3.4587,3.5617,3.6335,3.6684,3.7066,3.7429,3.7739,3.8234,3.8707,3.9137,3.959,4.0024,4.0438,4.0692,4.0955,4.1219,4.1235,4.0965,4.0318,4.0129,3.9451,3.8356,3.7465,3.6525,3.557,3.4818,3.3939,3.3098,3.2811,3.2055,3.1021,3.0488,2.9731,2.8929,2.9098,2.8652,2.7867,2.7476,2.7069,2.6928,2.7418,2.7742,2.8063,2.887,2.9561,3.0241,3.1009,3.175,3.2417,3.286,3.3213,3.3493,3.3493,3.3353,3.3143,3.2789,3.2588,3.23,3.1996,3.1776,3.1468,3.0996,3.1009,3.1172,3.1307,3.0934,3.0406,2.9922,2.9381,2.8767,2.8187,2.7487,2.6928,2.6505,2.5673,2.4999,2.4669,2.4059,2.3551,2.3309,2.2862,2.2413,2.1882,2.1347,2.0817,2.0093,1.9446,1.8703,1.8156,1.7419,1.6662,1.5812,1.6473,1.6285,1.5534,1.4758,1.4184,2.2132,2.2632,2.3111,2.3837,0.0,0.0,2.5808,2.6492,2.7165,2.8204,2.9118,2.9971,3.0691,3.1622,3.254,3.3448,3.4541,3.5594,3.6574,3.7044,3.741,3.7667,3.8119,3.8603,3.9073,3.9513,3.9924,4.0326,4.0626,4.0794,4.0812,4.0728,4.0359,3.9658,3.9286,3.8561,3.7421,3.6413,3.5354,3.4298,3.348,3.2503,3.1511,3.1128,3.0414,2.942,2.8795,2.7882,2.6871,2.6767,2.6603,2.6318,2.5891,2.5568,2.5411,2.5924,2.634,2.6753,2.7649,2.853,2.9316,3.0165,3.0934,3.1676,3.22,3.2632,3.2917,3.3058,3.2846,3.2574,3.2286,3.2009,3.1716,3.1421,3.1123,3.081,3.0241,2.996,2.9973,3.019,2.9871,2.9328,2.8676,2.8051,2.7406,2.673,2.608,2.5505,2.4904,2.4307,2.3714,2.3193,2.2746,2.2315,2.1891,2.1535,2.1177,2.0727,2.0175,1.9629,1.9004,1.8156,1.7498,1.6943,1.6292,1.5439,1.4286,1.514,1.514,1.428,1.342,1.2937,2.0904,2.1853,2.2799,2.3172,2.3523,0.0,2.5032,2.5459,2.613,2.7735,2.8243,2.8732,2.9858,3.0797,3.1574,3.2198,3.318,3.4518,3.6296,3.6904,3.7303,3.7667,3.8036,3.8496,3.9017,3.9452,3.9838,4.0243,4.0591,4.0779,4.071,4.0318,3.981,3.9133,3.8264,3.729,3.618,3.4968,3.3836,3.268,3.1857,3.0902,2.9868,2.9482,2.8767,2.7794,2.7018,2.6152,2.5147,2.4211,2.4135,2.4488,2.4049,2.379,2.3617,2.4145,2.4734,2.54,2.6318,2.7395,2.845,2.9303,3.0088,3.0859,3.1468,3.1982,3.2345,3.2489,3.2372,3.2036,3.1817,3.1508,3.1123,3.0911,3.052,3.005,2.9419,2.9118,2.8961,2.9094,2.8791,2.8303,2.7429,2.6682,2.6008,2.5316,2.4648,2.3973,2.326,2.2921,2.2482,2.1606,2.1427,2.1159,2.0546,2.0192,1.992,1.9463,1.8888,1.8427,1.7994,1.7131,1.6379,1.5635,1.5057,1.3998,1.2559,1.38,1.389,1.2834,1.2462,1.2078,1.3553,1.7999,2.2692,2.2904,2.329,0.0,2.4192,2.4933,2.5722,2.6299,2.7073,2.7949,2.9023,2.9617,3.0425,3.2046,3.2713,3.3662,3.5479,3.606,3.6627,3.7505,3.802,3.8451,3.8803,3.9272,3.9683,4.0024,4.0578,4.0859,4.0774,4.0389,3.9871,3.9214,3.8272,3.7235,3.6079,3.4858,3.3515,3.2059,3.0747,2.9331,2.7948,2.7405,2.659,2.5552,2.5051,2.4263,2.3163,2.2208,2.2385,2.3086,2.2561,2.2385,2.2385,2.2911,2.3521,2.4307,2.54,2.64,2.7302,2.8371,2.9316,3.0088,3.0748,3.1198,3.1569,3.173,3.1656,3.1421,3.1211,3.0898,3.0444,3.0088,2.9689,2.9209,2.8736,2.8315,2.7891,2.7162,2.7151,2.6823,2.5852,2.5084,2.4296,2.3424,2.2814,2.2296,2.1774,2.1159,2.0826,2.0555,2.0002,1.9637,1.9463,1.9088,1.8627,1.845,1.7684,1.7131,1.6864,1.6001,1.5146,1.4586,1.3232,1.236,1.178,1.2268,1.2165,1.158,1.1292,1.0998,0.6061,0.8792,1.2546,1.6386,1.7584,0.0,0.0,2.4338,2.5014,2.5723,2.6277,2.7045,2.8167,2.8862,2.9665,3.0841,3.1674,3.2672,3.4098,3.4986,3.5668,3.6292,3.671,3.7103,3.7422,3.8255,3.9165,4.0185,4.0626,4.0845,4.0847,4.049,4.0038,3.9416,3.8419,3.7309,3.6086,3.4636,3.3156,3.1504,2.9879,2.8244,2.6544,2.5622,2.463,2.3572,2.2982,2.2281,2.1578,2.0593,2.0413,2.0584,2.0683,2.0872,2.0962,2.1329,2.2129,2.2999,2.3953,2.5136,2.6318,2.7313,2.8279,2.9238,2.996,3.0659,3.1136,3.1149,3.0986,3.0823,3.0609,3.0216,2.9819,2.9534,2.9143,2.8657,2.8099,2.7684,2.701,2.5841,2.5495,2.5147,2.4573,2.379,2.2911,2.1952,2.1329,2.0692,2.015,1.9621,1.9271,1.8988,1.8711,1.835,1.8156,1.7692,1.7412,1.7138,1.6466,1.6001,1.5818,1.4854,1.3902,1.3136,1.1873,1.1096,1.0801,1.0502,1.0502,1.0609,1.0314,1.0019,-0.1232,-0.0297,0.2164,0.8217,0.9801,1.1897,0.0,0.0,0.0,2.4896,2.5581,2.6091,2.7259,2.8111,2.89,2.9477,3.0383,3.1425,3.2498,3.3455,3.4341,3.5013,3.5406,3.5742,3.6047,3.7126,3.8414,3.9846,4.0313,4.0574,4.0652,4.0499,4.0169,3.9643,3.8588,3.7417,3.6094,3.4492,3.2739,3.0925,2.9122,2.7259,2.5414,2.4032,2.2902,2.1869,2.1043,2.047,2.0051,1.9139,1.8419,1.8056,1.8888,1.9255,1.953,1.982,2.0619,2.1676,2.257,2.377,2.5231,2.6224,2.7395,2.8542,2.9328,3.0114,3.0672,3.0533,3.0292,3.0139,2.9921,2.9509,2.9106,2.8882,2.8566,2.8099,2.7429,2.6951,2.6207,2.4829,2.4049,2.3531,2.3444,2.2658,2.1686,2.0718,1.9985,1.9247,1.8511,1.8149,1.787,1.7404,1.7318,1.7131,1.6756,1.648,1.6197,1.5913,1.5242,1.4765,1.4765,1.3703,1.2646,1.1683,1.0605,1.0015,0.9723,0.8924,0.8924,0.9723,0.9426,0.9027,-0.7962,-0.3524,0.1307,0.2048,0.2191,0.4152,1.1757,0.0,1.5806,2.2823,0.0,2.5282,2.6334,0.0,0.0,2.8657,2.9144,2.9757,3.0834,3.129,3.2405,3.4817,3.5406,3.5711,3.5976,3.6719,3.7425,3.7977,3.898,3.9616,3.9746,4.0225,4.0246,3.9713,3.8665,3.7451,3.6094,3.4379,3.2462,3.038,2.8278,2.6195,2.4218,2.2787,2.156,2.0587,1.9731,1.9052,1.8319,1.749,1.6842,1.6567,1.7498,1.7963,1.7963,1.8434,1.9072,1.9977,2.1418,2.2482,2.3607,2.5147,2.6812,2.8303,2.8961,2.9353,2.9651,2.9793,2.9574,2.9209,2.9209,2.8816,2.8247,2.7971,2.7661,2.7185,2.6693,2.6113,2.5274,2.4145,2.3183,2.2394,2.2041,2.1168,2.0184,1.9155,1.8419,1.7777,1.7225,1.6756,1.6473,1.6379,1.6197,1.5913,1.5622,1.5432,1.5153,1.4879,1.4094,1.3703,1.3703,1.2257,1.1194,1.0605,0.9517,0.8924,0.8924,0.7932,0.7836,0.8531,0.8336,0.7935,-1.4995,-1.318,-1.0237,-0.6121,-0.5283,-0.3524,0.3949,0.5649,0.7876,1.5749,0.0,0.0,0.0,0.0,0.0,0.0,2.8377,2.9096,2.9726,3.0127,3.1163,3.3351,3.3847,3.4393,3.5316,3.5913,3.6618,3.7559,3.8267,3.8926,3.9567,3.9767,3.983,3.9757,3.8765,3.7484,3.5924,3.4104,3.2035,2.9732,2.7486,2.5358,2.3296,2.1559,2.0173,1.9016,1.8103,1.7363,1.6734,1.6082,1.5622,1.535,1.5622,1.6183,1.6842,1.7225,1.7963,1.888,1.9877,2.1141,2.2658,2.4648,2.6174,2.7336,2.7995,2.8395,2.8712,2.8791,2.8621,2.8303,2.8155,2.7926,2.751,2.7174,2.6928,2.6599,2.5863,2.5274,2.4584,2.327,2.2217,2.1239,2.0249,1.9712,1.908,1.8064,1.7131,1.6473,1.6001,1.5432,1.5057,1.5057,1.4867,1.458,1.428,1.4088,1.3806,1.3437,1.2651,1.2063,1.1673,1.0596,0.9813,0.9517,0.8428,0.7832,0.7832,0.6836,0.6437,0.6734,0.6936,0.6736,-1.8792,-1.9307,-1.8521,-1.3472,-1.2531,-1.0966,-0.3619,-0.21,-0.0025,0.7774,0.9414,0.0,0.0,0.0,2.3606,2.6199,0.0,2.8182,2.8693,2.9162,2.9983,3.1648,3.2311,3.3069,3.4183,3.4847,3.5653,3.673,3.7358,3.8044,3.8843,3.9209,3.9437,3.9508,3.8749,3.7499,3.5855,3.3844,3.1602,2.9101,2.6662,2.438,2.2288,2.0414,1.8854,1.7643,1.6733,1.5978,1.533,1.4956,1.458,1.4304,1.4208,1.4675,1.5527,1.6008,1.6756,1.7591,1.8511,2.0059,2.205,2.4059,2.5348,2.6185,2.6846,2.7348,2.7684,2.7684,2.758,2.7325,2.7185,2.694,2.6599,2.6279,2.6019,2.5768,2.4935,2.4317,2.3531,2.2129,2.1159,2.0076,1.8611,1.8427,1.8056,1.7044,1.6008,1.5255,1.4765,1.4196,1.3913,1.3913,1.3619,1.342,1.313,1.2834,1.2452,1.1878,1.1189,1.0502,1.0015,0.9217,0.8623,0.8329,0.7335,0.6836,0.6736,0.5834,0.5336,0.5135,0.5737,0.5634,-1.7667,-1.8147,-1.8638,-1.901,-1.9459,-1.8002,-1.0802,-0.9427,-0.7542,-0.0072,0.1362,0.3757,1.1876,1.3453,1.6197,2.4327,2.5954,0.0,0.0,2.8083,2.8797,3.0036,3.1266,3.2148,3.2456,3.3548,3.4386,3.4773,3.5937,3.6772,3.7064,3.8563,3.9208,3.875,3.8508,3.7582,3.5904,3.3647,3.1147,2.8502,2.5647,2.3205,2.1302,1.9234,1.773,1.6661,1.5859,1.5051,1.4298,1.4004,1.3817,1.3539,1.3539,1.3539,1.3727,1.4771,1.5439,1.6015,1.7318,1.9505,2.1872,2.3193,2.4145,2.4999,2.5768,2.6102,2.6268,2.6528,2.6445,2.6268,2.6268,2.5863,2.5538,2.5285,2.4935,2.4413,2.3714,2.3008,2.2129,2.0898,1.9894,1.888,1.7598,1.7326,1.7044,1.6015,1.4968,1.4196,1.3613,1.3141,1.2861,1.2861,1.2565,1.237,1.2078,1.1785,1.1292,1.0507,0.9908,0.941,0.892,0.8127,0.7531,0.7238,0.6439,0.5939,0.5634,0.5135,0.4533,0.4033,0.4634,0.4533,-1.6765,-1.7268,-1.7797,-1.8405,-1.8927,-1.8819,-1.6784,-1.6769,-1.5051,-0.7638,-0.6361,-0.4209,0.3566,0.94,1.3976,1.6855,2.2082,2.5967,0.0,2.7131,2.7745,2.8369,3.0048,3.125,3.1519,3.2631,3.35,3.3884,3.5028,3.6102,3.6893,3.8003,3.8633,3.8692,3.8484,3.7543,3.5786,3.345,3.086,2.7964,2.5163,2.268,2.0467,1.8247,1.6705,1.5759,1.462,1.3806,1.3244,1.3044,1.2754,1.2467,1.2467,1.2467,1.2662,1.3902,1.4675,1.535,1.7131,1.8788,2.043,2.1686,2.2658,2.3627,2.4488,2.4925,2.5094,2.5359,2.5263,2.4999,2.4925,2.4659,2.4317,2.3887,2.3704,2.3357,2.2492,2.1872,2.1159,1.9886,1.888,1.7777,1.6574,1.5724,1.5242,1.4873,1.3913,1.3044,1.2554,1.2073,1.1683,1.1492,1.1194,1.0998,1.0708,1.0109,0.9517,0.9126,0.8428,0.7928,0.7733,0.6833,0.6234,0.6134,0.5338,0.4839,0.4533,0.4033,0.3632,0.3432,0.3429,0.3429,-1.5786,-1.6291,-1.68,-1.7368,-1.7907,-1.8489,-1.915,-1.9773,-1.8964,-1.4436,-1.3929,-1.1992,-0.4376,0.1139,0.5463,0.8261,1.5753,2.2374,0.0,2.6607,2.7085,2.7417,2.9054,3.0263,3.0523,3.1678,3.2637,3.3329,3.4266,3.5263,3.6343,3.7245,3.7914,3.8303,3.8083,3.725,3.5752,3.3285,3.0527,2.755,2.459,2.1989,1.9729,1.7439,1.5777,1.4765,1.3709,1.2948,1.2467,1.237,1.2175,1.198,1.2078,1.2175,1.2273,1.3141,1.401,1.4975,1.656,1.787,1.9072,2.0249,2.1329,2.2315,2.3105,2.3541,2.38,2.3973,2.3887,2.3714,2.3627,2.328,2.3008,2.2658,2.2306,2.1952,2.1239,2.0529,1.9803,1.8696,1.7684,1.6662,1.5445,1.4394,1.3721,1.3721,1.2845,1.1975,1.1487,1.0998,1.0507,1.0306,1.0015,0.9616,0.9221,0.8627,0.8031,0.7733,0.7036,0.6637,0.6539,0.5536,0.5035,0.5035,0.4336,0.3935,0.3732,0.3331,0.2928,0.2424,0.212,0.1917]},{"header":{"parameterUnit":"m.s-1","parameterCategory":1,"la1":30.6,"la2":29.2853,"lo1":-89.7004,"lo2":-87.6739,"dy":0.0162,"dx":0.0183,"nx":112,"ny":82,"refTime":"2023-06-18T18:00:00:Z","depth":0,"parameterNumber":3,"parameterNumberName":"V-component_of_WINDS"},"data":[0.0,0.0,0.0,0.0,0.0,0.0,0.0,0.0,0.0,0.0,0.0,0.0,0.0,0.0,0.0,0.0,0.0,0.0,0.0,0.0,0.0,0.0,0.0,0.0,0.0,0.0,0.0,0.0,0.0,0.0,0.0,0.0,0.0,0.0,0.0,0.0,0.0,0.0,0.0,0.0,0.0,0.0,0.0,0.0,0.0,0.0,0.0,0.0,0.0,0.0,0.0,0.0,0.0,0.0,0.0,0.0,0.0,0.0,0.0,0.0,0.0,0.0,0.0,0.0,0.0,0.0,0.0,0.0,0.0,0.0,0.0,0.0,0.0,0.0,0.0,0.0,0.0,0.0,0.0,0.0,0.0,0.0,0.0,0.0,0.0,0.0,0.0,0.0,0.0,0.0,-0.4058,-0.4694,-0.5872,-0.6791,-0.7484,-0.8071,-0.8597,-0.9071,0.0,0.0,0.0,0.0,0.0,0.0,0.0,0.0,0.0,0.0,0.0,0.0,0.0,0.0,0.0,0.0,0.0,0.0,0.0,0.0,0.0,0.0,0.0,0.0,0.0,0.0,0.0,0.0,0.0,0.0,0.0,0.0,0.0,0.0,0.0,0.0,0.0,0.0,0.0,0.0,0.0,0.0,0.0,0.0,0.0,0.0,0.0,0.0,0.0,0.0,0.0,0.0,0.0,0.0,0.0,0.0,0.0,0.0,0.0,0.0,0.0,0.0,0.0,0.0,0.0,0.0,0.0,0.0,0.0,0.0,0.0,0.0,0.0,0.0,0.0,0.0,0.0,0.0,0.0,0.0,0.0,0.0,0.0,0.0,0.0,0.0,0.0,0.0,0.0,0.0,0.0,0.0,0.0,0.0,0.0,0.0,0.0,0.0,0.0,0.0,0.0,0.0,0.0,0.0,-0.3974,-0.5084,-0.5832,-0.663,-0.7403,-0.8071,-0.8597,-0.9071,0.0,0.0,0.0,0.0,0.0,0.0,0.0,0.0,0.0,0.0,0.0,0.0,0.0,0.0,0.0,0.0,0.0,0.0,0.0,0.0,0.0,0.0,0.0,0.0,0.0,0.0,0.0,0.0,0.0,0.0,0.0,0.0,0.0,0.0,0.0,0.0,0.0,0.0,0.0,0.0,0.0,0.0,0.0,0.0,0.0,0.0,0.0,0.0,0.0,0.0,0.0,0.0,0.0,0.0,0.0,0.0,0.0,0.0,0.0,0.0,0.0,0.0,0.0,0.0,0.0,0.0,0.0,0.0,0.0,0.0,0.0,0.0,0.0,0.0,0.0,0.0,0.0,0.0,0.0,0.0,0.0,0.0,0.0,0.0,0.0,0.0,0.0,0.0,0.0,0.0,0.0,0.0,0.0,0.0,0.0,0.0,0.0,0.0,0.0,0.0,0.0,0.0,0.0,-0.3514,-0.4151,-0.5214,-0.5857,-0.6553,-0.7403,-0.8165,-0.8719,-0.9082,-0.9725,0.0,0.0,0.0,0.0,0.0,0.0,0.0,0.0,0.0,0.0,0.0,0.0,0.0,0.0,0.0,0.0,0.0,0.0,0.0,0.0,0.0,0.0,0.0,0.0,0.0,0.0,0.0,0.0,0.0,0.0,0.0,0.0,0.0,0.0,0.0,0.0,0.0,0.0,0.0,0.0,0.0,0.0,0.0,0.0,0.0,0.0,0.0,0.0,0.0,0.0,0.0,0.0,0.0,0.0,0.0,0.0,0.0,0.0,0.0,0.0,0.0,0.0,0.0,0.0,0.0,0.0,0.0,0.0,0.0,0.0,0.0,0.0,0.0,0.0,0.0,0.0,0.0,0.0,0.0,0.0,0.0,0.0,0.0,0.0,0.0,0.0,0.0,0.0,0.0,0.0,0.0,0.0,0.0,0.0,0.0,0.0,0.0,0.0,0.0,0.0,0.0,0.0,-0.3638,-0.4227,-0.5137,-0.578,-0.6553,-0.7403,-0.8246,-0.8817,-0.9087,-0.9759,0.0,0.0,0.0,0.0,0.0,0.0,0.0,0.0,0.0,0.0,0.0,0.0,0.0,0.0,0.0,0.0,0.0,0.0,0.0,0.0,0.0,0.0,0.0,0.0,0.0,0.0,0.0,0.0,0.0,0.0,0.0,0.0,0.0,0.0,0.0,0.0,0.0,0.0,0.0,0.0,0.0,0.0,0.0,0.0,0.0,0.0,0.0,0.0,0.0,0.0,0.0,0.0,0.0,0.0,0.0,0.0,0.0,0.0,0.0,0.0,0.0,0.0,0.0,0.0,0.0,0.0,0.0,0.0,0.0,0.0,0.0,0.0,0.0,0.0,0.0,0.0,0.0,0.0,0.0,0.0,0.0,0.0,0.0,0.0,0.0,0.0,0.0,0.0,0.0,0.0,0.0,0.0,0.0,0.0,0.0,0.0,0.0,0.0,0.0,0.0,0.0,0.0,-0.3421,-0.4154,-0.498,-0.5699,-0.6553,-0.7403,-0.8246,-0.8817,-0.9087,-0.9759,0.0,0.0,0.0,0.0,0.0,0.0,0.0,0.0,0.0,0.0,0.0,0.0,0.0,0.0,0.0,0.0,0.0,0.0,0.0,0.0,0.0,0.0,0.0,0.0,0.0,0.0,0.0,0.0,0.0,0.0,0.0,0.0,0.0,0.0,0.0,0.0,0.0,0.0,0.0,0.0,0.0,0.0,0.0,0.0,0.0,0.0,0.0,0.0,0.0,0.0,0.0,0.0,0.0,0.0,0.0,0.0,0.0,0.0,0.0,0.0,0.0,0.0,0.0,0.0,0.0,0.0,0.0,0.0,0.0,0.0,0.0,0.0,0.0,0.0,0.0,0.0,0.0,0.0,0.0,0.0,0.0,0.0,0.0,0.0,0.0,0.0,0.0,0.0,0.0,0.0,0.0,0.0,0.0,0.0,0.0,0.0,0.0,0.0,0.0,0.0,0.0,0.0,-0.3054,-0.3854,-0.475,-0.5622,-0.6553,-0.7403,-0.8246,-0.8817,-0.9087,0.0,0.0,0.0,0.0,0.0,0.0,0.0,0.0,0.0,0.0,0.0,0.0,0.0,0.0,0.0,0.0,0.0,0.0,0.0,0.0,0.0,0.0,0.0,0.0,0.0,0.0,0.0,0.0,0.0,0.0,0.0,0.0,0.0,0.0,0.0,0.0,0.0,0.0,0.0,0.0,0.0,0.0,0.0,0.0,0.0,0.0,0.0,0.0,0.0,0.0,0.0,0.0,0.0,0.0,0.0,0.0,0.0,0.0,0.0,0.0,0.0,0.0,0.0,0.0,0.0,0.0,0.0,0.0,0.0,0.0,0.0,0.0,0.0,0.0,0.0,0.0,0.0,0.0,0.0,0.0,0.0,0.0,0.0,0.0,0.0,0.0,0.0,0.0,0.0,0.0,0.0,0.0,0.0,0.0,0.0,0.0,0.0,0.0,0.0,0.0,0.0,0.0,-0.1955,-0.2783,-0.3664,-0.46,-0.5625,-0.6553,-0.7403,-0.8246,-0.8817,-0.9087,0.0,0.0,0.0,0.0,0.0,0.0,0.0,0.0,0.0,0.0,0.0,0.0,0.0,0.0,0.0,0.0,0.0,0.0,0.0,0.0,0.0,0.0,0.0,0.0,0.0,0.0,0.0,0.0,0.0,0.0,0.0,0.0,0.0,0.0,0.0,0.0,0.0,0.0,0.0,0.0,0.0,0.0,0.0,0.0,0.0,0.0,0.0,0.0,0.0,0.0,0.0,0.0,0.0,0.0,0.0,0.0,0.0,0.0,0.0,0.0,0.0,0.0,0.0,0.0,0.0,0.0,0.0,0.0,0.0,0.0,0.0,0.0,0.0,0.0,0.0,0.0,0.0,0.0,0.0,0.0,0.0,0.0,0.0,0.0,0.0,0.0,0.0,0.0,0.0,0.0,0.0,0.0,0.0,0.0,0.0,0.0,0.0,0.0,0.0,0.0,0.0,0.0,-0.1453,-0.253,-0.3583,-0.4608,-0.5625,-0.6553,-0.7403,-0.8246,-0.8817,0.0,0.0,0.0,0.0,0.0,0.0,0.0,0.0,0.0,0.0,0.0,0.0,0.0,0.0,0.0,0.0,0.0,0.0,0.0,0.0,0.0,0.0,0.0,0.0,0.0,0.0,0.0,0.0,0.0,0.0,0.0,0.0,0.0,0.0,0.0,0.0,0.0,0.0,0.0,0.0,0.0,0.0,0.0,0.0,0.0,0.0,0.0,0.0,0.0,0.0,0.0,0.0,0.0,0.0,0.0,0.0,0.0,0.0,0.0,0.0,0.0,0.0,0.0,0.0,0.0,0.0,0.0,0.0,0.0,0.0,0.0,0.0,0.0,0.0,0.0,0.0,0.0,0.0,0.0,0.0,0.0,0.0,0.0,0.0,0.0,0.0,0.0,0.0,0.0,0.0,0.0,0.0,0.0,0.0,0.0,0.0,0.0,0.0,0.0,0.0,0.0,0.0,0.0,-0.0654,-0.1787,-0.2897,-0.4137,-0.5315,-0.6475,-0.7629,-0.847,-0.9114,-0.9519,0.0,0.0,0.0,0.0,0.0,0.0,0.0,0.0,0.0,0.0,0.0,0.0,0.0,0.0,0.0,0.0,0.0,0.0,0.0,0.0,0.0,0.0,0.0,0.0,0.0,0.0,0.0,0.0,0.0,0.0,0.0,0.0,0.0,0.0,0.0,0.0,0.0,0.0,0.0,0.0,0.0,0.0,0.0,0.0,0.0,0.0,0.0,0.0,0.0,0.0,0.0,0.0,0.0,0.0,0.0,0.0,0.0,0.0,0.0,0.0,0.0,0.0,0.0,0.0,0.0,0.0,0.0,0.0,0.0,0.0,0.0,0.0,0.0,0.0,0.0,0.0,0.0,0.0,0.0,0.0,0.0,0.0,0.0,0.0,0.0,0.0,0.0,0.0,0.0,0.0,0.0,0.0,0.0,0.0,0.0,0.0,0.0,0.0,0.0,0.0,0.0,0.0,0.0,-0.1351,-0.2698,-0.3984,-0.516,-0.6402,-0.7706,-0.8546,-0.9188,-0.9665,0.0,0.0,0.0,0.0,0.0,0.0,0.0,0.0,0.0,0.0,0.0,0.0,0.0,0.0,0.0,0.0,0.0,0.0,0.0,0.0,0.0,0.0,0.0,0.0,0.0,0.0,0.0,0.0,0.0,0.0,0.0,0.0,0.0,0.0,0.0,0.0,0.0,0.0,0.0,0.0,0.0,0.0,0.0,0.0,0.0,0.0,0.0,0.0,0.0,0.0,0.0,0.0,0.0,0.0,0.0,0.0,0.0,0.0,0.0,0.0,0.0,0.0,0.0,0.0,0.0,0.0,0.0,0.0,0.0,0.0,0.0,0.0,0.0,0.0,0.0,0.0,0.0,0.0,0.0,0.0,0.0,0.0,0.0,0.0,0.0,0.0,0.0,0.0,0.0,0.0,0.0,0.0,0.0,0.0,0.0,0.0,0.0,0.0,0.0,0.0,0.0,0.0,0.0729,-0.1141,-0.2743,-0.391,-0.5157,-0.6398,-0.7706,-0.8546,-0.9273,-0.9769,0.0,0.0,0.0,0.0,0.0,0.0,0.0,0.0,0.0,0.0,0.0,0.0,0.0,0.0,0.0,0.0,0.0,0.0,0.0,0.0,0.0,0.0,0.0,0.0,0.0,0.0,0.0,0.0,0.0,0.0,0.0,0.0,0.0,0.0,0.0,0.0,0.0,0.0,0.0,0.0,0.0,0.0,0.0,0.0,0.0,0.0,0.0,0.0,0.0,0.0,0.0,0.0,0.0,0.0,0.0,0.0,0.0,0.0,0.0,0.0,-2.2769,-2.2083,0.0,0.0,0.0,0.0,0.0,0.0,0.0,0.0,0.0,0.0,0.0,0.0,0.0,0.0,0.0,0.0,0.0,0.0,0.0,0.0,0.0,0.0,0.0,0.0,0.0,0.0,0.0,0.0,0.0,0.0,0.0,0.0,0.0,0.0,0.0,0.0,0.0,0.0,0.0,0.0,0.2167,0.0231,-0.1722,-0.3675,-0.5074,-0.6465,-0.7927,-0.8927,-0.9793,-1.0444,-1.0918,0.0,0.0,0.0,0.0,0.0,0.0,0.0,0.0,0.0,0.0,0.0,0.0,0.0,0.0,0.0,0.0,0.0,0.0,0.0,0.0,0.0,0.0,0.0,0.0,0.0,0.0,0.0,0.0,0.0,0.0,0.0,0.0,0.0,0.0,0.0,0.0,0.0,0.0,0.0,0.0,0.0,0.0,0.0,0.0,0.0,0.0,0.0,0.0,0.0,0.0,0.0,0.0,0.0,0.0,0.0,0.0,0.0,0.0,0.0,-2.4934,-2.3704,0.0,0.0,0.0,0.0,0.0,0.0,0.0,0.0,0.0,0.0,0.0,0.0,0.0,0.0,0.0,0.0,0.0,0.0,0.0,0.0,0.0,0.0,0.0,0.0,0.0,0.0,0.0,0.0,0.0,0.0,0.0,0.0,0.0,0.0,0.0,0.0,0.0,0.0,0.0,0.0,0.3086,0.1001,-0.1094,-0.3203,-0.4838,-0.6388,-0.7927,-0.9079,-1.0043,-1.0809,-1.1305,0.0,0.0,0.0,0.0,0.0,0.0,0.0,0.0,0.0,0.0,0.0,0.0,0.0,0.0,0.0,0.0,0.0,0.0,0.0,0.0,0.0,0.0,0.0,0.0,0.0,0.0,0.0,0.0,0.0,0.0,0.0,0.0,0.0,0.0,0.0,0.0,0.0,0.0,0.0,0.0,0.0,0.0,0.0,0.0,0.0,0.0,0.0,0.0,0.0,0.0,0.0,0.0,0.0,-3.0717,-3.1206,-3.0939,-3.0697,-3.0523,-3.0171,-2.6948,-2.5357,-2.5058,-2.468,0.0,0.0,0.0,0.0,0.0,0.0,0.0,0.0,0.0,0.0,0.0,0.0,0.0,0.0,0.0,0.0,0.0,0.0,0.0,0.0,0.0,0.0,1.6793,1.8224,1.9135,1.9036,1.6862,0.0,0.0,0.0,0.0,0.0,0.0,0.0,0.0,0.0,0.0,0.0,0.3705,0.1541,-0.0703,-0.289,-0.4606,-0.6237,-0.7927,-0.9155,-1.0204,-1.1021,-1.161,-1.2126,0.0,0.0,0.0,0.0,0.0,0.0,0.0,0.0,0.0,0.0,0.0,0.0,0.0,0.0,0.0,0.0,0.0,0.0,0.0,0.0,0.0,0.0,0.0,0.0,0.0,0.0,0.0,0.0,0.0,0.0,0.0,0.0,-2.2816,-2.298,0.0,0.0,0.0,0.0,0.0,0.0,0.0,0.0,0.0,0.0,0.0,0.0,0.0,-2.9344,-2.9154,-3.0756,-3.1467,-3.1278,-3.1342,-3.1327,-3.1146,-3.1012,-3.0818,-3.0617,-2.9917,0.0,-2.8952,-2.8544,0.0,0.0,0.0,0.0,0.0,0.0,0.0,0.0,0.0,0.0,0.0,0.0,0.0,0.0,0.0,0.0,0.0,0.0,0.0,0.0,0.0,0.0,2.216,2.2698,2.2852,2.2936,2.2917,2.0842,1.887,1.8452,1.7869,1.7019,0.0,0.0,0.0,0.0,0.0,0.0,0.4402,0.2178,-0.0234,-0.2974,-0.4688,-0.624,-0.7702,-0.9079,-1.0276,-1.1286,-1.1724,-1.2219,-1.293,-1.3137,0.0,0.0,0.0,0.0,0.0,0.0,0.0,0.0,0.0,0.0,0.0,0.0,0.0,0.0,0.0,0.0,0.0,0.0,0.0,0.0,0.0,0.0,0.0,0.0,0.0,0.0,0.0,0.0,0.0,-2.4016,-2.4729,-2.5137,-2.5615,-2.6042,0.0,0.0,0.0,0.0,0.0,0.0,0.0,0.0,0.0,-3.0072,-3.0753,-3.1034,-3.0891,-3.198,-3.2442,-3.2281,-3.2643,-3.2735,-3.2548,-3.2437,-3.2267,-3.205,-3.188,-3.1661,-3.1331,-3.0039,-2.9438,-2.9283,0.0,0.0,0.0,0.0,-2.6894,-2.6928,-2.6945,-2.7063,-2.7244,-2.7483,0.0,0.0,0.0,0.0,0.0,0.0,0.0,-0.155,-0.2525,1.2137,2.7128,2.6907,2.6922,2.7025,2.6917,2.5685,2.3851,2.1595,2.0526,1.9603,1.8148,1.6647,0.0,0.0,0.0,0.8244,0.5508,0.3115,0.0546,-0.2189,-0.4137,-0.5922,-0.7625,-0.9231,-1.0513,-1.1484,-1.2253,-1.2907,-1.3459,-1.3794,-1.4275,0.0,0.0,0.0,0.0,0.0,0.0,0.0,0.0,0.0,0.0,0.0,0.0,0.0,0.0,0.0,0.0,0.0,0.0,0.0,0.0,0.0,0.0,0.0,0.0,0.0,0.0,0.0,0.0,-2.5664,-2.6571,-2.716,-2.7809,-2.8254,0.0,0.0,0.0,0.0,0.0,0.0,-3.0677,-3.0652,-3.1121,-3.226,-3.2389,-3.24,-3.2313,-3.2962,-3.3234,-3.3112,-3.3644,-3.378,-3.3605,-3.352,-3.3345,-3.3086,-3.2993,-3.2884,-3.2716,-3.114,-3.0484,-3.0433,-2.9989,-2.9834,-2.9782,-2.9541,-2.9438,-2.9472,-2.954,-2.9708,-2.9937,-3.0137,-3.0571,-3.1064,-3.1467,0.0,0.0,0.0,0.0,-0.0277,0.2196,1.6897,3.0979,3.0473,3.0315,3.0181,2.9743,2.9253,2.7966,2.4734,2.3427,2.2315,2.0584,1.8828,0.0,1.426,1.1924,0.9396,0.6517,0.3889,0.1325,-0.1484,-0.3667,-0.5687,-0.7544,-0.9221,-1.0588,-1.1632,-1.267,-1.3447,-1.3929,-1.4452,-1.4928,-1.5399,0.0,0.0,0.0,0.0,0.0,0.0,0.0,0.0,0.0,0.0,0.0,0.0,0.0,0.0,0.0,0.0,0.0,0.0,0.0,0.0,0.0,0.0,0.0,0.0,0.0,0.0,0.0,0.0,0.0,-2.8142,-2.8178,0.0,0.0,0.0,0.0,-3.1352,-3.2056,-3.2458,-3.2483,-3.2345,-3.2277,-3.2317,-3.2972,-3.3262,-3.3131,-3.378,-3.4068,-3.3943,-3.385,-3.3726,-3.3605,-3.352,-3.3345,-3.3086,-3.3086,-3.3042,-3.2884,-3.2502,-3.235,-3.2262,-3.139,-3.0992,-3.0904,-3.007,-2.9841,-2.9889,-3.0036,-3.019,-3.0428,-3.0764,-3.137,-3.2107,-3.2505,-3.2798,0.0,0.0,-0.8985,0.2579,1.32,2.4459,3.302,3.2858,3.2323,3.1757,3.1211,3.0596,2.9507,2.7507,2.6277,2.4897,2.2743,0.0,1.836,1.5466,1.2846,1.0135,0.7122,0.4426,0.1713,-0.1015,-0.3357,-0.5458,-0.7387,-0.8983,-1.0421,-1.1632,-1.267,-1.3553,-1.4308,-1.4792,-1.5303,-1.5945,-1.678,0.0,0.0,0.0,0.0,0.0,0.0,0.0,0.0,0.0,0.0,0.0,0.0,0.0,0.0,0.0,0.0,0.0,0.0,0.0,0.0,0.0,0.0,0.0,0.0,0.0,0.0,0.0,0.0,-2.9818,-3.0365,0.0,-3.1831,-3.2057,-3.2257,-3.2422,-3.2593,-3.2882,-3.3289,-3.3221,-3.3355,-3.3763,-3.3958,-3.3975,-3.3841,-3.3975,-3.3998,-3.3868,-3.378,-3.3671,-3.352,-3.3481,-3.3605,-3.3858,-3.3844,-3.3749,-3.3669,-3.357,-3.3202,-3.2639,-3.2223,-3.2066,-3.2031,-3.1716,-3.1676,-3.1792,-3.1934,-3.2084,-3.2376,-3.3013,-3.3575,-3.4079,-3.4417,-3.4617,-3.2222,-2.0207,-0.8575,0.3006,1.4924,2.6563,3.5062,3.4472,3.4257,3.3991,3.334,3.2676,3.1865,3.0517,2.8392,2.6169,2.4266,2.2292,1.999,1.6981,1.4233,1.1196,0.7808,0.5508,0.288,-0.0468,-0.3122,-0.5381,-0.7161,-0.8908,-1.0421,-1.1632,-1.2998,-1.3995,-1.4478,-1.5482,-1.6107,-1.6407,-1.7307,-1.8103,0.0,0.0,0.0,0.0,0.0,0.0,0.0,0.0,0.0,0.0,0.0,0.0,0.0,0.0,0.0,0.0,0.0,0.0,0.0,0.0,0.0,0.0,0.0,0.0,0.0,-2.9747,-3.0682,-3.1562,-3.2179,-3.2703,-3.3225,-3.3403,-3.3442,-3.3288,-3.3417,-3.3694,-3.4072,-3.3999,-3.4124,-3.4542,-3.4409,-3.4269,-3.4173,-3.3998,-3.3895,-3.3807,-3.3671,-3.3549,-3.3452,-3.3364,-3.3484,-3.3862,-3.3799,-3.372,-3.3672,-3.3621,-3.3235,-3.274,-3.269,-3.269,-3.269,-3.269,-3.2722,-3.287,-3.3147,-3.3408,-3.376,-3.4408,-3.4886,-3.5235,-3.5516,-3.5847,-3.2629,-1.5705,-0.5719,0.3772,2.0637,3.0675,3.6274,3.5784,3.5659,3.5453,3.4787,3.4118,3.3335,3.2391,3.0045,2.7704,2.5944,2.3833,2.1392,1.8395,1.5438,1.2231,0.8737,0.6546,0.3814,0.0,-0.2731,-0.5074,-0.6934,-0.8685,-1.0271,-1.1484,-1.3098,-1.4237,-1.4849,-1.6013,-1.6812,-1.7226,-1.8475,-1.9439,-2.0163,0.0,0.0,0.0,0.0,0.0,0.0,0.0,0.0,0.0,0.0,0.0,0.0,0.0,0.0,0.0,0.0,0.0,0.0,0.0,0.0,0.0,0.0,0.0,-2.9066,-3.1397,-3.2384,-3.3335,-3.3385,-3.3317,-3.3281,-3.3916,-3.4243,-3.405,-3.4683,-3.5039,-3.4927,-3.4747,-3.4599,-3.4532,-3.433,-3.421,-3.4099,-3.3895,-3.3807,-3.378,-3.352,-3.3393,-3.3364,-3.3196,-3.3073,-3.3015,-3.2952,-3.2888,-3.2808,-3.2692,-3.2623,-3.2606,-3.274,-3.2773,-3.2773,-3.2823,-3.2838,-3.3011,-3.353,-3.3972,-3.4367,-3.4775,-3.5149,-3.5496,-3.5768,-3.6398,-3.1753,-0.6415,-0.0054,0.5085,3.0931,3.7085,3.6595,3.6841,3.6451,3.5888,3.5429,3.4691,3.3832,3.2949,3.1447,2.9572,2.7566,2.5328,2.2727,1.9675,1.6422,0.0,0.9942,0.7308,0.4278,0.0467,-0.2262,-0.4608,-0.6707,-0.8385,-0.99,-1.1335,-1.2879,-1.433,-1.5463,-1.6378,-1.7288,-1.835,-2.0123,-2.1499,-2.2415,0.0,0.0,0.0,0.0,0.0,0.0,0.0,0.0,0.0,0.0,0.0,0.0,0.0,0.0,0.0,0.0,0.0,0.0,0.0,0.0,0.0,-0.3388,-1.0332,-2.8646,-3.2133,-3.3167,-3.4144,-3.4256,-3.4452,-3.4967,-3.5104,-3.5104,-3.4894,-3.4921,-3.5135,-3.5534,-3.5417,-3.5235,-3.5089,-3.4988,-3.4607,-3.3887,-3.3726,-3.3605,-3.3491,-3.3382,-3.3262,-3.3122,-3.3011,-3.3219,-3.3641,-3.359,-3.3523,-3.3523,-3.3489,-3.3119,-3.2588,-3.2639,-3.2639,-3.269,-3.2773,-3.2997,-3.3334,-3.3726,-3.4111,-3.451,-3.4901,-3.5701,-3.6528,-3.6684,-3.7273,-3.2483,-0.6643,0.0343,0.597,3.1712,3.7936,3.7381,3.7114,3.6615,3.6045,3.547,3.4866,3.4134,3.323,3.1916,3.0319,2.8438,2.6375,2.3874,2.0803,1.7546,1.4138,1.0423,0.7204,0.396,0.078,-0.2264,-0.4686,-0.623,-0.8147,-0.99,-1.1335,-1.2879,-1.433,-1.5463,-1.6762,-1.8233,-1.9935,-2.072,-2.164,0.0,0.0,0.0,0.0,0.0,0.0,0.0,0.0,0.0,0.0,0.0,0.0,0.0,0.0,0.0,0.0,0.0,0.0,0.0,0.0,0.0,0.0,0.6463,0.0394,-1.6068,-2.2991,-2.852,-3.4341,-3.5367,-3.5739,-3.6125,-3.6318,-3.6343,-3.6101,-3.5852,-3.5825,-3.6123,-3.5994,-3.5814,-3.5625,-3.5588,-3.5072,-3.4108,-3.3964,-3.3671,-3.3256,-3.3152,-3.3028,-3.2902,-3.2787,-3.2938,-3.3296,-3.3194,-3.3125,-3.3125,-3.309,-3.2809,-3.2404,0.0,0.0,0.0,0.0,-3.3042,-3.3357,-3.3762,-3.4184,-3.4672,-3.5439,-3.6261,-3.7034,-3.7498,-3.8146,-3.3208,-0.6854,0.0242,0.5874,3.1897,3.8231,3.7667,3.7206,3.6696,3.6174,3.5605,3.4961,3.4234,3.3371,3.221,0.0,2.8989,2.6966,2.4614,2.1692,1.8412,1.4981,1.1204,0.745,0.4075,0.1171,-0.2029,-0.453,-0.5918,-0.7918,0.0,0.0,0.0,-1.453,-1.6376,-1.7813,0.0,0.0,0.0,-2.2565,-2.351,-2.4868,0.0,0.0,-2.7089,-2.8186,0.0,0.0,0.0,0.0,0.0,0.0,0.0,0.0,0.0,0.0,0.0,0.0,0.0,0.0,0.0,0.0,1.5879,1.2506,0.2869,-0.7049,-1.8437,-3.2205,-3.577,-3.7054,-3.6908,-3.7339,-3.7507,-3.7225,-3.6887,-3.6668,-3.6609,-3.6454,0.0,0.0,0.0,-3.5587,-3.4568,-3.4429,-3.3938,-3.3149,-3.2962,-3.2829,-3.2707,-3.2541,-3.2456,-3.2422,-3.2249,-3.2144,-3.2144,-3.2073,-3.209,-3.2108,-3.2404,-3.2573,-3.2606,-3.277,-3.2993,-3.325,-3.3734,0.0,0.0,-3.6112,-3.6869,-3.7444,-3.8281,-3.9006,-3.3973,-0.7164,-0.0193,0.5292,3.1754,3.8216,3.7667,3.7206,3.6655,3.6174,3.5667,3.5008,3.4218,3.3355,3.2281,3.0984,2.9303,2.7246,2.4944,2.236,1.9077,1.567,1.1982,0.7986,0.4446,0.1561,-0.1637,0.0,-0.5767,-0.7621,-0.9377,-1.1037,-1.2792,-1.495,-1.7628,-1.9044,-2.0291,-2.1388,-2.2652,-2.3669,-2.4509,-2.5728,-2.6602,-2.7122,-2.7936,-2.9104,0.0,0.0,0.0,0.0,0.0,0.0,0.0,0.0,0.0,0.0,0.0,0.0,0.0,0.0,0.0,2.6557,2.6584,2.3307,1.345,1.0464,0.1279,-2.0365,-3.1734,-3.7734,-3.7544,-3.7328,-3.7036,-3.6608,-3.6205,-3.6206,-3.6739,-3.6667,-3.6588,-3.6507,-3.6458,-3.5962,-3.497,-3.4834,-3.4358,-3.351,-3.3424,0.0,-3.2318,-3.2214,-3.2144,-3.2002,-3.1929,-3.1873,-3.1873,-3.1856,-3.1873,-3.1873,-3.2108,-3.2301,-3.2457,-3.2606,-3.2848,-3.319,-3.3734,-3.4641,-3.5679,-3.637,-3.7714,-3.9121,-3.9313,-3.9877,0.0,-0.7944,-0.0584,0.5297,3.1796,3.8231,3.7667,3.7206,3.6597,3.6028,3.556,3.4866,3.4134,3.3335,3.2296,3.097,2.94,2.7512,2.5308,2.253,1.9392,1.5982,1.222,0.8634,0.5162,0.1873,-0.1013,-0.3509,-0.5452,-0.7689,-0.9528,-1.1037,-1.3723,-1.6088,-1.7901,-1.911,-2.0344,-2.1565,-2.2713,-2.3669,-2.4509,-2.5728,-2.6602,-2.7137,-2.8505,-2.9588,0.0,0.0,0.0,0.0,0.0,0.0,0.0,0.0,0.0,0.0,0.0,2.6493,2.6278,0.0,2.7892,2.8547,2.9106,2.787,2.32,1.7438,0.543,-1.6908,-2.5105,-3.1223,-3.6988,-3.7492,-3.7193,-3.6598,-3.6218,-3.6203,-3.6628,-3.6573,-3.6516,-3.6606,-3.6549,-3.6141,-3.5273,-3.5159,-3.4679,-3.3855,-3.3723,-3.3419,-3.3017,-3.2865,-3.2582,-3.2128,-3.2085,-3.1842,-3.15,-3.15,-3.15,-3.15,-3.1596,-3.1856,-3.2179,-3.2353,-3.2621,-3.3073,-3.4025,-3.4946,-3.5977,-3.7302,-3.8566,-3.9637,-4.0117,-4.0455,-3.5094,-0.8206,-0.0722,0.5292,3.1735,3.8183,3.7613,3.7091,3.6492,3.5898,3.5316,3.4658,3.3933,3.3071,3.2018,3.0733,2.9101,2.7313,2.5168,2.2615,1.9649,1.6316,1.2586,0.9034,0.55,0.2226,-0.0785,-0.3352,-0.5532,-0.8595,-1.095,-1.2358,-1.4601,-1.6515,-1.7969,-1.9243,-2.0473,-2.1553,-2.2834,-2.38,-2.4509,-2.5728,-2.6775,-2.7705,-2.9194,-3.0211,0.0,0.0,0.0,0.0,0.0,0.0,0.0,2.4997,2.5623,2.5298,2.6067,2.6754,2.6441,2.6872,2.7352,2.767,2.8258,2.8897,2.9388,2.0863,0.731,-1.217,-1.7501,-2.3495,-3.3508,-3.5732,-3.6397,-3.6,-3.5786,-3.5779,-3.601,-3.5985,-3.6061,-3.6256,-3.6298,-3.6022,-3.5359,-3.5335,-3.4891,-3.4112,-3.3949,-3.3758,-3.3622,-3.3456,-3.3051,-3.2476,-3.2251,-3.1847,-3.1274,-3.1122,-3.1055,-3.1055,-3.1055,-3.1312,-3.1731,-3.202,-3.2474,-3.3116,-3.4329,-3.5346,-3.6412,-3.8268,-3.9257,-3.9866,-4.0641,-4.0817,-3.513,-0.8259,-0.0764,0.5235,3.1647,3.805,3.7468,3.6856,3.6241,3.5633,3.5038,3.4366,3.361,3.2641,3.1549,3.0286,2.8607,2.6777,2.4803,2.2467,1.9656,1.642,1.2719,0.9114,0.5682,0.2346,-0.0711,-0.3583,-0.6304,-0.9653,-1.2291,-1.376,-1.5188,-1.6585,-1.7969,-1.9299,-2.0537,-2.1553,-2.2895,-2.3859,-2.4509,-2.5728,-2.6876,-2.8015,-2.9635,-3.0752,2.603,2.6211,2.6547,2.6929,2.6928,2.6723,0.0,2.6369,2.6262,2.5802,2.6213,2.6474,2.5973,2.6585,2.7075,2.6748,2.6847,2.7014,2.725,2.5548,1.8814,0.4055,-0.9949,-1.9904,-2.3711,-2.8923,-3.2466,-3.3259,-3.3648,-3.3958,-3.4282,-3.4651,-3.4935,-3.509,-3.5335,-3.5363,-3.5222,-3.5329,-3.4947,-3.4108,-3.4063,-3.3728,-3.3064,-3.2944,-3.285,-3.2734,-3.1971,-3.1629,-3.1497,-3.0833,-3.0568,-3.0568,-3.0568,-3.0699,-3.1004,-3.1617,-3.2545,-3.3597,-3.4308,-3.5844,-3.7685,-3.8478,-3.9514,-4.0518,-4.0745,-4.0801,-3.5185,-0.8258,-0.0836,0.5102,3.1565,3.7911,3.7264,3.6533,3.581,3.5131,3.4529,3.3697,3.2879,3.1962,3.0911,2.9538,2.7854,2.5977,2.4066,2.1987,1.9178,1.5928,1.2222,0.8786,0.5355,0.2104,-0.079,-0.4274,-0.8523,-1.0421,-1.2218,-1.3977,-1.5108,-1.6437,-1.7969,-1.9177,-2.0409,-2.1553,-2.2761,-2.3741,-2.4509,-2.5728,-2.6645,-2.7255,-2.9407,-3.1016,2.6383,2.6516,2.6593,2.6694,2.6539,2.6317,2.6062,2.6136,2.6156,2.5737,2.5807,2.5926,2.5632,2.5597,2.5601,2.5517,2.5333,2.5081,2.4667,2.3827,2.035,1.2378,0.1342,-0.9826,-2.0649,-2.5371,-2.8297,-2.9711,-3.0552,-3.1399,-3.2238,-3.2729,-3.3212,-3.3705,-3.3939,-3.417,-3.4382,-3.4431,-3.4348,-3.4037,-3.4022,-3.3826,-3.35,-3.3388,-3.3144,-3.2767,-3.2004,-3.1694,-3.172,-3.1018,-3.0724,-3.0691,-3.025,-3.0241,-3.0535,-3.1179,-3.2176,-3.3386,-3.4456,-3.5999,-3.7627,-3.8738,-3.9695,-4.0463,-4.0677,-4.0748,-3.5151,-0.8302,-0.0901,0.4997,3.1325,3.7578,3.6786,3.5916,3.5157,3.4399,3.3547,3.281,3.2043,3.0896,2.9846,2.8566,2.6899,2.5015,2.2974,2.0708,1.825,1.5442,1.2105,0.8619,0.4592,-0.0243,-0.3002,-0.5752,-0.8841,-1.0657,-1.2218,-1.3833,-1.5188,-1.6446,-1.7765,-1.91,-2.0355,-2.1439,-2.2713,-2.3669,-2.4509,-2.5646,-2.6712,-2.7674,-2.935,-3.084,2.6514,2.6549,2.6459,2.6426,2.6236,2.5998,2.5722,2.5842,2.5856,2.5388,2.53,2.5206,2.4945,2.454,2.4171,2.413,2.3642,2.2965,2.1999,2.0691,1.8431,1.4792,0.7934,-0.1762,-1.52,-2.0406,-2.3771,-2.5914,-2.7351,-2.8608,-2.9814,-3.0646,-3.1342,-3.2048,-3.2423,-3.2763,-3.3119,-3.3255,-3.3375,-3.3495,-3.3491,-3.3523,-3.3523,-3.3471,-3.3185,-3.2761,-3.2059,-3.1805,-3.1839,-3.1166,-3.0924,-3.0876,-3.036,-3.0303,-3.0559,-3.1073,-3.2053,-3.3304,-3.4654,-3.6055,-3.7453,-3.8774,-3.9591,-4.0173,-4.0485,-4.0644,-3.5127,-0.8365,-0.1081,0.471,3.0939,3.7011,3.6019,3.5027,3.4235,3.3395,3.2439,3.1717,3.0911,2.9723,2.8566,2.722,2.5587,2.38,2.1717,1.9173,1.6823,1.4351,1.1577,0.7532,0.2956,-0.1947,-0.453,-0.6736,-0.8851,-1.0582,-1.2218,-1.3608,-1.5046,-1.6385,-1.756,-1.89,-2.0161,-2.1325,-2.2531,-2.3564,-2.4408,-2.5481,-2.6608,-2.7662,-2.929,-3.0538,2.6363,2.6494,2.6545,2.6799,2.6753,2.6558,2.6172,2.5863,2.5425,2.4881,2.4616,2.4346,2.3692,2.3568,2.3293,2.2528,2.1723,2.0631,1.9146,1.7113,1.4372,1.0745,0.6267,0.13,-0.4142,-1.2463,-1.8751,-2.1934,-2.4178,-2.5884,-2.705,-2.8429,-2.9425,-2.9958,-3.0749,-3.1245,-3.1489,-3.1901,-3.2139,-3.2139,-3.2367,-3.2492,-3.2641,-3.2803,-3.2841,-3.2779,-3.207,-3.1789,-3.1727,-3.1127,-3.088,-3.093,-3.0998,-3.1146,-3.1308,-3.1598,-3.2418,-3.3549,-3.4806,-3.6148,-3.7524,-3.8376,-3.9095,-3.9719,-4.0178,-4.0486,-3.5156,-0.8483,-0.1417,0.4154,3.0354,3.6214,3.4948,3.3806,3.2945,3.2109,3.1144,3.0257,2.9324,2.8451,2.7033,2.553,2.3822,2.2104,2.0033,1.7438,1.4788,1.2439,1.0474,0.5038,0.034,-0.2194,-0.4593,-0.6849,-0.8861,-1.0507,-1.1996,-1.339,-1.4752,-1.6088,-1.7335,-1.8623,-1.989,-2.106,-2.231,-2.328,-2.4131,-2.5328,-2.6218,-2.6794,-2.8959,-3.0173,2.6329,2.6298,2.6199,2.6254,2.5974,2.5591,2.5245,2.4768,2.4253,2.3728,2.3379,2.3031,2.2538,2.2095,2.1554,2.0833,1.9733,1.8391,1.67,1.4691,1.2228,0.8974,0.5192,0.1145,-0.3084,-0.9338,-1.4636,-1.8267,-2.0853,-2.2999,-2.472,-2.612,-2.7314,-2.8424,-2.9073,-2.9648,-3.0151,-3.0526,-3.0749,-3.0852,-3.1145,-3.1407,-3.1522,-3.1709,-3.1864,-3.1905,-3.182,-3.1769,-3.1833,-3.1144,-3.0922,-3.0876,-3.0535,-3.0521,-3.0721,-3.1393,-3.204,-3.2818,-3.4112,-3.5442,-3.6755,-3.7542,-3.8273,-3.8977,-3.9658,-4.0081,-3.4897,-0.8647,-0.1857,0.3441,2.9211,3.4789,3.3377,3.2121,3.114,3.0216,2.9296,2.8383,2.7393,2.6425,2.5097,2.3666,2.2211,2.0343,1.7709,1.3767,1.1673,0.9803,0.7819,0.3847,0.0172,-0.2457,-0.4603,-0.6586,-0.859,-1.0144,-1.162,-1.3018,-1.4386,-1.5675,-1.7001,-1.8287,-1.9552,-2.0719,-2.1928,-2.31,-2.4131,-2.4991,-2.577,-2.6486,-2.8532,-2.9642,2.592,2.5825,2.5729,2.5439,2.516,2.4765,2.4337,2.38,2.3195,2.2665,2.2194,2.1797,2.1407,2.0648,1.9905,1.9191,1.7865,1.6226,1.4504,1.2451,1.0125,0.7351,0.4168,0.0799,-0.2662,-0.7031,-1.1335,-1.5218,-1.8065,-2.0448,-2.2275,-2.3838,-2.5296,-2.6587,-2.7272,-2.7959,-2.8684,-2.9066,-2.9442,-2.969,-3.0147,-3.0418,-3.0539,-3.0732,-3.097,-3.1087,-3.1146,-3.1321,-3.1392,-3.1016,-3.0836,-3.0848,-3.0554,-3.0498,-3.0706,-3.1326,-3.179,-3.2275,-3.3534,-3.4705,-3.5761,-3.6446,-3.7184,-3.7917,-3.8677,-3.9372,-3.4563,-0.8978,-0.2698,0.2141,2.7391,3.2697,3.1159,2.9937,2.8955,2.8045,2.7115,2.6158,2.5177,2.4232,2.2911,2.1566,2.0217,1.7806,1.4849,1.1091,0.9113,0.7643,0.6444,0.309,-0.0262,-0.312,-0.4888,-0.6569,-0.8304,-0.9885,-1.1277,-1.2586,-1.3962,-1.5321,-1.6655,-1.7881,-1.9156,-2.0409,-2.1616,-2.2725,-2.3754,-2.465,-2.5384,-2.6111,-2.8097,-2.9208,2.5174,2.5174,2.5048,2.458,2.435,2.406,2.3471,2.2907,2.2347,2.1678,2.1102,2.0665,2.0307,1.9358,1.841,1.7679,1.6085,1.4253,1.2492,1.0423,0.8249,0.5971,0.3123,0.0357,-0.2232,-0.5257,-0.8773,-1.282,-1.5793,-1.8152,-1.9896,-2.1728,-2.3323,-2.4517,-2.5496,-2.6364,-2.7095,-2.767,-2.8195,-2.8739,-2.9247,-2.9498,-2.956,-2.987,-3.0129,-3.0266,-3.0266,-3.0387,-3.0568,-3.0673,-3.0718,-3.0777,-3.0911,-3.1029,-3.1219,-3.1379,-3.1595,-3.1977,-3.3061,-3.3871,-3.4607,-3.5132,-3.5771,-3.6485,-3.7272,-3.8133,-3.3773,-0.9467,-0.3796,0.0553,2.4727,2.9812,2.8315,2.7223,2.6287,2.5444,2.4554,2.3632,2.2689,2.1868,2.0554,1.9085,1.784,1.4552,1.1461,0.9383,0.7369,0.6065,0.6186,0.2592,-0.1154,-0.4004,-0.537,-0.6706,-0.8196,-0.9645,-1.1006,-1.2264,-1.355,-1.4903,-1.6237,-1.7482,-1.8777,-2.0074,-2.1285,-2.2297,-2.3175,-2.4268,-2.5157,-2.58,-2.7767,-2.8864,2.4421,2.4465,2.4408,2.3969,2.3616,2.3233,2.2604,2.1928,2.1302,2.0602,2.0135,1.9643,1.916,1.8233,1.7229,1.6382,1.4685,1.3002,1.1558,0.9479,0.7654,0.6254,0.3166,0.0091,-0.2376,-0.5172,-0.7989,-1.0724,-1.3703,-1.6219,-1.8106,-1.9915,-2.1476,-2.284,-2.3868,-2.4743,-2.5569,-2.6539,-2.7297,-2.7815,-2.8208,-2.8481,-2.8675,-2.898,-2.9261,-2.9401,-2.9498,-2.9699,-2.9851,-2.9898,-2.9898,-2.9898,-3.0054,-3.0115,-3.0176,-3.0358,-3.0539,-3.0777,-3.1028,-3.2053,-3.3224,-3.354,-3.3925,-3.4392,-3.4626,-3.377,-2.874,-0.988,-0.35,0.1912,2.0542,2.492,2.4388,2.3764,2.305,2.2296,2.1805,2.0897,2.0004,1.9243,1.7307,1.5277,1.3975,1.169,0.947,0.7906,0.6419,0.5006,0.3935,0.143,-0.1428,-0.4358,-0.5507,-0.6705,-0.8317,-0.9582,-1.0855,-1.2322,-1.3374,-1.4545,-1.5895,-1.7148,-1.8592,-2.0229,-2.1359,-2.265,-2.4165,-2.4921,-2.5707,-2.6453,-2.7911,-2.8883,2.3897,2.3897,2.3793,2.339,2.2944,2.2494,2.1803,2.1112,2.0484,1.9781,1.9106,1.8447,1.7951,1.6927,1.5897,1.5027,1.3529,1.1912,1.0443,0.8436,0.6799,0.5711,0.2654,-0.0185,-0.2427,-0.5083,-0.7466,-0.9621,-1.2532,-1.507,-1.7043,-1.8871,-2.0419,-2.1716,-2.2799,-2.375,-2.4719,-2.5721,-2.6427,-2.6947,-2.7364,-2.7643,-2.7842,-2.8222,-2.843,-2.8638,-2.8803,-2.9008,-2.9162,-2.9162,-2.9162,-2.9162,-2.9261,-2.9324,-2.9373,-2.9498,-2.9637,-2.9761,-2.9685,-3.0151,-3.0954,-3.1667,-3.1934,-3.199,-3.1669,-3.0462,-2.6023,-1.0929,-0.4908,0.0734,1.6786,2.0444,1.9934,1.986,1.9397,1.8994,1.8716,1.794,1.7065,1.6032,1.4302,1.2553,1.1193,0.947,0.7906,0.6868,0.5181,0.3489,0.2058,0.0358,-0.1789,-0.4661,-0.575,-0.6807,-0.8369,-0.9577,-1.0845,-1.2388,-1.3369,-1.4626,-1.6113,-1.7341,-1.8723,-2.0306,-2.1463,-2.2753,-2.4132,-2.4975,-2.5798,-2.6553,-2.7748,-2.8587,2.3509,2.339,2.321,2.2909,2.2384,2.1865,2.1187,2.0484,1.9846,1.9131,1.8104,1.719,1.683,1.5681,1.4558,1.3878,1.2487,1.0945,0.9318,0.7492,0.5955,0.4979,0.2133,-0.0562,-0.2762,-0.5056,-0.7247,-0.9235,-1.1994,-1.4424,-1.633,-1.8251,-1.9808,-2.1089,-2.2155,-2.3253,-2.438,-2.5135,-2.5676,-2.6094,-2.6633,-2.6985,-2.7201,-2.7523,-2.7776,-2.7908,-2.8105,-2.8314,-2.8457,-2.8457,-2.8522,-2.8522,-2.8522,-2.8573,-2.8675,-2.8675,-2.8753,-2.883,-2.861,-2.8376,-2.84,-2.9619,-2.9779,-2.9365,-2.8483,-2.7339,-2.3871,-1.1936,-0.6703,-0.1399,1.2696,1.5782,1.5301,1.5635,1.5687,1.5487,1.5457,1.4878,1.3968,1.2577,1.1472,1.0433,0.9126,0.7822,0.6688,0.5899,0.3757,0.1792,0.0448,-0.0627,-0.2237,-0.4842,-0.5902,-0.6994,-0.841,-0.9564,-1.088,-1.2443,-1.3574,-1.4879,-1.6522,-1.7803,-1.9078,-2.0442,-2.1695,-2.2845,-2.3874,-2.4866,-2.5703,-2.641,-2.7417,-2.8222,2.303,2.2896,2.2653,2.2371,2.1913,2.1388,2.0816,2.0183,0.0,1.8607,1.7628,1.6842,1.6242,1.5024,1.3817,1.3183,1.175,1.0259,0.8782,0.7234,0.5874,0.5083,0.2187,-0.0971,-0.4096,-0.5623,-0.7248,-0.9413,-1.1636,-1.3737,-1.5644,-1.7375,-1.9332,-2.1811,-2.2577,-2.336,-2.4284,-2.4542,-2.4981,-2.5453,-2.5886,-2.6233,-2.6564,-2.6782,-2.7053,-2.7403,-2.7469,-2.7536,-2.7723,-2.7855,-2.7921,-2.7987,-2.8145,-2.8131,-2.7973,-2.7973,-2.7776,-2.7497,-2.7364,-2.6934,-2.6637,-2.7644,-2.7578,-2.6824,-2.5261,-2.2477,-1.8375,-1.1196,-0.6147,-0.1114,0.6383,0.9648,1.1075,1.1691,1.1985,1.219,1.2366,1.1685,1.093,1.0265,0.9222,0.8177,0.739,0.6517,0.5366,0.3753,0.2058,0.0538,-0.0895,-0.1791,-0.2776,-0.43,-0.5808,-0.7295,-0.8669,-0.9644,-1.0955,-1.2732,-1.3784,-1.4964,-1.6286,-1.7859,-1.936,-2.0759,-2.1995,-2.3183,-2.4519,-2.5395,-2.6151,-2.6878,-2.7643,-2.8346,2.28,2.2604,2.2297,2.2049,2.1474,2.0828,2.0248,0.0,0.0,1.7988,1.7088,1.6237,1.5402,1.4342,1.3334,1.2426,1.1128,0.9781,0.8519,0.6898,0.5552,0.4782,0.2021,-0.1179,-0.4476,-0.5802,-0.7316,-0.941,-1.1365,-1.3391,-1.5391,-1.7652,-1.9756,-2.1842,-2.2412,-2.3024,-2.3645,-2.4108,-2.4588,-2.5004,-2.5382,-2.5746,-2.6164,-2.6427,-2.6645,-2.685,-2.7066,-2.7214,-2.7268,-2.7335,-2.7403,-2.7403,-2.7482,-2.7482,-2.7403,-2.7255,-2.704,-2.6756,-2.6427,-2.5861,-2.5334,-2.5192,-2.4932,-2.4389,-2.2466,-1.962,-1.6124,-1.1804,-0.725,-0.2711,0.1848,0.4671,0.6699,0.7755,0.8653,0.9374,0.9456,0.9113,0.8686,0.8082,0.7207,0.6422,0.6074,0.4739,0.3312,0.1969,0.0627,-0.0807,-0.2418,-0.3223,-0.4026,-0.4919,-0.6163,-0.7577,-0.9157,-1.0196,-1.1494,-1.3021,-1.4281,-1.5481,-1.6839,-1.8321,-1.9792,-2.0994,-2.2347,-2.348,-2.4576,-2.5465,-2.6314,-2.704,-2.7643,-2.8235,2.2567,2.2383,2.1999,2.1663,2.1083,2.0388,1.9736,1.9054,1.8307,1.751,1.6682,1.5771,1.4752,1.3815,1.2919,1.1854,1.0685,0.9475,0.8253,0.6629,0.5296,0.4559,0.1839,-0.1184,-0.4331,-0.5632,-0.7117,-0.9308,-1.1556,-1.3686,-1.5805,-1.8336,-2.0342,-2.1767,-2.2301,-2.2808,-2.3313,-2.3996,-2.4578,-2.4915,-2.517,-2.5563,-2.5942,-2.6144,-2.6289,-2.6289,-2.6658,-2.682,-2.6807,-2.6875,-2.6943,-2.6875,-2.6943,-2.6875,-2.6807,-2.6589,-2.6358,-2.607,-2.5535,-2.4957,-2.4204,-2.3095,-2.2765,-2.2339,-2.0275,-1.778,-1.5083,-1.2275,-0.8632,-0.4782,-0.16,0.0801,0.2847,0.4448,0.5871,0.6851,0.6851,0.6763,0.659,0.6154,0.5536,0.4917,0.4561,0.2953,0.1433,0.0448,-0.0807,-0.2241,-0.3676,-0.4476,-0.5184,-0.5985,-0.6786,-0.7933,-0.9515,-1.0636,-1.1923,-1.347,-1.4727,-1.6049,-1.744,-1.8877,-2.0148,-2.1165,-2.2531,-2.3655,-2.4455,-2.5324,-2.6164,-2.6905,-2.7443,-2.8052,2.2259,2.2011,2.1698,2.136,2.085,2.027,1.9747,0.0,1.824,1.7373,1.6621,1.5771,1.4553,1.3572,0.0,0.0,0.0,0.9322,0.8051,0.6622,0.5475,0.4559,0.2032,-0.0888,-0.3823,-0.5029,-0.6517,-0.8707,-1.2318,-1.5317,-1.7404,-1.9231,-2.0764,-2.2003,-2.2732,-2.3421,-2.4288,-2.4494,-2.4959,-2.5643,-2.5534,-2.568,-2.6057,-2.5766,-2.5746,-2.598,-2.6201,-2.6283,-2.627,-2.6589,-2.6645,-2.6496,-2.6645,-2.6508,-2.6233,-2.6037,-2.5746,-2.5312,-2.4766,-2.4116,-2.3287,-2.2209,-2.1659,-2.0931,-1.8815,-1.6627,-1.4232,-1.1519,-0.9122,-0.677,-0.4011,-0.1694,0.0446,0.2858,0.402,0.4554,0.4554,0.4378,0.4383,0.4837,0.4391,0.3585,0.2417,0.1433,0.0448,-0.0718,-0.242,-0.3765,-0.421,-0.5008,-0.6074,-0.7224,-0.7584,-0.8285,-0.9772,-1.0722,-1.2095,-1.3886,-1.5047,-1.6281,-1.761,-1.9116,-2.0294,-2.1165,-2.2381,-2.3446,-2.4261,-2.4969,-2.5721,-2.6483,-2.7175,-2.7776,2.2061,2.18,2.1411,2.1094,2.0582,1.9944,1.9407,0.0,1.7988,1.7176,1.6403,1.5551,1.441,1.3477,1.2506,0.0,0.0,0.917,0.783,0.6463,0.5176,0.3991,0.176,-0.0699,-0.3222,-0.4826,-0.6913,-1.028,-1.3102,-1.5514,-1.7397,-1.898,-2.0447,-2.1811,-2.2708,-2.3438,-2.4013,-2.4632,-2.5114,-2.5549,-2.5791,-2.6151,-2.6363,-2.6191,-2.6164,-2.6223,-2.6045,-2.598,-2.605,-2.6176,-2.6176,-2.6107,-2.6176,-2.6037,-2.5816,-2.5606,-2.5253,-2.4766,-2.4189,-2.3486,-2.2807,-2.1703,-2.0915,-2.0007,-1.8382,-1.6476,-1.448,-1.2297,-1.0201,-0.8065,-0.5899,-0.3151,-0.0626,0.1074,0.2238,0.2955,0.3132,0.2773,0.2505,0.2688,0.224,0.1524,0.0896,-0.009,-0.1256,-0.2511,-0.3496,-0.4389,-0.5008,-0.5985,-0.6959,-0.8017,-0.8281,-0.8982,-1.0202,-1.1413,-1.2693,-1.4055,-1.5387,-1.6624,-1.7844,-1.9186,-2.0382,-2.1339,-2.2553,-2.3593,-2.4394,-2.5099,-2.5873,-2.6577,-2.7188,-2.7776,2.1874,2.1612,2.1273,2.0903,2.0388,1.9694,1.9031,0.0,1.7572,1.6705,1.6085,1.5242,1.4119,1.3339,1.2425,0.0,1.0183,0.916,0.7807,0.6472,0.5094,0.361,0.1763,-0.0401,-0.282,-0.5024,-0.7707,-1.1268,-1.3397,-1.5412,-1.7203,-1.8696,-2.0175,-2.1642,-2.2608,-2.3421,-2.3959,-2.4783,-2.544,-2.5758,-2.6135,-2.6452,-2.6759,-2.6524,-2.6493,-2.6554,-2.6151,-2.6073,-2.6061,-2.5972,-2.5828,-2.5828,-2.5758,-2.5618,-2.5419,-2.529,-2.4917,-2.4441,-2.391,-2.3339,-2.2587,-2.1519,-2.0495,-1.9358,-1.8165,-1.6579,-1.473,-1.296,-1.0711,-0.85,-0.6533,-0.4006,-0.1713,-0.0539,0.0448,0.1166,0.1433,0.1164,0.0806,0.0717,0.0269,-0.0269,-0.0896,-0.1883,-0.2869,-0.3942,-0.4476,-0.5008,-0.5985,-0.6871,-0.7757,-0.8719,-0.9157,-0.985,-1.0809,-1.21,-1.3215,-1.4314,-1.5718,-1.6952,-1.8006,-1.9274,-2.0459,-2.1568,-2.2703,-2.3728,-2.4587,-2.5312,-2.6094,-2.6782,-2.7323,-2.7973,2.1761,2.1434,2.1094,2.0797,2.027,1.9619,1.8624,1.7865,1.7096,1.5974,1.5424,1.4873,1.3754,1.3186,1.2492,1.1261,1.0379,0.9299,0.796,0.6898,0.5478,0.37,0.2033,0.0099,-0.2417,-0.5924,-0.8909,-1.1072,-1.3108,-1.5216,-1.7196,-1.8696,-2.0175,-2.1642,-2.2608,-2.356,-2.4488,-2.5179,-2.5863,-2.6622,-2.6428,-2.6676,-2.7093,-2.6783,-2.6685,-2.6899,-2.6566,-2.6396,-2.636,-2.6049,-2.5758,-2.5606,-2.5382,-2.5241,-2.5111,-2.4985,-2.4796,-2.4562,-2.42,-2.3566,-2.2666,-2.1724,-2.0391,-1.8955,-1.8055,-1.6587,-1.4923,-1.2927,-1.026,-0.7633,-0.5736,-0.433,-0.3029,-0.1983,-0.1345,-0.0897,-0.0718,-0.0538,-0.0538,-0.0897,-0.1166,-0.1793,-0.3048,-0.3857,-0.4395,-0.465,-0.5275,-0.5985,-0.6962,-0.776,-0.8552,-0.9515,-1.0202,-1.0895,-1.1671,-1.2534,-1.3639,-1.4999,-1.6139,-1.7188,-1.8256,-1.9529,-2.0702,-2.1766,-2.2767,-2.379,-2.4707,-2.5523,-2.6314,-2.704,-2.7577,-2.8352,2.1113,2.0838,2.0483,2.0515,1.9824,1.9019,1.8433,1.757,1.6751,1.6215,1.561,1.494,1.4064,1.3331,1.2499,1.1343,1.0439,0.9417,0.8231,0.7008,0.5657,0.3992,0.1272,-0.1301,-0.3624,-0.6221,-0.8605,-1.0779,-1.3011,-1.5216,-1.7196,-1.8696,-2.0175,-2.1642,-2.2608,-2.356,-2.4498,-2.5189,-2.5874,-2.6633,-2.6873,-2.7117,-2.7358,-2.7226,-2.7145,-2.7198,-2.6911,-2.6745,-2.6733,-2.665,-2.6577,-2.6504,-2.627,-2.611,-2.591,-2.5558,-2.5145,-2.4615,-2.4083,-2.3289,-2.2369,-2.141,-2.0385,-1.9224,-1.8049,-1.6747,-1.5041,-1.2636,-1.0481,-0.8547,-0.6795,-0.5398,-0.4145,-0.3389,-0.2716,-0.224,-0.1881,-0.2151,-0.251,-0.2869,-0.2869,-0.3138,-0.3851,-0.4389,-0.501,-0.5536,-0.6251,-0.6959,-0.7929,-0.8723,-0.951,-1.0463,-1.1154,-1.1757,-1.2106,-1.3124,-1.4223,-1.5409,-1.6558,-1.77,-1.8895,-1.9923,-2.1011,-2.2166,-2.3224,-2.4093,-2.4933,-2.5734,-2.6633,-2.7709,-2.8222,-2.8867,0.0,2.0234,1.9828,1.9905,1.9302,0.0,1.7926,1.7219,1.6538,1.5956,1.5486,1.494,1.4112,1.3397,1.2587,1.16,1.0525,0.9422,0.8422,0.7238,0.5731,0.3788,0.0794,-0.1813,-0.3924,-0.6121,-0.8407,-1.0583,-1.2909,-1.5026,-1.7016,-1.8603,-2.0167,-2.1544,-2.2608,-2.3484,-2.4348,-2.502,-2.5706,-2.6313,-2.6787,-2.7115,-2.7418,-2.7425,-2.7534,-2.7668,-2.7299,-2.7148,0.0,-2.7007,-2.6935,-2.686,-2.6621,-2.6382,-2.6165,-2.5844,-2.5273,-2.4647,-2.4101,-2.3355,-2.239,-2.1328,-2.0061,-1.8619,-1.7412,-1.6053,-1.459,-1.2522,-1.089,-0.9401,-0.7798,-0.6464,-0.5354,-0.4539,-0.3841,-0.3345,-0.3139,-0.3314,-0.3673,-0.4032,-0.4121,-0.43,-0.4919,-0.5361,-0.5894,-0.6602,-0.7309,-0.8105,-0.8894,-0.9593,-1.0376,-1.1241,-1.1929,-1.2528,-1.3124,-1.3886,-1.481,-1.5899,-1.7049,-1.8175,-1.9371,-2.0313,-2.1328,-2.2478,-2.3457,-2.4322,-2.5087,-2.6139,-2.7175,-2.8091,-2.8739,-2.9261,0.0,1.9679,1.9301,1.9239,1.8665,1.797,1.728,0.0,0.0,1.5293,1.5177,1.4942,1.3994,1.3359,1.2675,1.1903,1.0719,0.9576,0.8686,0.7411,0.56,0.3112,0.0706,-0.1611,-0.3623,-0.5922,-0.8209,-1.0583,-1.2716,-1.4734,-1.6741,-1.8511,-2.0076,-2.1356,-2.2511,-2.3406,-2.4206,-2.4861,-2.5464,-2.5906,-2.6396,-2.6798,-2.7185,-2.7429,-2.7765,-2.8155,-2.7668,-2.7532,-2.7741,-2.7248,-2.7043,-2.6968,-2.6564,-2.6258,-2.6074,-2.5939,-2.5392,-2.4802,-2.4364,-2.356,-2.253,-2.1266,-1.943,-1.7412,-1.6197,-1.4962,-1.3715,-1.2759,-1.1487,-1.0173,-0.8735,-0.7617,-0.6579,-0.5609,-0.4816,-0.4326,-0.4418,-0.4216,-0.4212,-0.4739,-0.5008,-0.5364,-0.6071,-0.6602,-0.7136,-0.7848,-0.8548,-0.924,-0.9941,-1.0376,-1.1068,-1.2015,-1.2528,-1.3209,-1.4398,-1.465,-1.5235,-1.6394,-1.744,-1.8559,-1.9599,-2.0722,-2.1731,-2.2777,-2.3593,-2.4539,-2.5441,-2.6824,-2.7776,-2.8352,-2.898,-2.9498,1.9095,0.0,1.8814,1.891,1.8284,1.7592,0.0,0.0,0.0,0.0,0.0,1.5026,1.4316,1.377,1.3141,1.2178,1.1263,1.0299,0.9411,0.6989,0.4997,0.382,0.1209,-0.1612,-0.4336,-0.5927,-0.7809,-0.9993,-1.2334,-1.4459,-1.6452,-1.8319,-1.9886,-2.1356,-2.2511,-2.3406,-2.4206,-2.4861,-2.5464,-2.5906,-2.6396,-2.6727,-2.6962,-2.736,-2.7696,-2.795,-2.7968,-2.816,-2.8318,-2.8186,-2.8138,-2.8059,-2.7676,-2.7345,-2.7093,-2.6583,-2.5887,-2.5051,-2.4382,-2.3377,-2.1971,-1.9994,-1.8442,-1.7225,-1.6386,-1.5242,-1.4004,-1.2953,-1.1883,-1.0788,-0.9559,-0.8477,-0.7504,-0.6762,-0.62,-0.5637,-0.5522,-0.5673,-0.5825,-0.6002,-0.634,-0.6782,-0.7316,-0.7753,-0.8281,-0.8907,-0.951,-1.0202,-1.0895,-1.1413,-1.2015,-1.296,-1.347,-1.4139,-1.5061,-1.5318,-1.5982,-1.7057,-1.8184,-1.9213,-2.0226,-2.1328,-2.2327,-2.3372,-2.4754,-2.5816,-2.662,-2.743,-2.8157,-2.8675,-2.9261,-2.9761,1.8939,1.8717,1.8509,1.8382,1.7999,1.7552,1.7276,0.0,0.0,0.0,0.0,1.5513,1.4945,1.4201,1.3495,1.2753,1.1727,1.0467,0.8902,0.693,0.5121,0.382,0.1612,-0.1007,-0.3831,-0.5427,-0.7211,-0.9596,-1.1843,-1.4064,-1.6271,-1.8041,-1.9704,-2.1177,-2.2255,-2.3144,-2.4024,-2.4775,-2.5285,-2.5549,-2.6302,-2.6644,-2.6809,-2.7278,-2.7615,-2.7893,-2.8111,-2.8339,-2.851,-2.851,-2.851,-2.8431,-2.8042,-2.7708,-2.7441,-2.6798,-2.6041,-2.5189,-2.4327,-2.2843,-2.0997,-1.9371,-1.8172,-1.7333,-1.6473,-1.5527,-1.4484,-1.3426,-1.2365,-1.1389,-1.0404,-0.9343,-0.838,-0.7918,-0.7363,-0.6893,-0.6755,-0.6907,-0.7161,-0.7269,-0.7706,-0.8253,-0.8709,-0.9246,-0.9871,-1.0329,-1.1043,-1.1744,-1.2445,-1.2784,-1.3318,-1.4097,-1.4565,-1.5144,-1.5899,-1.646,-1.7033,-1.7789,-1.8745,-1.9775,-2.0799,-2.1711,-2.2841,-2.4082,-2.5324,-2.6233,-2.6973,-2.7696,-2.8287,-2.8944,-2.9526,-3.0021,1.9064,1.8786,1.8379,1.7967,1.7785,1.7648,1.7332,0.0,0.0,0.0,0.0,0.0,1.5536,1.4697,1.3959,1.3378,1.2076,1.0399,0.8324,0.7049,0.5628,0.3718,0.1914,-0.0101,-0.282,-0.4524,-0.6614,-0.9193,-1.1341,-1.3578,-1.59,-1.7669,-1.9338,-2.0817,-2.19,-2.2872,-2.3754,-2.469,-2.52,-2.52,-2.6135,-2.6644,-2.6633,-2.7196,-2.7615,-2.7893,-2.8111,-2.8339,-2.851,-2.851,-2.851,-2.8431,-2.8042,-2.7708,-2.7441,-2.6798,-2.6124,-2.5274,-2.4059,-2.2227,-2.0201,-1.9288,-1.8365,-1.7621,-1.6574,-1.5818,-1.4956,-1.3998,-1.2942,-1.198,-1.1096,-1.0207,-0.9379,-0.8937,-0.8519,-0.8093,-0.803,-0.8182,-0.8457,-0.8625,-0.9084,-0.9643,-1.0116,-1.076,-1.1497,-1.1957,-1.2694,-1.3423,-1.4141,-1.4376,-1.4751,-1.5446,-1.5841,-1.6223,-1.6892,-1.7716,-1.8327,-1.8656,-1.9362,-2.0313,-2.1502,-2.2317,-2.3412,-2.4862,-2.5664,-2.644,-2.7162,-2.7842,-2.8495,-2.9162,-2.9822,-3.0312,1.9273,1.9052,1.8689,1.8498,1.82,1.7997,1.8312,0.0,0.0,0.0,0.0,0.0,0.0,1.5404,1.4881,1.3764,1.2018,1.0468,0.922,0.7713,0.6211,0.4732,0.2719,0.0504,-0.2013,-0.4219,-0.6318,-0.8411,-1.0769,-1.3011,-1.5038,-1.7008,-1.878,-2.0374,-2.1722,-2.2794,-2.3503,-2.4519,-2.5031,-2.52,-2.6135,-2.6644,-2.6633,-2.7196,-2.7615,-2.7893,-2.8111,-2.8339,-2.851,-2.851,-2.851,-2.8431,-2.8042,-2.7708,-2.7441,-2.6798,-2.6052,-2.502,-2.3212,-2.1891,-2.0727,-1.982,-1.8819,-1.79,-1.7066,-1.6305,-1.554,-1.4783,-1.363,-1.2467,-1.1688,-1.0998,-1.04,-0.9882,-0.9583,-0.9339,-0.916,-0.9498,-0.9737,-0.9681,-1.0389,-1.1129,-1.1497,-1.2145,-1.278,-1.3223,-1.3773,-1.4321,-1.5122,-1.5527,-1.6118,-1.6828,-1.7126,-1.7587,-1.8254,-1.877,-1.945,-2.0167,-2.0557,-2.1471,-2.315,-2.3925,-2.4802,-2.5688,-2.6427,-2.7175,-2.7842,-2.8417,-2.8944,-2.954,-3.0021,-3.0493,1.9057,1.9275,1.94,1.9275,1.8879,1.8545,1.8743,0.0,0.0,0.0,0.0,0.0,0.0,1.6054,1.5235,1.39,1.2553,1.1174,1.0039,0.847,0.6828,0.5231,0.3524,0.141,-0.1108,-0.3317,-0.552,-0.7816,-1.0173,-1.2517,-1.4657,-1.6734,-1.8611,-2.0292,-2.1463,-2.253,-2.3503,-2.4262,-2.485,-2.52,-2.6135,-2.6644,-2.6644,-2.7371,-2.7788,-2.7881,-2.8191,-2.8431,-2.851,-2.851,-2.851,-2.851,-2.8191,-2.795,-2.7615,-2.655,-2.5538,-2.4423,-2.3047,-2.19,-2.0817,-1.9911,-1.9004,-1.8172,-1.7434,-1.6676,-1.5913,-1.5445,-1.4394,-1.3238,-1.2467,-1.1883,-1.1389,-1.0998,-1.0708,-1.0485,-1.0391,-1.0757,-1.1115,-1.1216,-1.1952,-1.2703,-1.3085,-1.3649,-1.4303,-1.4948,-1.5325,-1.5879,-1.6704,-1.7094,-1.7517,-1.8153,-1.8604,-1.9056,-1.9635,-2.03,-2.0895,-2.1215,-2.1711,-2.2542,-2.374,-2.4443,-2.5361,-2.6316,-2.7088,-2.8001,-2.8972,-2.9642,-3.0262,-3.092,-3.1459,-3.2014,1.8983,1.9519,1.998,1.9924,1.9556,1.921,1.9286,0.0,0.0,0.0,0.0,0.0,0.0,1.6477,1.5409,1.4353,1.3188,1.2083,1.0756,0.9209,0.7624,0.5729,0.4126,0.2216,-0.0202,-0.2516,-0.4822,-0.7117,-0.9575,-1.1925,-1.4172,-1.6264,-1.8241,-2.0011,-2.1096,-2.2176,-2.3406,-2.409,-2.468,-2.52,-2.6135,-2.6644,-2.6644,-2.7476,-2.7893,-2.7881,-2.8363,-2.851,-2.851,-2.851,-2.851,-2.851,-2.8259,-2.795,-2.7557,-2.6313,-2.5285,-2.4251,-2.3319,-2.2255,-2.1177,-2.0266,-1.9363,-1.8627,-1.7792,-1.7037,-1.6386,-1.6109,-1.5153,-1.4196,-1.3238,-1.2754,-1.2268,-1.198,-1.1683,-1.1585,-1.158,-1.197,-1.2462,-1.2759,-1.3426,-1.4088,-1.4669,-1.5153,-1.5717,-1.6473,-1.6857,-1.7333,-1.8357,-1.8589,-1.8873,-1.941,-1.9948,-2.0528,-2.1172,-2.1991,-2.2533,-2.2611,-2.3155,-2.3743,-2.4459,-2.5168,-2.6069,-2.7133,-2.794,-2.893,-3.0048,-3.0746,-3.1495,-3.2227,-3.2771,-3.3393,1.9686,1.9949,2.0048,2.0237,2.013,0.0,2.0312,2.0164,0.0,1.9573,0.0,0.0,0.0,1.6796,1.5669,1.5224,1.3957,1.2569,1.1356,1.0006,0.8421,0.6534,0.4427,0.2518,0.0806,-0.2014,-0.4529,-0.6323,-0.8693,-1.1151,-1.3409,-1.5501,-1.7375,-1.9239,-2.0709,-2.198,-2.3135,-2.3851,-2.4529,-2.52,-2.6135,-2.6644,-2.6644,-2.7476,-2.7893,-2.7881,-2.8363,-2.851,-2.851,-2.851,-2.851,-2.851,-2.8259,-2.7696,-2.6891,-2.6146,-2.5464,-2.469,-2.3754,-2.2969,-2.2167,-2.1177,-2.0266,-1.9363,-1.8519,-1.7785,-1.7138,-1.6676,-1.6109,-1.535,-1.41,-1.3613,-1.3323,-1.2856,-1.2667,-1.2754,-1.2931,-1.3221,-1.3516,-1.41,-1.458,-1.5242,-1.5906,-1.6292,-1.6864,-1.78,-1.7994,-1.8357,-1.9363,-1.9621,-2.0068,-2.0773,-2.1125,-2.1844,-2.293,-2.3625,-2.432,-2.5092,-2.4751,-2.502,-2.6089,-2.6916,-2.774,-2.8503,-2.9298,-3.0021,-3.0827,-3.1335,-3.2004,-3.2737,-3.3099,-3.3577,1.9417,2.012,2.066,2.0366,0.0,0.0,0.0,2.0882,2.071,2.0239,2.0081,0.0,0.0,1.7564,1.6647,1.5888,1.4865,1.3683,1.2339,1.0881,0.9209,0.7332,0.5427,0.3521,0.1813,-0.1208,-0.3823,-0.5622,-0.8103,-1.0565,-1.2909,-1.5108,-1.7095,-1.888,-2.0348,-2.1624,-2.2608,-2.3493,-2.4272,-2.5031,-2.5946,-2.6456,-2.6644,-2.7476,-2.7893,-2.7881,-2.8363,-2.851,-2.851,-2.851,-2.851,-2.8431,-2.8111,-2.7696,-2.7208,-2.6373,-2.5695,-2.4946,-2.4013,-2.3135,-2.2264,-2.1266,-2.0456,-1.9646,-1.8912,-1.8265,-1.7714,-1.734,-1.7059,-1.6386,-1.5051,-1.4484,-1.4202,-1.3817,-1.3721,-1.3817,-1.4004,-1.4286,-1.4663,-1.5337,-1.5818,-1.6292,-1.7232,-1.7426,-1.7893,-1.8904,-1.8996,-1.9363,-2.0365,-2.0637,-2.1087,-2.1802,-2.2795,-2.3744,-2.4596,-2.5124,-2.5802,-2.6668,-2.6086,-2.6094,-2.6911,-2.7644,-2.8527,-2.9626,-3.033,-3.121,-3.2236,-3.284,-3.3527,-3.4133,-3.4711,-3.5308,1.9695,2.0489,2.1124,0.0,0.0,0.0,2.1543,2.148,2.1492,2.1196,2.0898,2.0375,1.9264,1.8483,1.7606,1.6791,1.5671,1.4465,1.3119,1.1663,1.0002,0.8226,0.6326,0.4422,0.2615,-0.0201,-0.2815,-0.4818,-0.7406,-0.9878,-1.2226,-1.4536,-1.6626,-1.8511,-1.9985,-2.1266,-2.2353,-2.3232,-2.41,-2.4946,-2.5695,-2.629,-2.6644,-2.7476,-2.7893,-2.7881,-2.8363,-2.851,-2.851,-2.851,-2.851,-2.8431,-2.8122,-2.7777,-2.7429,-2.6693,-2.6041,-2.5285,-2.4433,-2.357,-2.2696,-2.1713,-2.1006,-2.0283,-1.9463,-1.8912,-1.8542,-1.8272,-1.7893,-1.7412,-1.6365,-1.5717,-1.5166,-1.4873,-1.4777,-1.4873,-1.5255,-1.5445,-1.5818,-1.6662,-1.6951,-1.7426,-1.8357,-1.8542,-1.8912,-1.9911,-2.0002,-2.0365,-2.1356,-2.1624,-2.2069,-2.295,-2.4155,-2.5094,-2.5874,-2.6296,-2.6898,-2.781,-2.7555,-2.7545,-2.8024,-2.876,-2.9675,-3.0679,-3.146,-3.2289,-3.3269,-3.3977,-3.4654,-3.5249,-3.5894,-3.6585,2.0759,2.1176,2.121,0.0,0.0,0.0,2.2263,2.2083,2.2114,2.247,2.1797,2.1062,2.0533,1.9445,1.839,1.7817,1.6372,1.4956,1.3703,1.216,1.06,0.9023,0.7126,0.5225,0.3417,0.1005,-0.1406,-0.3815,-0.6509,-0.8992,-1.1463,-1.3788,-1.588,-1.794,-1.9446,-2.1006,-2.2353,-2.3144,-2.3927,-2.4861,-2.5549,-2.6146,-2.6644,-2.7476,-2.7893,-2.7881,-2.8363,-2.851,-2.851,-2.851,-2.851,-2.851,-2.8259,-2.7926,-2.7441,-2.7044,-2.6479,-2.5812,-2.5126,-2.4433,-2.3657,-2.2696,-2.1989,-2.1266,-2.0555,-2.0011,-1.9546,-1.9279,-1.8812,-1.8427,-1.8427,-1.7512,-1.6487,-1.592,-1.5825,-1.5927,-1.6494,-1.6581,-1.6864,-1.79,-1.8087,-1.845,-1.9455,-1.9637,-1.9911,-2.0898,-2.0988,-2.1356,-2.2255,-2.2441,-2.295,-2.4413,-2.5105,-2.5874,-2.6809,-2.7278,-2.7914,-2.8712,-2.9406,-2.9704,-2.9704,-3.0482,-3.1172,-3.1776,-3.2632,-3.3269,-3.3839,-3.452,-3.5329,-3.6037,-3.6476,-3.7089,2.0759,2.1243,0.0,2.1946,0.0,0.0,0.0,2.2734,0.0,0.0,2.1992,2.1474,2.0926,2.0013,1.905,1.8156,1.6951,1.5818,1.4561,1.3119,1.1565,0.9805,0.8018,0.6124,0.4124,0.1709,-0.1006,-0.3624,-0.5919,-0.8199,-1.0667,-1.3,-1.5121,-1.7203,-1.888,-2.0357,-2.1713,-2.2696,-2.3657,-2.4594,-2.5285,-2.5968,-2.6644,-2.7476,-2.7893,-2.7881,-2.8363,-2.8578,-2.8724,-2.8895,-2.8816,-2.8724,-2.8498,-2.8259,-2.7926,-2.736,-2.688,-2.6479,-2.5622,-2.485,-2.4155,-2.3377,-2.2687,-2.1989,-2.1436,-2.0988,-2.0546,-2.0275,-2.0002,-1.9729,-1.953,-1.9163,-1.8703,-1.7699,-1.7426,-1.7512,-1.7785,-1.7878,-1.8156,-1.8996,-1.9188,-1.9455,-2.0456,-2.0546,-2.0907,-2.1811,-2.1989,-2.2422,-2.3551,-2.4079,-2.4669,-2.56,-2.6268,-2.6928,-2.7499,-2.8235,-2.887,-2.9406,-3.0088,-3.0558,-3.0558,-3.1158,-3.1909,-3.2632,-3.3269,-3.3839,-3.4414,-3.5118,-3.5752,-3.6321,-3.6937,-3.7535,2.1121,2.1462,0.0,2.2482,2.2982,2.3187,2.3285,0.0,0.0,0.0,2.2567,2.2293,2.1667,2.0817,1.982,1.8819,1.7792,1.6567,1.5324,1.3884,1.2344,1.069,0.881,0.6921,0.5024,0.2715,0.0101,-0.2718,-0.502,-0.7403,-0.9976,-1.2318,-1.4536,-1.664,-1.8503,-2.0076,-2.1356,-2.2511,-2.356,-2.4498,-2.5189,-2.5874,-2.6644,-2.7383,-2.78,-2.7973,-2.8431,-2.8724,-2.8803,-2.9052,-2.9052,-2.8882,-2.8816,-2.8578,-2.8259,-2.7846,-2.7441,-2.7044,-2.629,-2.5611,-2.4914,-2.4231,-2.356,-2.2872,-2.2403,-2.1971,-2.1624,-2.1427,-2.1257,-2.1078,-2.097,-2.0872,-2.052,-1.8988,-1.8627,-1.8719,-1.898,-1.908,-1.9355,-2.0002,-2.0266,-2.0628,-2.1445,-2.1704,-2.205,-2.2872,-2.3299,-2.381,-2.4754,-2.5359,-2.5946,-2.6599,-2.7255,-2.7742,-2.8303,-2.9028,-2.9651,-3.0165,-3.0934,-3.1529,-3.1809,-3.2114,-3.2632,-3.3269,-3.3839,-3.4467,-3.4986,-3.5688,-3.6243,-3.6799,-3.746,-3.81,2.1588,2.1771,0.0,2.2946,2.3257,0.0,2.3525,2.3722,2.3684,2.3234,2.3271,2.328,2.252,2.1624,2.0727,1.982,1.8619,1.7404,1.6082,1.4561,1.3028,1.1482,0.9604,0.7717,0.5822,0.392,0.1609,-0.1308,-0.3815,-0.6512,-0.9288,-1.1731,-1.4052,-1.6257,-1.8126,-1.9795,-2.1356,-2.252,-2.356,-2.4498,-2.5189,-2.5874,-2.655,-2.7196,-2.7615,-2.7962,-2.8578,-2.8803,-2.8882,-2.9052,-2.9131,-2.9131,-2.9131,-2.8895,-2.859,-2.851,-2.8167,-2.7603,-2.7126,-2.6539,-2.5935,-2.5168,-2.4509,-2.3831,-2.3454,-2.3115,-2.2882,-2.2668,-2.257,-2.257,-2.257,-2.257,-2.212,-2.0331,-1.9803,-1.9803,-2.0068,-2.0266,-2.0645,-2.1087,-2.1526,-2.1971,-2.2432,-2.294,-2.3367,-2.3917,-2.4775,-2.5527,-2.6019,-2.6434,-2.694,-2.7603,-2.7983,-2.8542,-2.9197,-2.9806,-3.0406,-3.1022,-3.175,-3.2561,-3.3339,-3.3199,-3.3339,-3.3908,-3.4481,-3.4986,-3.5464,-3.6165,-3.686,-3.7476,-3.81,-3.8717,2.1588,2.1895,0.0,0.0,2.3478,2.3583,2.3604,2.3687,2.3673,2.3402,2.3267,2.3077,2.2736,2.1989,2.1087,2.0292,1.9263,1.8141,1.6835,1.5514,1.3986,1.2242,1.0485,0.8513,0.642,0.4318,0.2011,-0.0503,-0.2912,-0.5513,-0.8202,-1.0663,-1.3006,-1.5222,-1.7188,-1.9055,-2.0727,-2.2167,-2.3319,-2.4282,-2.4946,-2.5611,-2.6279,-2.694,-2.7603,-2.8179,-2.8736,-2.9052,-2.9052,-2.9468,-2.9534,-2.9341,-2.9341,-2.9197,-2.8973,-2.8803,-2.8645,-2.8395,-2.7822,-2.7336,-2.6846,-2.6268,-2.5611,-2.4861,-2.4765,-2.4337,-2.3907,-2.381,-2.3627,-2.3531,-2.3531,-2.3531,-2.3357,-2.2989,-2.2296,-2.1774,-2.1695,-2.1784,-2.2059,-2.2344,-2.2589,-2.2931,-2.3396,-2.3897,-2.4488,-2.5348,-2.6102,-2.6682,-2.7103,-2.7661,-2.8223,-2.8724,-2.9263,-2.9793,-3.0241,-3.0859,-3.1468,-3.2042,-3.269,-3.3409,-3.4153,-3.3948,-3.4099,-3.4654,-3.5169,-3.5688,-3.618,-3.686,-3.7519,-3.81,-3.8717,-3.9259,2.1459,0.0,0.0,2.3264,0.0,2.3851,2.3857,2.3794,2.359,2.3527,2.3275,2.3008,2.2585,2.1835,2.0953,2.0193,1.9354,1.8367,1.7176,1.6088,1.4752,1.3113,1.1268,0.9402,0.7319,0.5118,0.2712,0.0402,-0.2512,-0.5118,-0.7505,-1.007,-1.242,-1.4752,-1.6908,-1.878,-2.0464,-2.1989,-2.3232,-2.4024,-2.4861,-2.5706,-2.6539,-2.7196,-2.7857,-2.8339,-2.8895,-2.9221,-2.9456,-2.9779,-2.9921,-2.9896,-2.9896,-2.9741,-2.9611,-2.9443,-2.9275,-2.9028,-2.8542,-2.8075,-2.7592,-2.7244,-2.661,-2.5957,-2.5863,-2.5516,-2.5179,-2.502,-2.4935,-2.485,-2.485,-2.485,-2.4754,-2.4669,-2.379,-2.3008,-2.2931,-2.3105,-2.3367,-2.356,-2.3897,-2.4231,-2.4594,-2.5179,-2.5913,-2.6659,-2.7325,-2.7822,-2.8395,-2.8767,-2.9316,-2.9883,-3.033,-3.0771,-3.1294,-3.1896,-3.2475,-3.2889,-3.352,-3.4206,-3.4876,-3.5073,-3.527,-3.5509,-3.5928,-3.6415,-3.6982,-3.7578,-3.8157,-3.8756,-3.9348,-3.9833,2.1295,0.0,2.2076,2.3304,2.3732,0.0,2.4019,2.3829,2.3568,2.3601,2.3281,2.2898,2.2431,2.1763,2.0996,2.0183,1.9505,1.8645,1.7394,1.6423,1.5363,1.3761,1.2062,1.0236,0.8375,0.6004,0.3615,0.1408,-0.1909,-0.4822,-0.691,-0.9473,-1.2022,-1.4358,-1.6619,-1.8596,-2.0192,-2.19,-2.3057,-2.3754,-2.4861,-2.5884,-2.6891,-2.7557,-2.8122,-2.851,-2.8973,-2.9378,-2.9792,-3.0088,-3.0305,-3.0444,-3.052,-3.0368,-3.0228,-3.0228,-2.9985,-2.9574,-2.9353,-2.8882,-2.8327,-2.8143,-2.7592,-2.7044,-2.6775,-2.6517,-2.6362,-2.6135,-2.6146,-2.6146,-2.6146,-2.6146,-2.6052,-2.5874,-2.5084,-2.4307,-2.4145,-2.4327,-2.4584,-2.4754,-2.5179,-2.5611,-2.5863,-2.6599,-2.7406,-2.7971,-2.845,-2.9015,-2.9561,-2.9935,-3.0304,-3.1009,-3.1381,-3.1736,-3.2331,-3.2903,-3.3395,-3.3782,-3.4394,-3.5059,-3.5593,-3.6228,-3.6554,-3.6554,-3.6799,-3.7207,-3.7754,-3.8214,-3.8772,-3.9348,-3.9868,-4.0336,0.0,0.0,2.2191,0.0,2.3263,2.3314,0.0,2.3591,2.3468,2.3152,2.2937,2.2835,2.2929,2.2267,2.1515,2.0996,2.0219,1.9239,1.8009,1.6898,1.5673,1.4229,1.267,1.0991,0.9168,0.7042,0.5016,0.3015,-0.01,-0.3316,-0.6321,-0.8594,-1.1146,-1.3878,-1.5954,-1.8018,-1.9894,-2.1427,-2.2687,-2.359,-2.5041,-2.6229,-2.6891,-2.7557,-2.8122,-2.851,-2.9118,-2.9521,-2.9869,-3.0394,-3.0622,-3.0698,-3.0836,-3.0911,-3.0911,-3.0911,-3.0761,-3.0533,-3.0292,-2.9806,-2.9184,-2.8961,-2.8383,-2.7649,-2.7649,-2.7325,-2.7103,-2.7021,-2.7021,-2.7021,-2.7021,-2.7021,-2.7021,-2.7021,-2.6846,-2.6505,-2.5516,-2.5454,-2.5717,-2.5935,-2.6517,-2.701,-2.7406,-2.7971,-2.8462,-2.9094,-2.9561,-3.0024,-3.0633,-3.1206,-3.1649,-3.1909,-3.2618,-3.3115,-3.3297,-3.3865,-3.4423,-3.4957,-3.535,-3.5864,-3.6477,-3.6982,-3.7519,-3.8042,-3.7812,-3.7985,-3.8455,-3.8882,-3.9348,-3.9902,-4.0353,-4.0806,2.1143,2.1626,2.2006,0.0,2.2971,2.3179,2.3664,2.3603,2.3485,2.339,2.309,2.2764,2.2434,2.1758,2.1123,2.0562,1.9861,1.9097,1.8083,1.7124,1.5999,1.4744,1.3123,1.1435,0.9746,0.7525,0.5467,0.3757,0.0494,-0.2583,-0.532,-0.81,-1.0756,-1.3193,-1.5481,-1.7561,-1.9521,-2.106,-2.2677,-2.4272,-2.5538,-2.6456,-2.7115,-2.7777,-2.8259,-2.8736,-2.9184,-2.9741,-3.0318,-3.0836,-3.1136,-3.1373,-3.1569,-3.1629,-3.1629,-3.1629,-3.1408,-3.1198,-3.111,-3.057,-2.9973,-2.9896,-2.9341,-2.87,-2.8542,-2.8315,-2.8075,-2.7926,-2.7926,-2.7926,-2.7926,-2.7926,-2.7926,-2.8075,-2.8075,-2.7983,-2.7637,-2.7174,-2.6869,-2.7267,-2.7753,-2.8155,-2.8474,-2.9015,-2.9484,-3.0012,-3.062,-3.122,-3.1676,-3.2245,-3.2818,-3.3171,-3.3673,-3.407,-3.4528,-3.4876,-3.535,-3.5864,-3.6305,-3.6738,-3.7222,-3.7754,-3.8327,-3.881,-3.859,-3.8772,-3.9239,-3.9575,-4.0003,-4.0449,-4.0866,-4.1255,0.0,0.0,2.1625,2.2281,2.2603,2.285,2.3447,2.3526,2.3404,2.3408,2.3209,2.2777,2.2101,2.1492,2.0867,2.0177,1.9629,1.8936,1.8046,1.7172,1.6111,1.5062,1.3517,1.1844,1.0196,0.8098,0.6005,0.4264,0.1066,-0.2054,-0.4785,-0.7648,-1.0312,-1.2603,-1.5102,-1.7282,-1.9147,-2.115,-2.3115,-2.5031,-2.5863,-2.6682,-2.7336,-2.8087,-2.8645,-2.9106,-2.9496,-3.0126,-3.0911,-3.1421,-3.179,-3.2241,-3.2431,-3.2475,-3.2547,-3.2475,-3.2273,-3.1909,-3.1909,-3.132,-3.0659,-3.0672,-3.0203,-2.9651,-2.9443,-2.9197,-2.9028,-2.8882,-2.8803,-2.8803,-2.8803,-2.8803,-2.8882,-2.9028,-2.9106,-2.9106,-2.9081,-2.853,-2.8075,-2.8474,-2.8949,-2.9263,-2.9509,-3.0024,-3.062,-3.0983,-3.1723,-3.2318,-3.2761,-3.3325,-3.3879,-3.4409,-3.4743,-3.5139,-3.5593,-3.5913,-3.6305,-3.6677,-3.7163,-3.7637,-3.7911,-3.8495,-3.899,-3.9454,-3.9437,-3.961,-3.9918,-4.0237,-4.0611,-4.1036,-4.1373,-4.1744,0.0,2.1157,0.0,2.1828,2.2092,2.2217,2.2456,2.2947,2.3313,2.2898,2.2904,2.2852,2.2478,2.1883,2.1272,2.0644,1.9872,1.9011,1.8146,1.7098,1.6118,1.5216,1.3825,1.2392,1.0875,0.8958,0.6913,0.4748,0.1899,-0.1437,-0.5183,-0.7311,-0.9682,-1.2598,-1.5007,-1.7188,-1.9147,-2.1961,-2.4003,-2.52,-2.603,-2.6928,-2.781,-2.8462,-2.9184,-2.996,-3.0203,-3.0659,-3.1347,-3.2055,-3.2561,-3.2988,-3.3339,-3.3604,-3.3728,-3.3548,-3.3269,-3.2917,-3.2704,-3.2128,-3.1482,-3.1347,-3.081,-3.0292,-3.0075,-2.9896,-2.9626,-2.9626,-2.9626,-2.9626,-2.9626,-2.9626,-2.9704,-2.9871,-2.996,-2.9793,-2.9238,-2.9172,-2.9328,-2.9549,-3.0037,-3.0432,-3.0722,-3.1294,-3.1869,-3.2259,-3.2832,-3.3395,-3.3934,-3.4476,-3.4942,-3.527,-3.5913,-3.6305,-3.6368,-3.6921,-3.7417,-3.7519,-3.7985,-3.8439,-3.892,-3.9206,-3.9627,-4.012,-4.0514,-4.0659,-4.0531,-4.0836,-4.1192,-4.1666,-4.1831,-4.2127,0.0,0.0,0.0,2.1412,2.1719,2.1995,2.2303,2.2589,2.2682,2.2385,2.2644,2.2688,2.2092,2.1676,2.1272,2.0722,1.9942,1.9231,1.8353,1.7375,1.6386,1.5401,1.405,1.2653,1.1097,0.9216,0.7228,0.5113,0.2325,-0.0751,-0.4025,-0.6401,-0.893,-1.1798,-1.4272,-1.7162,-2.0512,-2.2658,-2.4155,-2.52,-2.6351,-2.7336,-2.8051,-2.8924,-2.9793,-3.0646,-3.1381,-3.1763,-3.1836,-3.2632,-3.3255,-3.3728,-3.407,-3.4341,-3.4461,-3.4341,-3.407,-3.3879,-3.3548,-3.2988,-3.2417,-3.2128,-3.1542,-3.0973,-3.0761,-3.0444,-3.0114,-3.0114,-3.0203,-3.0368,-3.0368,-3.0432,-3.0659,-3.0947,-3.1172,-3.1307,-3.1057,-3.0771,-3.0545,-3.062,-3.1084,-3.1542,-3.1676,-3.2259,-3.2889,-3.3241,-3.3865,-3.4476,-3.4876,-3.5464,-3.5961,-3.6337,-3.6784,-3.7163,-3.7445,-3.7812,-3.8157,-3.8479,-3.881,-3.9189,-3.9645,-3.9969,-4.0368,-4.0707,-4.1157,-4.1311,-4.11,-4.1436,-4.177,-4.2175,-4.2292,-4.2591,2.0704,0.0,0.0,0.0,2.1131,2.1338,2.18,2.1987,2.2062,2.1913,2.2271,2.2324,2.161,2.1417,2.1166,2.0702,1.9942,1.924,1.8523,1.7619,1.6632,1.5643,1.4384,1.3027,1.1413,0.9579,0.769,0.5551,0.2823,-0.0,-0.3001,-0.5619,-0.8745,-1.2401,-1.4728,-1.7543,-2.102,-2.2656,-2.4033,-2.5053,-2.6506,-2.7643,-2.8276,-2.9539,-3.0545,-3.1455,-3.239,-3.2676,-3.2618,-3.3465,-3.4206,-3.4743,-3.5059,-3.5385,-3.5514,-3.532,-3.5073,-3.481,-3.4438,-3.3879,-3.3325,-3.2846,-3.22,-3.1629,-3.136,-3.1061,-3.0823,-3.0823,-3.0911,-3.0999,-3.1075,-3.1286,-3.1556,-3.1909,-3.22,-3.2417,-3.2561,-3.2114,-3.1663,-3.1809,-3.2187,-3.2547,-3.2832,-3.3395,-3.3934,-3.4259,-3.4927,-3.5514,-3.5834,-3.6415,-3.6966,-3.731,-3.7679,-3.8042,-3.8439,-3.8662,-3.8936,-3.9279,-3.9627,-3.9935,-4.0319,-4.0659,-4.1036,-4.1356,-4.1753,-4.1948,-4.1948,-4.2068,-4.2333,-4.2673,-4.2747,-4.3013,0.0,0.0,0.0,2.0595,2.0424,2.0336,2.0807,2.1263,2.1539,2.1406,2.1756,2.1827,2.115,2.101,2.0941,2.0623,1.9844,1.9063,1.8514,1.7627,1.6722,1.5816,1.481,1.3464,1.1843,1.0193,0.8261,0.5883,0.3479,0.081,-0.2202,-0.5228,-0.9199,-1.4443,-1.6411,-1.8423,-2.0475,-2.2053,-2.3444,-2.4736,-2.6531,-2.7799,-2.8674,-3.0198,-3.1502,-3.2461,-3.3227,-3.3575,-3.3644,-3.4595,-3.5335,-3.5976,-3.629,-3.6662,-3.6906,-3.6538,-3.6228,-3.5849,-3.5415,-3.4758,-3.4085,-3.3479,-3.2917,-3.2345,-3.2023,-3.1743,-3.1596,-3.1596,-3.1609,-3.1683,-3.189,-3.2155,-3.2489,-3.2704,-3.2917,-3.3129,-3.3548,-3.3044,-3.2561,-3.2988,-3.3199,-3.3618,-3.4288,-3.4691,-3.5073,-3.54,-3.6039,-3.6538,-3.689,-3.7326,-3.7812,-3.827,-3.8623,-3.8952,-3.9206,-3.9556,-3.9799,-4.0003,-4.0353,-4.0662,-4.1024,-4.13,-4.1657,-4.2103,-4.2315,-4.2616,-4.3032,-4.2729,-4.2824,-4.3196,-4.3232,-4.3391,2.1067,0.0,0.0,0.0,0.0,0.0,2.0449,2.0783,2.0962,2.0437,2.1027,2.134,2.0647,2.0529,2.0471,2.0171,1.9743,1.932,1.8692,1.7878,1.7057,1.6312,1.5061,1.3802,1.2528,1.0794,0.8873,0.6858,0.4816,0.2236,-0.0989,-0.6071,-1.0404,-1.3686,-1.6111,-1.8501,-2.0717,-2.2289,-2.3833,-2.5372,-2.6716,-2.7977,-2.9027,-3.0597,-3.1916,-3.2976,-3.4309,-3.5275,-3.5885,-3.5773,-3.6182,-3.6814,-3.7131,-3.7429,-3.7578,-3.7222,-3.6982,-3.6738,-3.6133,-3.5544,-3.4942,-3.4288,-3.3604,-3.2988,-3.2574,-3.2214,-3.1923,-3.1923,-3.2069,-3.2286,-3.2646,-3.2874,-3.3157,-3.3423,-3.3632,-3.3894,-3.4274,-3.4288,-3.4167,-3.4016,-3.4356,-3.4824,-3.519,-3.5642,-3.6165,-3.6569,-3.7147,-3.7578,-3.7854,-3.8423,-3.8865,-3.9098,-3.9454,-3.9782,-3.9969,-4.0204,-4.0434,-4.0724,-4.1007,-4.13,-4.1657,-4.1941,-4.2257,-4.2516,-4.2844,-4.3124,-4.3442,-4.3196,-4.3267,-4.3563,-4.3791,-4.398,2.128,2.0921,2.0537,2.0539,0.0,0.0,2.0073,2.0145,2.0193,2.0025,2.0389,2.0599,2.0122,2.0048,1.9941,1.9409,1.9146,1.8926,1.8736,1.7968,1.7147,1.6476,1.5401,1.4146,1.279,1.1144,0.9401,0.7383,0.5349,0.2316,-0.196,-0.6542,-1.025,-1.2886,-1.5376,-1.7777,-2.0107,-2.1879,-2.3623,-2.5263,-2.6871,-2.8254,-2.9384,-3.0992,-3.2473,-3.3844,-3.5087,-3.6336,-3.7499,-3.7526,-3.7642,-3.7937,-3.8206,-3.8446,-3.8574,-3.8254,-3.7969,-3.7679,-3.7027,-3.6352,-3.5721,-3.5008,-3.4356,-3.3673,-3.3199,-3.2775,-3.2489,-3.2345,-3.2561,-3.286,-3.3143,-3.3437,-3.3716,-3.3991,-3.4264,-3.452,-3.4942,-3.5234,-3.5249,-3.5037,-3.5285,-3.5737,-3.6212,-3.6723,-3.7207,-3.7648,-3.8124,-3.8535,-3.8903,-3.9279,-3.9662,-3.9969,-4.0203,-4.0466,-4.0741,-4.0931,-4.1117,-4.1346,-4.1596,-4.1856,-4.2187,-4.2516,-4.277,-4.3014,-4.3286,-4.3597,-4.3968,-4.366,-4.366,-4.3949,-4.424,-4.4383,2.0275,2.0468,2.0709,2.0321,1.9914,0.0,1.9734,1.9535,1.9424,1.9875,1.9868,1.9747,1.9576,1.9525,1.9349,1.8684,1.8297,1.8161,1.8593,1.79,1.7098,1.6476,1.5658,1.4489,1.296,1.1499,0.984,0.7822,0.5164,0.1335,-0.392,-0.6747,-0.9374,-1.2151,-1.4497,-1.6798,-1.9237,-2.1324,-2.3147,-2.485,-2.7088,-2.8691,-2.9738,-3.134,-3.3092,-3.4942,-3.5692,-3.7004,-3.8723,-3.9315,-3.9385,-3.9189,-3.9437,-3.9594,-3.9697,-3.9401,-3.9011,-3.8557,-3.7937,-3.7191,-3.6415,-3.5706,-3.5073,-3.4423,-3.3894,-3.3409,-3.3058,-3.2917,-3.3086,-3.3466,-3.3675,-3.3937,-3.4264,-3.4481,-3.4802,-3.5184,-3.5688,-3.5958,-3.6085,-3.5928,-3.6196,-3.6554,-3.7238,-3.7754,-3.8197,-3.8613,-3.9065,-3.9506,-3.9885,-4.0103,-4.0351,-4.0849,-4.0943,-4.1082,-4.1436,-4.1631,-4.1762,-4.1977,-4.2175,-4.2378,-4.2649,-4.2939,-4.3232,-4.3548,-4.373,-4.406,-4.4532,-4.4102,-4.4053,-4.4393,-4.456,-4.4685,1.2529,1.6639,2.0885,2.0623,2.0156,0.0,1.9503,1.948,1.9383,1.9195,1.9222,1.9299,1.921,1.8868,1.8645,1.8595,1.8133,1.7899,1.8175,1.749,1.6885,1.6698,1.5748,1.4664,1.3646,1.21,1.0448,0.8782,0.4444,0.0178,-0.3657,-0.6307,-0.8931,-1.1616,-1.4309,-1.6871,-1.9386,-2.1466,-2.3576,-2.5615,-2.7323,-2.8949,-3.0366,-3.1946,-3.3729,-3.5657,-3.6793,-3.8269,-3.9919,-4.048,-4.0383,-3.9986,-4.0285,-4.0383,-4.0383,-4.0086,-3.9732,-3.9279,-3.8557,-3.7879,-3.7235,-3.6477,-3.5721,-3.5073,-3.4601,-3.4196,-3.3854,-3.373,-3.3799,-3.3991,-3.421,-3.4467,-3.4868,-3.5228,-3.5539,-3.591,-3.6289,-3.6569,-3.6845,-3.7385,-3.737,-3.7605,-3.8327,-3.881,-3.9262,-3.9766,-4.0119,-4.0431,-4.0737,-4.1082,-4.1318,-4.1453,-4.1701,-4.1874,-4.1977,-4.2127,-4.2333,-4.2432,-4.2693,-4.2939,-4.3087,-4.3373,-4.3679,-4.391,-4.4317,-4.4568,-4.4745,-4.4613,-4.4621,-4.4777,-4.487,-4.4943,0.493,0.7509,1.1051,1.4433,1.5018,0.0,0.0,1.9446,1.928,1.9121,1.9091,1.9025,1.891,1.8743,1.8537,1.8257,1.7829,1.7555,1.7656,1.7064,1.6632,1.6348,1.5488,1.4522,1.3621,1.2338,1.0494,0.7811,0.4539,0.107,-0.2409,-0.5331,-0.8055,-1.0838,-1.3794,-1.6611,-1.9289,-2.1748,-2.3979,-2.6202,-2.7984,-2.9633,-3.1217,-3.2502,-3.4371,-3.6648,-3.7503,-3.8984,-4.0797,-4.1303,-4.1393,-4.1286,-4.1258,-4.1185,-4.1139,-4.0972,-4.0546,-4.0036,-3.9473,-3.8707,-3.7937,-3.7251,-3.6523,-3.5785,-3.5234,-3.4654,-3.4278,-3.4293,-3.4414,-3.4534,-3.475,-3.5067,-3.5379,-3.5668,-3.5988,-3.6352,-3.6785,-3.7074,-3.7519,-3.8311,-3.8518,-3.8723,-3.9135,-3.9594,-4.0086,-4.0642,-4.0972,-4.1276,-4.1543,-4.1839,-4.2044,-4.2151,-4.2274,-4.2454,-4.2516,-4.2711,-4.2826,-4.2957,-4.3178,-4.3373,-4.3461,-4.3758,-4.4091,-4.4345,-4.47,-4.4919,-4.4991,-4.5042,-4.5042,-4.5057,-4.5125,-4.5192,-0.2851,-0.1772,0.0672,0.6391,0.7727,0.9421,0.0,0.0,0.0,1.9017,1.9016,1.8783,1.8647,1.8606,1.8323,1.7799,1.7453,1.7151,1.7008,1.668,1.6288,1.6049,1.5211,1.435,1.3567,1.2332,1.0203,0.6847,0.4861,0.2393,-0.0976,-0.4257,-0.7264,-0.9976,-1.3193,-1.6269,-1.9191,-2.1868,-2.4447,-2.6764,-2.8743,-3.0542,-3.2093,-3.3382,-3.5267,-3.7689,-3.8357,-3.9745,-4.1569,-4.1997,-4.236,-4.2537,-4.2175,-4.2008,-4.1881,-4.1788,-4.1356,-4.0767,-4.0302,-3.956,-3.8668,-3.7978,-3.7191,-3.6368,-3.5737,-3.5103,-3.4668,-3.4817,-3.5001,-3.5133,-3.5344,-3.5638,-3.5943,-3.6148,-3.6399,-3.6785,-3.7238,-3.761,-3.8132,-3.8974,-3.9437,-3.9749,-3.98,-4.0252,-4.0784,-4.1328,-4.1666,-4.199,-4.232,-4.2498,-4.2616,-4.2808,-4.2864,-4.2939,-4.3087,-4.3214,-4.3321,-4.3426,-4.3646,-4.3809,-4.3809,-4.4132,-4.4467,-4.477,-4.5038,-4.5173,-4.5256,-4.5381,-4.5381,-4.5256,-4.5319,-4.538,-1.1162,-0.6197,-0.082,0.0098,0.0269,0.2047,0.9062,0.0,1.1965,1.7992,0.0,1.8368,1.844,0.0,0.0,1.7304,1.6826,1.6495,1.6395,1.5943,1.5718,1.5959,1.5211,1.4428,1.381,1.1754,0.9505,0.7296,0.5132,0.2683,-0.0173,-0.3431,-0.6464,-0.9443,-1.2843,-1.609,-1.9191,-2.2008,-2.4685,-2.7235,-2.9411,-3.1357,-3.3029,-3.4922,-3.6784,-3.8515,-3.9791,-4.1091,-4.2382,-4.2752,-4.3032,-4.316,-4.277,-4.2577,-4.2577,-4.2396,-4.2092,-4.1648,-4.0926,-4.0351,-3.968,-3.8723,-3.7589,-3.6554,-3.6085,-3.5767,-3.5494,-3.535,-3.5559,-3.591,-3.591,-3.6226,-3.6646,-3.6784,-3.7042,-3.7417,-3.777,-3.8173,-3.8733,-3.9401,-3.9952,-4.04,-4.0594,-4.11,-4.1613,-4.2032,-4.236,-4.2655,-4.2902,-4.3087,-4.3196,-4.3232,-4.3321,-4.3426,-4.3511,-4.3579,-4.3697,-4.3832,-4.403,-4.4132,-4.4132,-4.4576,-4.4895,-4.5038,-4.526,-4.5381,-4.5381,-4.5565,-4.5601,-4.5476,-4.5532,-4.5584,-1.9192,-1.6569,-1.287,-0.8541,-0.7339,-0.535,0.1789,0.3378,0.5263,1.1976,0.0,0.0,0.0,0.0,0.0,0.0,1.7051,1.6714,1.6308,1.5683,1.5368,1.564,1.507,1.4246,1.3292,1.1582,0.9812,0.7983,0.5975,0.3491,0.0518,-0.3042,-0.6219,-0.8996,-1.2409,-1.5815,-1.9303,-2.2254,-2.5141,-2.7969,-3.0127,-3.2312,-3.4538,-3.6058,-3.7939,-4.0094,-4.0899,-4.1917,-4.3032,-4.3301,-4.3511,-4.3649,-4.3511,-4.3284,-4.3032,-4.2902,-4.2577,-4.2157,-4.1674,-4.1047,-4.0252,-3.9065,-3.8084,-3.7282,-3.6815,-3.6507,-3.6258,-3.6196,-3.6305,-3.6554,-3.6693,-3.6892,-3.7178,-3.7401,-3.7578,-3.7812,-3.8343,-3.8733,-3.9152,-3.9902,-4.0497,-4.1019,-4.1516,-4.1796,-4.211,-4.2555,-4.2939,-4.3196,-4.3373,-4.3579,-4.373,-4.373,-4.3795,-4.3892,-4.3949,-4.4011,-4.4121,-4.4296,-4.4486,-4.4629,-4.4732,-4.5,-4.5197,-4.526,-4.5475,-4.5582,-4.5582,-4.5742,-4.58,-4.5737,-4.5727,-4.5757,-2.4379,-2.3948,-2.2269,-1.6786,-1.5134,-1.2954,-0.5707,-0.3949,-0.1914,0.4881,0.6231,0.0,0.0,0.0,1.5997,1.7177,0.0,1.6767,1.6316,1.5587,1.5195,1.5265,1.4725,1.3867,1.2696,1.1575,1.0223,0.8649,0.6671,0.4251,0.1356,-0.2312,-0.5542,-0.8398,-1.1939,-1.5628,-1.9266,-2.2507,-2.5591,-2.8598,-3.0807,-3.325,-3.5842,-3.7209,-3.9089,-4.1312,-4.1941,-4.2736,-4.3594,-4.3744,-4.3892,-4.4023,-4.4055,-4.386,-4.3545,-4.3391,-4.3087,-4.2732,-4.232,-4.1587,-4.0611,-3.9454,-3.8662,-3.81,-3.7637,-3.7298,-3.7074,-3.7074,-3.7103,-3.7266,-3.7417,-3.7594,-3.7812,-3.8059,-3.8214,-3.8383,-3.8952,-3.9295,-3.9749,-4.0546,-4.1082,-4.1622,-4.2297,-4.2378,-4.2537,-4.2995,-4.3391,-4.3682,-4.3809,-4.4017,-4.4128,-4.4128,-4.4199,-4.424,-4.4327,-4.4393,-4.4522,-4.4719,-4.4876,-4.5042,-4.5173,-4.5302,-4.5419,-4.5494,-4.5665,-4.5742,-4.5757,-4.5861,-4.5941,-4.5964,-4.5893,-4.5886,-2.523,-2.4863,-2.4399,-2.3686,-2.3191,-2.0892,-1.3519,-1.1693,-0.9524,-0.2343,-0.0766,0.1266,0.7639,0.8653,1.0418,1.6255,1.6694,0.0,0.0,1.5727,1.5151,1.4649,1.4002,1.3234,1.2459,1.1633,1.0513,0.9074,0.7148,0.4841,0.2186,-0.0926,-0.4207,-0.762,-1.159,-1.5375,-1.9091,-2.2695,-2.602,-2.9004,-3.1531,-3.4081,-3.6527,-3.8576,-4.0295,-4.176,-4.2988,-4.3712,-4.4005,-4.4079,-4.4158,-4.4285,-4.4285,-4.4285,-4.4207,-4.3828,-4.3597,-4.341,-4.2864,-4.1828,-4.0707,-3.9969,-3.9401,-3.8865,-3.8383,-3.8157,-3.8042,-3.7886,-3.7943,-3.8042,-3.8042,-3.8343,-3.8583,-3.875,-3.8952,-3.9259,-3.9662,-4.0053,-4.0546,-4.1237,-4.1709,-4.2157,-4.275,-4.2882,-4.2995,-4.341,-4.3781,-4.4017,-4.4181,-4.4364,-4.4487,-4.4487,-4.4551,-4.4605,-4.4685,-4.4764,-4.487,-4.5061,-4.5156,-4.5243,-4.5362,-4.551,-4.5613,-4.57,-4.5819,-4.5887,-4.5886,-4.5964,-4.6027,-4.6093,-4.6017,-4.6027,-2.5815,-2.5481,-2.5067,-2.4648,-2.4225,-2.3137,-2.0361,-1.9376,-1.7012,-0.9821,-0.8142,-0.5874,0.0955,0.5592,0.9033,1.0946,1.4409,1.6782,0.0,1.5507,1.4675,1.4144,1.3614,1.3104,1.2336,1.1475,1.0402,0.9,0.7206,0.4993,0.2418,-0.058,-0.389,-0.7609,-1.1399,-1.5264,-1.9229,-2.2882,-2.624,-2.9468,-3.1919,-3.4759,-3.7892,-3.9354,-4.1089,-4.3004,-4.3693,-4.4121,-4.4354,-4.4393,-4.4477,-4.4578,-4.4578,-4.4578,-4.4524,-4.4091,-4.386,-4.3649,-4.2939,-4.2198,-4.1428,-4.0784,-4.0252,-3.9714,-3.9189,-3.8936,-3.8827,-3.8678,-3.8717,-3.8865,-3.8936,-3.9082,-3.9295,-3.9558,-3.9645,-3.9851,-4.0368,-4.0707,-4.1082,-4.1692,-4.2157,-4.2655,-4.3178,-4.3495,-4.3646,-4.3814,-4.4128,-4.4393,-4.4513,-4.4667,-4.477,-4.484,-4.4895,-4.4943,-4.5033,-4.5132,-4.526,-4.5361,-4.5475,-4.5545,-4.5599,-4.5723,-4.5808,-4.5822,-4.596,-4.6035,-4.6027,-4.6093,-4.6146,-4.6181,-4.6142,-4.6142,-2.6402,-2.6071,-2.5746,-2.5389,-2.4989,-2.4536,-2.4074,-2.3565,-2.1816,-1.6977,-1.5606,-1.3145,-0.6163,-0.1364,0.2277,0.4555,0.9988,1.4461,0.0,1.5517,1.4706,1.4121,1.3625,1.308,1.241,1.153,1.0604,0.94,0.7597,0.5585,0.3419,0.0244,-0.34,-0.7359,-1.11,-1.505,-1.921,-2.2983,-2.6537,-2.9803,-3.2338,-3.5361,-3.872,-3.9868,-4.1643,-4.3809,-4.4151,-4.4421,-4.4578,-4.4605,-4.4659,-4.4712,-4.4685,-4.4659,-4.4632,-4.4364,-4.4097,-4.38,-4.3142,-4.2616,-4.2092,-4.1516,-4.0972,-4.0466,-4.002,-3.9765,-3.961,-3.9506,-3.9558,-3.9662,-3.9714,-3.9919,-4.0053,-4.0252,-4.0449,-4.0642,-4.1019,-4.1401,-4.1753,-4.2239,-4.2693,-4.3124,-4.3615,-4.3974,-4.4188,-4.4188,-4.443,-4.4693,-4.4821,-4.4943,-4.5061,-4.5087,-4.5173,-4.5239,-4.5321,-4.5438,-4.5547,-4.5599,-4.5712,-4.5771,-4.5805,-4.5917,-4.5975,-4.5975,-4.6085,-4.6141,-4.6138,-4.6189,-4.6216,-4.6245,-4.624,-4.623]}]]